[[{"header":{"parameterUnit":"m.s-1","parameterCategory":1,"la1":31.0,"la2":29.5877,"lo1":-88.7671,"lo2":-86.6584,"dy":0.0162,"dx":0.0185,"nx":115,"ny":88,"refTime":"2024-06-29T06:00:00:Z","depth":0,"parameterNumber":2,"parameterNumberName":"U-component_of_WINDS"},"data":[0.0,0.0,0.0,0.0,0.0,0.0,0.0,0.0,0.0,0.0,0.0,0.0,0.0,0.0,0.0,0.0,0.0,0.0,0.0,0.0,0.0,0.0,0.0,0.0,0.0,0.0,0.0,0.0,0.0,0.0,0.0,0.0,0.0,0.0,0.0,0.0,0.0,0.0,0.0,0.0,0.0,0.0,0.0,0.0,0.0,0.0,0.0,0.0,0.0,0.0,0.0,0.0,0.0,0.0,0.0,0.0,0.0,0.0,0.0,0.0,0.0,0.0,0.0,0.0,0.0,0.0,0.0,0.0,0.0,0.0,0.0,0.0,0.0,0.0,0.0,0.0,0.0,0.0,0.0,0.0,0.0,0.0,0.0,0.0,0.0,0.0,0.0,0.0,0.0,0.0,0.0,0.0,0.0,0.0,0.0,0.0,0.0,0.0,0.0,0.0,0.0,0.0,0.0,0.0,0.0,0.0,0.0,0.0,0.0,0.0,0.0,0.0,0.0,0.0,0.0,0.0,0.0,0.0,0.0,0.0,0.0,0.0,0.0,0.0,0.0,0.0,0.0,0.0,0.0,0.0,0.0,0.0,0.0,0.0,0.0,0.0,0.0,0.0,0.0,0.0,0.0,0.0,0.0,0.0,0.0,0.0,0.0,0.0,0.0,0.0,0.0,0.0,0.0,0.0,0.0,0.0,0.0,0.0,0.0,0.0,0.0,0.0,0.0,0.0,0.0,0.0,0.0,0.0,0.0,0.0,0.0,0.0,0.0,0.0,0.0,0.0,0.0,0.0,0.0,0.0,0.0,0.0,0.0,0.0,0.0,0.0,0.0,0.0,0.0,0.0,0.0,0.0,0.0,0.0,0.0,0.0,0.0,0.0,0.0,0.0,0.0,0.0,0.0,0.0,0.0,0.0,0.0,0.0,0.0,0.0,0.0,0.0,0.0,0.0,0.0,0.0,0.0,0.0,0.0,0.0,0.0,0.0,0.0,0.0,0.0,0.0,0.0,0.0,0.0,0.0,0.0,0.0,0.0,0.0,0.0,0.0,0.0,0.0,0.0,0.0,0.0,0.0,0.0,0.0,0.0,0.0,0.0,0.0,0.0,0.0,0.0,0.0,0.0,0.0,0.0,0.0,0.0,0.0,0.0,0.0,0.0,0.0,0.0,0.0,0.0,0.0,0.0,0.0,0.0,0.0,0.0,0.0,0.0,0.0,0.0,0.0,0.0,0.0,0.0,0.0,0.0,0.0,0.0,0.0,0.0,0.0,0.0,0.0,0.0,0.0,0.0,0.0,0.0,0.0,0.0,0.0,0.0,0.0,0.0,0.0,0.0,0.0,0.0,0.0,0.0,0.0,0.0,0.0,0.0,0.0,0.0,0.0,0.0,0.0,0.0,0.0,0.0,0.0,0.0,0.0,0.0,0.0,0.0,0.0,0.0,0.0,0.0,0.0,0.0,0.0,0.0,0.0,0.0,0.0,0.0,0.0,0.0,0.0,0.0,0.0,0.0,0.0,0.0,0.0,0.0,0.0,0.0,0.0,0.0,0.0,0.0,0.0,0.0,0.0,0.0,0.0,0.0,0.0,0.0,0.0,0.0,0.0,0.0,0.0,0.0,0.0,0.0,0.0,0.0,0.0,0.0,0.0,0.0,0.0,0.0,0.0,0.0,0.0,0.0,0.0,0.0,0.0,0.0,0.0,0.0,0.0,0.0,0.0,0.0,0.0,0.0,0.0,0.0,0.0,0.0,0.0,0.0,0.0,0.0,0.0,0.0,0.0,0.0,0.0,0.0,0.0,0.0,0.0,0.0,0.0,0.0,0.0,0.0,0.0,0.0,0.0,0.0,0.0,0.0,0.0,0.0,0.0,0.0,0.0,0.0,0.0,0.0,0.0,0.0,0.0,0.0,0.0,0.0,0.0,0.0,0.0,0.0,0.0,0.0,0.0,0.0,0.0,0.0,0.0,0.0,0.0,0.0,0.0,0.0,0.0,0.0,0.0,0.0,0.0,0.0,0.0,0.0,0.0,0.0,0.0,0.0,0.0,0.0,0.0,0.0,0.0,0.0,0.0,0.0,0.0,0.0,0.0,0.0,0.0,0.0,0.0,0.0,0.0,0.0,0.0,0.0,0.0,0.0,0.0,0.0,0.0,0.0,0.0,0.0,0.0,0.0,0.0,0.0,0.0,0.0,0.0,0.0,0.0,0.0,0.0,0.0,0.0,0.0,0.0,0.0,0.0,0.0,0.0,0.0,0.0,0.0,0.0,0.0,0.0,0.0,0.0,0.0,0.0,0.0,0.0,0.0,0.0,0.0,0.0,0.0,0.0,0.0,0.0,0.0,0.0,0.0,0.0,0.0,0.0,0.0,0.0,0.0,0.0,0.0,0.0,0.0,0.0,0.0,0.0,0.0,0.0,0.0,0.0,0.0,0.0,0.0,0.0,0.0,0.0,0.0,0.0,0.0,0.0,0.0,0.0,0.0,0.0,0.0,0.0,0.0,0.0,0.0,0.0,0.0,0.0,0.0,0.0,0.0,0.0,0.0,0.0,0.0,0.0,0.0,0.0,0.0,0.0,0.0,0.0,0.0,0.0,0.0,0.0,0.0,0.0,0.0,0.0,0.0,0.0,0.0,0.0,0.0,0.0,0.0,0.0,0.0,0.0,0.0,0.0,0.0,0.0,0.0,0.0,0.0,0.0,0.0,0.0,0.0,0.0,0.0,0.0,0.0,0.0,0.0,0.0,0.0,0.0,0.0,0.0,0.0,0.0,0.0,0.0,0.0,0.0,0.0,0.0,0.0,0.0,0.0,0.0,0.0,0.0,0.0,0.0,0.0,0.0,0.0,0.0,0.0,0.0,0.0,0.0,0.0,0.0,0.0,0.0,0.0,0.0,0.0,0.0,0.0,0.0,0.0,0.0,0.0,0.0,0.0,0.0,0.0,0.0,0.0,0.0,0.0,0.0,0.0,0.0,0.0,0.0,0.0,0.0,0.0,0.0,0.0,0.0,0.0,0.0,0.0,0.0,0.0,0.0,0.0,0.0,0.0,0.0,0.0,0.0,0.0,0.0,0.0,0.0,0.0,0.0,0.0,0.0,0.0,0.0,0.0,0.0,0.0,0.0,0.0,0.0,0.0,0.0,0.0,0.0,0.0,0.0,0.0,0.0,0.0,0.0,0.0,0.0,0.0,0.0,0.0,0.0,0.0,0.0,0.0,0.0,0.0,0.0,0.0,0.0,0.0,0.0,0.0,0.0,0.0,0.0,0.0,0.0,0.0,0.0,0.0,0.0,0.0,0.0,0.0,0.0,0.0,0.0,0.0,0.0,0.0,0.0,0.0,0.0,0.0,0.0,0.0,0.0,0.0,0.0,0.0,0.0,0.0,0.0,0.0,0.0,0.0,0.0,0.0,0.0,0.0,0.0,0.0,0.0,0.0,0.0,0.0,0.0,0.0,0.0,0.0,0.0,0.0,0.0,0.0,0.0,0.0,0.0,0.0,0.0,0.0,0.0,0.0,0.0,0.0,0.0,0.0,0.0,0.0,0.0,0.0,0.0,0.0,0.0,0.0,0.0,0.0,0.0,0.0,0.0,0.0,0.0,0.0,0.0,0.0,0.0,0.0,0.0,0.0,0.0,0.0,0.0,0.0,0.0,0.0,0.0,0.0,0.0,0.0,0.0,0.0,0.0,0.0,0.0,0.0,0.0,0.0,0.0,0.0,0.0,0.0,0.0,0.0,0.0,0.0,0.0,0.0,0.0,0.0,0.0,0.0,0.0,0.0,0.0,0.0,0.0,0.0,0.0,0.0,0.0,0.0,0.0,0.0,0.0,0.0,0.0,0.0,0.0,0.0,0.0,0.0,0.0,0.0,0.0,0.0,0.0,0.0,0.0,0.0,0.0,0.0,0.0,0.0,0.0,0.0,0.0,0.0,0.0,0.0,0.0,0.0,0.0,0.0,0.0,0.0,0.0,0.0,0.0,0.0,0.0,0.0,0.0,0.0,0.0,0.0,0.0,0.0,0.0,0.0,0.0,0.0,0.0,0.0,0.0,0.0,0.0,0.0,0.0,0.0,0.0,0.0,0.0,0.0,0.0,0.0,0.0,0.0,0.0,0.0,0.0,0.0,0.0,0.0,0.0,0.0,0.0,0.0,0.0,0.0,0.0,0.0,0.0,0.0,0.0,0.0,0.0,0.0,0.0,0.0,0.0,0.0,0.0,0.0,0.0,0.0,0.0,0.0,0.0,0.0,0.0,0.0,0.0,0.0,0.0,-0.9684,0.0,0.0,0.0,0.0,0.0,0.0,0.0,0.0,0.0,0.0,0.0,0.0,0.0,0.0,0.0,0.0,0.0,0.0,0.0,0.0,0.0,0.0,0.0,0.0,0.0,0.0,0.0,0.0,0.0,0.0,0.0,0.0,0.0,0.0,0.0,0.0,0.0,0.0,0.0,0.0,0.0,0.0,0.0,0.0,0.0,0.0,0.0,0.0,0.0,0.0,0.0,0.0,0.0,0.0,0.0,0.0,0.0,0.0,0.0,0.0,0.0,0.0,0.0,0.0,0.0,0.0,0.0,0.0,0.0,0.0,0.0,0.0,0.0,0.0,0.0,0.0,0.0,0.0,0.0,0.0,0.0,0.0,0.0,0.0,0.0,0.0,0.0,0.0,0.0,0.0,0.0,0.0,0.0,0.0,0.0,0.0,0.0,0.0,0.0,0.0,0.0,0.0,0.0,0.0,0.0,0.0,0.0,0.0,0.0,0.0,-0.9417,-0.9461,-0.9491,-0.9557,-0.9699,0.0,0.0,0.0,0.0,0.0,0.0,0.0,0.0,0.0,0.0,0.0,0.0,0.0,0.0,0.0,0.0,0.0,0.0,0.0,0.0,0.0,0.0,0.0,0.0,0.0,0.0,0.0,0.0,0.0,0.0,0.0,0.0,0.0,0.0,0.0,0.0,0.0,0.0,0.0,0.0,0.0,0.0,0.0,0.0,0.0,0.0,0.0,0.0,0.0,0.0,0.0,0.0,0.0,0.0,0.0,0.0,0.0,0.0,0.0,0.0,0.0,0.0,0.0,0.0,0.0,0.0,0.0,0.0,0.0,0.0,0.0,0.0,0.0,0.0,0.0,0.0,0.0,0.0,0.0,0.0,0.0,0.0,0.0,0.0,0.0,0.0,0.0,0.0,0.0,0.0,0.0,0.0,0.0,0.0,0.0,0.0,0.0,0.0,0.0,0.0,0.0,0.0,0.0,0.0,0.0,0.0,0.0,0.0,0.0,0.0,0.0,0.0,-0.9766,-0.9842,-0.9976,0.0,0.0,0.0,0.0,0.0,0.0,0.0,0.0,0.0,0.0,0.0,0.0,0.0,0.0,0.0,0.0,0.0,0.0,0.0,0.0,0.0,0.0,0.0,0.0,0.0,0.0,0.0,0.0,0.0,0.0,0.0,0.0,0.0,0.0,0.0,0.0,0.0,0.0,0.0,0.0,0.0,0.0,0.0,0.0,0.0,0.0,0.0,0.0,0.0,0.0,0.0,0.0,0.0,0.0,0.0,0.0,0.0,0.0,0.0,0.0,0.0,0.0,0.0,0.0,0.0,0.0,0.0,0.0,0.0,0.0,0.0,0.0,0.0,0.0,0.0,0.0,0.0,0.0,0.0,0.0,0.0,0.0,0.0,0.0,0.0,0.0,0.0,0.0,0.0,0.0,0.0,0.0,0.0,0.0,0.0,0.0,0.0,0.0,0.0,0.0,0.0,0.0,0.0,0.0,0.0,0.0,0.0,0.0,0.0,0.0,-0.9771,-1.0545,-1.064,0.0,-1.0795,0.0,0.0,0.0,0.0,0.0,0.0,0.0,0.0,0.0,0.0,0.0,0.0,0.0,0.0,0.0,0.0,0.0,0.0,0.0,0.0,0.0,0.0,0.0,0.0,0.0,0.0,0.0,0.0,0.0,0.0,0.0,0.0,0.0,0.0,0.0,0.0,0.0,0.0,0.0,0.0,0.0,0.0,0.0,0.0,0.0,0.0,0.0,0.0,0.0,0.0,0.0,0.0,0.0,0.0,0.0,0.0,0.0,0.0,0.0,0.0,0.0,0.0,0.0,0.0,0.0,0.0,0.0,0.0,0.0,0.0,0.0,0.0,0.0,0.0,0.0,0.0,0.0,0.0,0.0,0.0,0.0,0.0,0.0,0.0,0.0,0.0,0.0,0.0,0.0,0.0,0.0,0.0,0.0,0.0,0.0,0.0,0.0,0.0,0.0,0.0,0.0,0.0,0.0,0.0,0.0,0.0,0.0,0.0,0.0,0.0,0.0,-1.0679,-1.0848,-1.0928,0.0,0.0,0.0,0.0,0.0,0.0,0.0,0.0,0.0,0.0,0.0,0.0,0.0,0.0,0.0,0.0,0.0,0.0,0.0,0.0,0.0,0.0,0.0,0.0,0.0,0.0,0.0,0.0,0.0,0.0,0.0,0.0,0.0,0.0,0.0,0.0,0.0,0.0,0.0,0.0,0.0,0.0,0.0,0.0,0.0,0.0,0.0,0.0,0.0,0.0,0.0,0.0,0.0,0.0,0.0,0.0,0.0,0.0,0.0,0.0,0.0,0.0,0.0,0.0,0.0,0.0,0.0,0.0,0.0,0.0,0.0,0.0,0.0,0.0,0.0,0.0,0.0,0.0,0.0,0.0,0.0,0.0,0.0,0.0,0.0,0.0,0.0,0.0,0.0,0.0,0.0,0.0,0.0,0.0,0.0,0.0,0.0,0.0,0.0,0.0,0.0,0.0,0.0,0.0,0.0,0.0,0.0,0.0,0.0,0.0,-1.0303,0.0,-1.1039,-1.1222,-1.121,-1.0995,0.0,0.0,0.0,0.0,0.0,0.0,0.0,0.0,0.0,0.0,0.0,0.0,0.0,0.0,0.0,0.0,0.0,0.0,0.0,0.0,0.0,0.0,0.0,0.0,0.0,0.0,0.0,0.0,0.0,0.0,0.0,0.0,0.0,0.0,0.0,0.0,0.0,0.0,0.0,0.0,0.0,0.0,0.0,0.0,0.0,0.0,0.0,0.0,0.0,0.0,0.0,0.0,0.0,0.0,0.0,0.0,0.0,0.0,0.0,0.0,0.0,0.0,0.0,0.0,0.0,0.0,0.0,0.0,0.0,0.0,0.0,0.0,0.0,0.0,0.0,0.0,0.0,0.0,0.0,0.0,0.0,0.0,0.0,0.0,0.0,0.0,0.0,0.0,0.0,0.0,0.0,0.0,0.0,0.0,0.0,0.0,0.0,0.0,0.0,0.0,0.0,0.0,0.0,0.0,0.0,0.0,0.0,0.0,0.0,-1.0923,-1.1089,-1.192,-1.2003,-1.1713,0.0,0.0,0.0,0.0,0.0,0.0,0.0,0.0,0.0,0.0,0.0,0.0,0.0,0.0,0.0,0.0,0.0,0.0,0.0,0.0,0.0,0.0,0.0,0.0,0.0,0.0,0.0,0.0,0.0,0.0,0.0,0.0,0.0,0.0,0.0,0.0,0.0,0.0,0.0,0.0,0.0,0.0,0.0,0.0,0.0,0.0,0.0,0.0,0.0,0.0,0.0,0.0,0.0,0.0,0.0,0.0,0.0,0.0,0.0,0.0,0.0,0.0,0.0,0.0,0.0,0.0,0.0,0.0,0.0,0.0,0.0,0.0,0.0,0.0,0.0,0.0,0.0,0.0,0.0,0.0,0.0,0.0,0.0,0.0,0.0,0.0,0.0,0.0,0.0,0.0,0.0,0.0,0.0,0.0,0.0,0.0,0.0,0.0,0.0,0.0,0.0,0.0,0.0,0.0,0.0,0.0,0.0,0.0,0.0,-1.0084,-1.049,-1.1377,0.0,-1.1856,-1.1221,0.0,0.0,0.0,0.0,0.0,0.0,0.0,0.0,0.0,0.0,0.0,0.0,0.0,0.0,0.0,0.0,0.0,0.0,0.0,0.0,0.0,0.0,0.0,0.0,0.0,0.0,0.0,0.0,0.0,0.0,0.0,0.0,0.0,0.0,0.0,0.0,0.0,0.0,0.0,0.0,0.0,0.0,0.0,0.0,0.0,0.0,0.0,0.0,0.0,0.0,0.0,0.0,0.0,0.0,0.0,0.0,0.0,0.0,0.0,0.0,0.0,0.0,0.0,0.0,0.0,0.0,0.0,0.0,0.0,0.0,0.0,0.0,0.0,0.0,0.0,0.0,0.0,0.0,0.0,0.0,0.0,0.0,0.0,0.0,0.0,0.0,0.0,0.0,0.0,0.0,0.0,0.0,0.0,0.0,0.0,0.0,0.0,0.0,0.0,0.0,0.0,0.0,0.0,0.0,0.0,0.0,0.0,0.0,0.0,-1.0131,0.0,-1.19,0.0,-1.1847,-1.1088,0.0,0.0,0.0,0.0,0.0,0.0,0.0,0.0,0.0,0.0,0.0,0.0,0.0,0.0,0.0,0.0,0.0,0.0,0.0,0.0,0.0,0.0,0.0,0.0,0.0,0.0,0.0,0.0,0.0,0.0,0.0,0.0,0.0,0.0,0.0,0.0,0.0,0.0,0.0,0.0,0.0,0.0,0.0,0.0,0.0,0.0,0.0,0.0,0.0,0.0,0.0,0.0,0.0,0.0,0.0,0.0,0.0,0.0,0.0,0.0,0.0,0.0,0.0,0.0,0.0,0.0,0.0,0.0,0.0,0.0,0.0,0.0,0.0,0.0,0.0,0.0,0.0,0.0,0.0,0.0,0.0,0.0,0.0,0.0,0.0,0.0,0.0,0.0,0.0,0.0,0.0,0.0,0.0,0.0,0.0,0.0,0.0,0.0,0.0,0.0,0.0,0.0,0.0,0.0,0.0,0.0,0.0,0.0,-1.0019,-1.1773,-1.2483,-1.2566,-1.2071,-1.2052,-1.1378,0.0,0.0,0.0,0.0,0.0,0.0,0.0,0.0,0.0,0.0,0.0,0.0,0.0,0.0,0.0,0.0,0.0,0.0,0.0,0.0,0.0,0.0,0.0,0.0,0.0,0.0,0.0,0.0,0.0,0.0,0.0,0.0,0.0,0.0,0.0,0.0,0.0,0.0,0.0,0.0,0.0,0.0,0.0,0.0,0.0,0.0,0.0,0.0,0.0,0.0,0.0,0.0,0.0,0.0,0.0,0.0,0.0,0.0,0.0,0.0,0.0,0.0,0.0,0.0,0.0,0.0,0.0,0.0,0.0,0.0,0.0,0.0,0.0,0.0,0.0,0.0,0.0,0.0,0.0,0.0,0.0,0.0,0.0,0.0,0.0,0.0,0.0,0.0,0.0,0.0,0.0,0.0,0.0,0.0,0.0,0.0,0.0,0.0,0.0,0.0,0.0,0.0,0.0,0.0,0.0,0.0,0.0,0.0,0.0,-1.1131,-1.1838,-1.2699,-1.3622,-1.2086,-1.1288,0.0,0.0,0.0,0.0,0.0,0.0,0.0,0.0,0.0,0.0,0.0,0.0,0.0,0.0,0.0,0.0,0.0,0.0,0.0,0.0,0.0,0.0,0.0,0.0,0.0,0.0,0.0,0.0,0.0,0.0,0.0,0.0,0.0,0.0,0.0,0.0,0.0,0.0,0.0,0.0,0.0,0.0,0.0,0.0,0.0,0.0,0.0,0.0,0.0,0.0,0.0,0.0,0.0,0.0,0.0,0.0,0.0,0.0,0.0,0.0,0.0,0.0,0.0,0.0,0.0,0.0,0.0,0.0,0.0,0.0,0.0,0.0,0.0,0.0,0.0,0.0,0.0,0.0,0.0,0.0,0.0,0.0,0.0,0.0,0.0,0.0,0.0,0.0,0.0,0.0,0.0,0.0,0.0,0.0,0.0,0.0,0.0,0.0,0.0,0.0,0.0,0.0,0.0,0.0,0.0,0.0,0.0,0.0,0.0,-1.218,-1.2873,-1.3641,-1.4453,-1.2654,-1.1699,-1.1654,0.0,0.0,0.0,0.0,0.0,0.0,0.0,0.0,0.0,0.0,0.0,0.0,0.0,0.0,0.0,0.0,0.0,0.0,0.0,0.0,0.0,0.0,0.0,0.0,0.0,0.0,0.0,0.0,0.0,0.0,0.0,0.0,0.0,0.0,0.0,0.0,0.0,0.0,0.0,0.0,0.0,0.0,0.0,0.0,0.0,0.0,0.0,0.0,0.0,0.0,0.0,0.0,0.0,0.0,0.0,0.0,0.0,0.0,0.0,0.0,0.0,0.0,0.0,0.0,0.0,0.0,0.0,0.0,0.0,0.0,0.0,0.0,0.0,0.0,0.0,0.0,0.0,0.0,0.0,0.0,0.0,0.0,0.0,0.0,0.0,0.0,0.0,0.0,0.0,0.0,0.0,0.0,0.0,0.0,0.0,0.0,0.0,0.0,0.0,0.0,0.0,0.0,0.0,0.0,0.0,0.0,0.0,0.0,-1.4393,-1.5195,-1.5273,-1.4581,-1.3663,-1.2503,0.0,0.0,0.0,0.0,0.0,0.0,0.0,0.0,0.0,0.0,0.0,0.0,0.0,0.0,0.0,0.0,0.0,0.0,0.0,0.0,0.0,0.0,0.0,0.0,0.0,0.0,0.0,0.0,0.0,0.0,0.0,0.0,0.0,0.0,0.0,0.0,0.0,0.0,0.0,0.0,0.0,0.0,0.0,0.0,0.0,0.0,0.0,0.0,0.0,0.0,0.0,0.0,0.0,0.0,0.0,0.0,0.0,0.0,0.0,0.0,0.0,0.0,0.0,0.0,0.0,0.0,0.0,0.0,0.0,0.0,0.0,0.0,0.0,0.0,0.0,0.0,0.0,0.0,0.0,0.0,0.0,0.0,0.0,0.0,0.0,0.0,0.0,0.0,0.0,0.0,0.0,0.0,0.0,0.0,0.0,0.0,0.0,0.0,0.0,0.0,0.0,0.0,0.0,0.0,0.0,0.0,0.0,0.0,0.0,-1.4331,-1.6112,-1.6764,-1.6146,-1.4192,-1.2988,0.0,0.0,0.0,0.0,0.0,0.0,0.0,0.0,0.0,0.0,0.0,0.0,0.0,0.0,0.0,0.0,0.0,0.0,0.0,0.0,0.0,0.0,0.0,0.0,0.0,0.0,0.0,0.0,0.0,0.0,0.0,0.0,0.0,0.0,0.0,0.0,0.0,0.0,0.0,0.0,0.0,0.0,0.0,0.0,0.0,0.0,0.0,0.0,0.0,0.0,0.0,0.0,0.0,0.0,0.0,0.0,0.0,0.0,0.0,0.0,0.0,0.0,0.0,0.0,0.0,0.0,0.0,0.0,0.0,0.0,0.0,0.0,0.0,0.0,0.0,0.0,0.0,0.0,0.0,0.0,0.0,0.0,0.0,0.0,0.0,0.0,0.0,0.0,0.0,0.0,0.0,0.0,0.0,0.0,0.0,0.0,0.0,0.0,0.0,0.0,0.0,0.0,0.0,0.0,0.0,0.0,0.0,0.0,-1.3846,-1.5206,-1.7099,-1.7821,-1.7282,-1.5535,-1.4023,0.0,0.0,0.0,0.0,0.0,0.0,0.0,0.0,0.0,0.0,0.0,0.0,0.0,0.0,0.0,0.0,0.0,0.0,0.0,0.0,0.0,0.0,0.0,0.0,0.0,0.0,0.0,0.0,0.0,0.0,0.0,0.0,0.0,0.0,0.0,0.0,0.0,0.0,0.0,0.0,0.0,0.0,0.0,0.0,0.0,0.0,0.0,0.0,0.0,0.0,0.0,0.0,0.0,0.0,0.0,0.0,0.0,0.0,0.0,0.0,0.0,0.0,0.0,0.0,0.0,0.0,0.0,0.0,0.0,0.0,0.0,0.0,0.0,0.0,0.0,0.0,0.0,0.0,0.0,0.0,0.0,0.0,0.0,0.0,0.0,0.0,0.0,0.0,0.0,0.0,0.0,0.0,0.0,0.0,0.0,0.0,0.0,0.0,0.0,0.0,0.0,0.0,0.0,0.0,0.0,0.0,0.0,0.0,-1.4644,-1.6423,-1.7968,-1.8494,-1.7878,-1.703,-1.5184,0.0,0.0,0.0,0.0,0.0,0.0,0.0,0.0,0.0,0.0,0.0,0.0,0.0,0.0,0.0,0.0,0.0,0.0,0.0,0.0,0.0,0.0,0.0,0.0,0.0,0.0,0.0,0.0,0.0,0.0,0.0,0.0,0.0,0.0,0.0,0.0,0.0,0.0,0.0,0.0,0.0,0.0,0.0,0.0,0.0,0.0,0.0,0.0,0.0,0.0,0.0,0.0,0.0,0.0,0.0,0.0,0.0,0.0,0.0,0.0,0.0,0.0,0.0,0.0,0.0,0.0,0.0,0.0,0.0,0.0,0.0,0.0,0.0,0.0,0.0,0.0,0.0,0.0,0.0,0.0,0.0,0.0,0.0,0.0,0.0,0.0,0.0,0.0,0.0,0.0,0.0,0.0,0.0,0.0,0.0,0.0,0.0,0.0,0.0,0.0,0.0,0.0,0.0,0.0,0.0,0.0,0.0,0.0,-1.4994,-1.6167,-1.7751,-1.8268,-1.768,-1.642,-1.4888,0.0,0.0,0.0,0.0,0.0,0.0,0.0,0.0,0.0,0.0,0.0,0.0,0.0,0.0,0.0,0.0,0.0,0.0,0.0,0.0,0.0,0.0,0.0,0.0,0.0,0.0,0.0,0.0,0.0,0.0,0.0,0.0,0.0,0.0,0.0,0.0,0.0,0.0,0.0,0.0,0.0,0.0,0.0,0.0,0.0,0.0,0.0,0.0,-1.1144,0.0,0.0,0.0,0.0,0.0,0.0,0.0,0.0,0.0,0.0,0.0,0.0,0.0,0.0,0.0,0.0,0.0,0.0,0.0,0.0,0.0,0.0,0.0,0.0,0.0,0.0,0.0,0.0,0.0,0.0,0.0,0.0,0.0,0.0,0.0,0.0,0.0,0.0,0.0,0.0,0.0,0.0,0.0,0.0,0.0,0.0,0.0,0.0,0.0,0.0,0.0,0.0,0.0,0.0,0.0,0.0,0.0,0.0,0.0,-1.5199,-1.6487,-1.7691,-1.8208,-1.7975,-1.6669,-1.5074,0.0,0.0,0.0,0.0,0.0,0.0,0.0,0.0,0.0,0.0,0.0,0.0,0.0,0.0,0.0,0.0,0.0,0.0,0.0,0.0,0.0,0.0,0.0,0.0,0.0,0.0,0.0,0.0,0.0,0.0,0.0,0.0,0.0,0.0,0.0,0.0,0.0,0.0,0.0,0.0,0.0,0.0,0.0,0.0,0.0,0.0,0.0,0.0,0.0,0.0,0.0,0.0,0.0,0.0,0.0,0.0,0.0,0.0,0.0,0.0,0.0,0.0,0.0,0.0,0.0,0.0,0.0,0.0,0.0,0.0,0.0,0.0,0.0,0.0,0.0,0.0,0.0,0.0,0.0,0.0,0.0,0.0,0.0,0.0,0.0,0.0,0.0,0.0,0.0,0.0,0.0,0.0,0.0,0.0,0.0,0.0,0.0,0.0,0.0,0.0,0.0,0.0,0.0,0.0,0.0,0.0,0.0,-1.3878,-1.536,-1.7057,-1.781,-1.8259,-1.84,-1.7125,-1.5451,-1.3448,0.0,0.0,0.0,0.0,0.0,0.0,0.0,0.0,0.0,0.0,0.0,0.0,0.0,0.0,0.0,0.0,0.0,0.0,0.0,0.0,0.0,0.0,0.0,0.0,0.0,0.0,0.0,0.0,0.0,0.0,0.0,0.0,0.0,0.0,0.0,0.0,0.0,0.0,-1.0382,-1.1079,0.0,0.0,0.0,0.0,0.0,0.0,0.0,0.0,-1.1665,0.0,0.0,0.0,0.0,0.0,0.0,0.0,0.0,0.0,0.0,0.0,0.0,0.0,0.0,0.0,0.0,0.0,0.0,0.0,0.0,0.0,0.0,0.0,0.0,0.0,0.0,0.0,0.0,0.0,0.0,0.0,0.0,0.0,0.0,0.0,0.0,0.0,0.0,0.0,0.0,0.0,0.0,0.0,0.0,0.0,0.0,0.0,0.0,0.0,0.0,0.0,0.0,0.0,0.0,0.0,0.0,-1.4089,-1.4385,-1.552,-1.7612,-1.8166,-1.8358,-1.8139,-1.7082,-1.568,-1.4025,0.0,0.0,0.0,0.0,0.0,0.0,0.0,0.0,0.0,0.0,0.0,0.0,0.0,0.0,0.0,0.0,0.0,0.0,0.0,0.0,0.0,0.0,0.0,0.0,0.0,0.0,0.0,0.0,0.0,0.0,0.0,0.0,0.0,0.0,0.0,0.0,0.0,0.0,0.0,-1.1941,-1.2438,0.0,0.0,0.0,0.0,0.0,0.0,0.0,0.0,-1.1883,0.0,0.0,0.0,0.0,0.0,0.0,0.0,0.0,0.0,0.0,0.0,0.0,0.0,0.0,0.0,0.0,0.0,0.0,0.0,0.0,0.0,0.0,0.0,0.0,0.0,0.0,0.0,0.0,0.0,0.0,0.0,0.0,0.0,0.0,0.0,0.0,0.0,0.0,0.0,0.0,0.0,0.0,0.0,0.0,0.0,0.0,0.0,0.0,0.0,0.0,0.0,0.0,0.0,0.0,0.0,-1.3836,-1.4682,-1.594,-1.7726,-1.8014,-1.8078,-1.793,-1.6438,-1.507,0.0,0.0,0.0,0.0,0.0,0.0,0.0,0.0,0.0,0.0,0.0,0.0,0.0,0.0,0.0,0.0,0.0,0.0,0.0,0.0,0.0,0.0,0.0,0.0,0.0,0.0,0.0,0.0,0.0,0.0,0.0,0.0,0.0,0.0,0.0,0.0,0.0,0.0,0.0,0.0,-1.2519,-1.318,-1.2757,0.0,0.0,0.0,0.0,0.0,0.0,-1.3472,-1.2777,0.0,0.0,0.0,0.0,0.0,0.0,0.0,0.0,0.0,0.0,0.0,0.0,0.0,0.0,0.0,0.0,0.0,0.0,0.0,0.0,0.0,0.0,0.0,0.0,0.0,0.0,0.0,0.0,0.0,0.0,0.0,0.0,0.0,0.0,0.0,0.0,0.0,0.0,0.0,0.0,0.0,0.0,0.0,0.0,0.0,0.0,0.0,0.0,0.0,0.0,0.0,0.0,0.0,0.0,0.0,-1.3371,-1.4699,-1.6143,-1.771,-1.7856,-1.7771,-1.7557,-1.5921,-1.4559,0.0,0.0,0.0,0.0,0.0,0.0,0.0,0.0,0.0,0.0,0.0,0.0,0.0,0.0,0.0,0.0,0.0,0.0,0.0,0.0,0.0,0.0,0.0,0.0,0.0,0.0,0.0,0.0,0.0,0.0,0.0,0.0,0.0,0.0,0.0,0.0,0.0,0.0,0.0,0.0,0.0,-1.4189,-1.3551,-1.4395,0.0,0.0,0.0,0.0,-1.4764,-1.454,0.0,0.0,0.0,0.0,0.0,0.0,0.0,0.0,0.0,0.0,0.0,0.0,0.0,0.0,0.0,0.0,0.0,0.0,0.0,0.0,0.0,0.0,0.0,0.0,0.0,0.0,0.0,0.0,0.0,0.0,0.0,0.0,0.0,0.0,0.0,0.0,0.0,0.0,0.0,0.0,0.0,0.0,0.0,0.0,0.0,0.0,0.0,0.0,0.0,0.0,0.0,0.0,0.0,0.0,0.0,0.0,-1.3328,-1.4191,-1.5643,-1.7676,-1.7975,-1.7671,-1.6851,-1.6201,-1.4869,0.0,0.0,0.0,0.0,0.0,0.0,0.0,0.0,0.0,0.0,0.0,0.0,0.0,0.0,0.0,0.0,0.0,0.0,0.0,0.0,0.0,0.0,0.0,0.0,0.0,0.0,0.0,0.0,0.0,0.0,0.0,0.0,0.0,0.0,0.0,0.0,0.0,0.0,0.0,0.0,0.0,-1.6156,-1.6,-1.5475,-1.5555,0.0,0.0,-1.5693,-1.78,-1.69,0.0,0.0,0.0,0.0,0.0,0.0,0.0,0.0,0.0,0.0,0.0,0.0,0.0,0.0,0.0,0.0,0.0,0.0,0.0,0.0,0.0,0.0,0.0,0.0,0.0,0.0,0.0,0.0,0.0,0.0,0.0,0.0,0.0,0.0,0.0,0.0,0.0,0.0,0.0,0.0,0.0,0.0,0.0,0.0,0.0,0.0,0.0,0.0,0.0,0.0,0.0,0.0,0.0,0.0,0.0,-1.1371,-1.3244,-1.4493,-1.5991,-1.7715,-1.7894,-1.7531,-1.6716,-1.5727,-1.4381,0.0,0.0,0.0,0.0,0.0,0.0,0.0,0.0,0.0,0.0,0.0,0.0,0.0,0.0,0.0,0.0,0.0,0.0,0.0,0.0,0.0,0.0,0.0,0.0,0.0,0.0,0.0,0.0,0.0,0.0,0.0,0.0,0.0,0.0,0.0,0.0,0.0,0.0,0.0,0.0,0.0,0.0,-1.701,-1.7175,0.0,0.0,0.0,-1.7843,-1.7942,0.0,0.0,0.0,0.0,0.0,0.0,0.0,0.0,0.0,0.0,0.0,0.0,0.0,0.0,0.0,0.0,0.0,0.0,0.0,0.0,0.0,0.0,0.0,0.0,0.0,0.0,0.0,0.0,0.0,0.0,0.0,0.0,0.0,0.0,0.0,0.0,0.0,0.0,0.0,0.0,0.0,0.0,0.0,0.0,0.0,0.0,0.0,0.0,0.0,0.0,0.0,0.0,0.0,0.0,0.0,0.0,0.0,-1.32,-1.4787,-1.6323,-1.7732,-1.7789,-1.7371,-1.6445,-1.5409,0.0,0.0,0.0,0.0,0.0,0.0,0.0,0.0,0.0,0.0,0.0,0.0,0.0,0.0,0.0,0.0,0.0,0.0,0.0,0.0,0.0,0.0,0.0,0.0,0.0,0.0,0.0,-0.5446,0.0,0.0,0.0,0.0,0.0,0.0,0.0,0.0,0.0,0.0,0.0,0.0,0.0,0.0,-1.735,-1.8104,-1.8948,-1.9302,0.0,0.0,-1.9732,-1.8437,-1.9176,-1.8833,0.0,0.0,0.0,0.0,0.0,0.0,0.0,0.0,0.0,0.0,0.0,0.0,0.0,0.0,0.0,0.0,0.0,0.0,0.0,0.0,0.0,0.0,0.0,0.0,0.0,0.0,0.0,0.0,0.0,0.0,0.0,0.0,0.0,0.0,0.0,0.0,0.0,0.0,0.0,0.0,0.0,0.0,0.0,0.0,0.0,0.0,0.0,0.0,0.0,0.0,0.0,0.0,0.0,0.0,0.0,-1.32,-1.4787,-1.6306,-1.7721,-1.7789,-1.7107,-1.5731,-1.5644,-1.4315,0.0,0.0,0.0,0.0,0.0,0.0,0.0,0.0,0.0,0.0,0.0,0.0,0.0,0.0,0.0,0.0,0.0,0.0,0.0,0.0,0.0,0.0,0.0,0.0,0.0,0.0,0.0,0.0,0.0,0.0,0.0,0.0,0.0,0.0,0.0,0.0,0.0,0.0,0.0,0.0,0.0,-1.8975,-1.9807,-2.057,-2.1235,0.0,0.0,-2.0815,-2.053,-2.0552,-1.9518,-1.6202,0.0,0.0,0.0,0.0,0.0,0.0,0.0,0.0,0.0,0.0,0.0,0.0,0.0,0.0,0.0,0.0,0.0,0.0,0.0,0.0,0.0,0.0,0.0,0.0,0.0,0.0,0.0,0.0,0.0,0.0,0.0,0.0,0.0,0.0,0.0,0.0,0.0,0.0,0.0,0.0,0.0,0.0,0.0,0.0,0.0,0.0,0.0,0.0,0.0,0.0,0.0,0.0,0.0,-1.1401,-1.2822,-1.4656,-1.616,-1.7254,-1.7624,-1.7008,-1.5391,-1.5566,-1.4315,0.0,0.0,0.0,0.0,0.0,0.0,0.0,0.0,0.0,0.0,0.0,0.0,0.0,0.0,0.0,0.0,0.0,0.0,0.0,0.0,0.0,0.0,0.0,0.0,0.0,0.0,0.0,0.0,-0.7798,-0.8312,-0.9509,0.0,0.0,0.0,0.0,0.0,0.0,0.0,0.0,0.0,0.0,-1.9815,-2.0566,-2.1306,0.0,0.0,-2.2166,-2.2025,-2.1448,-2.1312,-2.0501,-1.8269,-1.7406,0.0,0.0,0.0,0.0,0.0,0.0,0.0,0.0,0.0,0.0,0.0,0.0,0.0,0.0,0.0,0.0,0.0,0.0,0.0,0.0,0.0,0.0,0.0,0.0,0.0,0.0,0.0,0.0,0.0,0.0,0.0,0.0,0.0,0.0,0.0,0.0,0.0,0.0,0.0,0.0,0.0,0.0,0.0,0.0,0.0,0.0,0.0,0.0,0.0,0.0,0.0,0.0,-1.1276,-1.2594,-1.442,-1.5901,-1.6932,-1.7308,-1.6747,-1.5252,-1.5399,-1.4276,0.0,0.0,0.0,0.0,0.0,0.0,0.0,0.0,0.0,0.0,0.0,0.0,0.0,0.0,0.0,0.0,0.0,0.0,0.0,0.0,0.0,0.0,0.0,0.0,0.0,0.0,0.0,0.0,-0.8996,-0.9431,-1.0038,0.0,0.0,0.0,0.0,0.0,0.0,0.0,0.0,0.0,0.0,-2.0668,-2.1579,-2.2389,-2.2839,-2.2658,-2.3021,-2.2959,-2.1868,-2.1862,-2.1361,-1.9567,0.0,0.0,0.0,0.0,0.0,0.0,0.0,0.0,0.0,0.0,0.0,0.0,0.0,0.0,0.0,0.0,0.0,0.0,0.0,0.0,0.0,0.0,0.0,0.0,0.0,0.0,0.0,0.0,0.0,0.0,-0.7793,0.0,0.0,0.0,0.0,0.0,0.0,0.0,0.0,0.0,0.0,0.0,0.0,0.0,0.0,0.0,0.0,0.0,0.0,0.0,0.0,0.0,0.0,-1.1154,-1.26,-1.4085,-1.5501,-1.6824,-1.6853,-1.6277,-1.5151,-1.5107,-1.4224,-1.2301,0.0,0.0,0.0,0.0,0.0,0.0,0.0,0.0,0.0,0.0,0.0,0.0,0.0,0.0,0.0,0.0,0.0,0.0,0.0,0.0,0.0,0.0,0.0,0.0,0.0,0.0,-0.8654,-0.9514,-1.0074,0.0,0.0,0.0,0.0,0.0,0.0,0.0,0.0,0.0,0.0,-2.0051,-2.1643,-2.3102,-2.3966,-2.4271,-2.4042,-2.4051,-2.3462,-2.1822,-2.2215,-2.1961,0.0,0.0,0.0,0.0,0.0,0.0,0.0,0.0,0.0,0.0,0.0,0.0,0.0,0.0,0.0,0.0,0.0,0.0,0.0,0.0,0.0,0.0,0.0,0.0,0.0,0.0,0.0,-0.893,-0.8857,0.0,0.0,0.0,0.0,0.0,0.0,0.0,0.0,0.0,0.0,0.0,-1.2839,-1.2906,0.0,0.0,0.0,0.0,0.0,0.0,0.0,0.0,0.0,0.0,0.0,0.0,-1.1634,-1.294,-1.4551,-1.5699,-1.628,-1.6617,-1.6106,-1.4688,-1.4935,-1.3999,-1.1654,0.0,0.0,0.0,0.0,0.0,0.0,0.0,0.0,0.0,0.0,0.0,0.0,0.0,0.0,0.0,0.0,0.0,0.0,0.0,0.0,0.0,0.0,0.0,0.0,0.0,-0.9157,0.0,0.0,0.0,0.0,0.0,0.0,0.0,0.0,0.0,0.0,0.0,-1.8118,-2.0034,-2.1603,-2.2719,-2.3139,-2.3786,-2.4144,0.0,0.0,0.0,0.0,0.0,0.0,0.0,0.0,0.0,0.0,0.0,0.0,0.0,0.0,-1.9256,-1.6277,-1.5303,-1.4992,-1.5076,0.0,0.0,0.0,0.0,0.0,0.0,0.0,0.0,0.0,0.0,0.0,0.0,0.0,0.0,-1.069,0.0,-1.0592,0.0,0.0,0.0,0.0,0.0,0.0,0.0,0.0,-1.3253,-1.424,-1.468,-1.4806,-1.4753,0.0,-1.4141,-1.2884,0.0,0.0,0.0,0.0,0.0,0.0,0.0,0.0,-1.2051,-1.3084,-1.4605,-1.5606,-1.5967,-1.6272,-1.5903,-1.4756,-1.474,-1.375,-1.1654,-1.0615,-0.9746,0.0,0.0,0.0,0.0,0.0,0.0,0.0,0.0,0.0,0.0,0.0,0.0,0.0,0.0,0.0,0.0,0.0,0.0,0.0,0.0,0.0,0.0,0.0,-0.983,0.0,0.0,0.0,0.0,0.0,0.0,0.0,0.0,0.0,-1.5673,-1.7568,-1.9626,-2.162,-2.2648,-2.3282,-2.3428,0.0,0.0,0.0,0.0,0.0,0.0,0.0,-2.2028,-2.2259,-2.1301,-2.0528,-2.0727,-2.128,-2.1436,-2.0637,0.0,0.0,-1.8557,-1.7577,-1.7191,-1.7219,-1.711,-1.7051,-1.7231,-1.7306,-1.7391,0.0,0.0,0.0,0.0,0.0,0.0,0.0,0.0,-1.1789,-1.2148,0.0,-1.2365,0.0,0.0,0.0,0.0,0.0,-1.2458,0.0,0.0,-1.5985,-1.6985,-1.6985,-1.7606,-1.7606,-1.7,-1.7191,-1.619,-1.3993,-1.2119,0.0,0.0,0.0,0.0,0.0,0.0,-1.2384,-1.3095,-1.4338,-1.5267,-1.587,-1.5842,-1.5637,-1.5257,-1.4497,-1.3518,-1.2363,-1.2126,-1.1141,-0.9167,-0.8749,0.0,0.0,0.0,0.0,0.0,0.0,0.0,0.0,0.0,0.0,0.0,0.0,0.0,0.0,0.0,0.0,0.0,0.0,0.0,0.0,-0.9217,0.0,0.0,0.0,0.0,0.0,0.0,0.0,0.0,0.0,0.0,-1.7554,-1.8692,-2.0466,-2.2983,0.0,0.0,0.0,0.0,-2.4016,-2.3845,-2.3795,-2.3547,-2.2872,-2.3123,-2.3145,-2.2418,0.0,0.0,-2.1396,-2.182,-2.2057,-2.1376,-2.1806,-2.231,-2.2275,-2.0936,-2.0079,-2.0299,-1.9591,-1.9064,-1.9159,-1.9125,-1.9086,-1.3121,0.0,0.0,0.0,0.0,-1.2964,-1.3396,-1.4338,-1.3624,-1.3466,-1.3742,-1.3459,0.0,0.0,0.0,0.0,0.0,0.0,-1.4237,-1.5301,-1.6426,-1.7439,-1.8315,-1.7997,-1.8012,-1.83,-1.7846,-1.7256,-1.6578,-1.556,-1.3707,-1.1065,0.0,0.0,0.0,0.0,-1.3651,-1.4373,-1.5135,-1.5661,-1.5885,-1.5827,-1.5409,-1.4605,-1.4137,-1.3317,-1.213,-1.2088,-1.1546,-1.0328,-0.9297,0.0,0.0,0.0,0.0,0.0,0.0,0.0,0.0,0.0,0.0,0.0,0.0,0.0,0.0,0.0,0.0,0.0,0.0,0.0,-0.9022,-0.9502,-1.0208,0.0,0.0,0.0,0.0,0.0,0.0,0.0,0.0,0.0,-2.0277,-2.1411,-2.253,0.0,0.0,-2.3886,-2.4067,-2.3968,-2.3858,-2.3806,-2.3795,0.0,0.0,-2.2768,-2.2405,-2.2569,-2.2501,-2.2309,-2.2023,-2.2175,-2.2229,-2.2006,-2.1958,-2.202,-2.2234,-2.1787,-2.1392,-2.1618,-2.113,-2.0728,-2.094,-2.0661,-2.0305,-1.6475,-1.5184,-1.4728,-1.4982,-1.5654,-1.5151,-1.561,-1.6663,-1.5611,-1.5599,-1.6265,-1.5651,-1.4987,-1.4309,-1.3782,0.0,0.0,0.0,-1.5708,-1.6967,-1.7405,-1.8189,-1.9135,-1.8757,-1.8788,-1.9183,-1.8483,-1.8135,-1.8072,-1.7461,-1.5829,-1.332,0.0,0.0,-1.2796,-1.3732,-1.4444,-1.4907,-1.5511,-1.587,-1.5927,-1.5927,-1.5413,-1.4377,-1.416,-1.3525,-1.2361,-1.2312,-1.1958,-1.1212,-1.0085,-0.9193,0.0,0.0,0.0,0.0,0.0,0.0,0.0,0.0,0.0,0.0,0.0,-0.6338,0.0,0.0,0.0,0.0,-0.7962,-0.9335,-1.0408,-1.115,0.0,0.0,0.0,0.0,0.0,0.0,0.0,-1.8172,-1.8928,-2.0093,-2.1917,-2.2868,-2.3584,-2.4145,-2.4085,-2.3986,-2.3986,0.0,-2.3795,-2.3795,-2.3732,-2.3649,-2.3523,-2.2776,-2.2296,-2.2504,-2.2409,-2.2313,-2.2313,-2.2313,-2.2313,-2.2282,-2.2137,-2.2063,-2.2268,-2.2034,-2.1857,-2.2049,-2.1886,-2.1706,-2.1646,-2.1277,-2.0991,-1.9937,-1.993,-1.7787,-1.7345,-1.8031,-1.7733,-1.8252,-1.9138,-1.767,-1.8133,-1.9832,-1.8379,-1.7588,-1.7301,-1.6089,0.0,-1.7479,-1.7061,-1.7533,-1.8777,-1.8777,-1.9091,-1.9693,-1.9708,-1.9723,-1.9678,-1.9146,-1.8843,-1.8747,-1.8215,-1.7584,-1.6861,-1.5752,-1.4846,-1.4201,-1.4801,-1.5131,-1.5057,-1.5674,-1.5987,-1.5982,-1.6081,-1.556,-1.4401,-1.4456,-1.395,-1.2828,-1.2674,-1.2378,-1.1864,-1.0927,-1.0024,-0.923,0.0,0.0,0.0,0.0,0.0,0.0,0.0,0.0,0.0,0.0,0.0,0.0,0.0,0.0,0.0,-1.083,0.0,-1.2167,-1.3582,0.0,0.0,0.0,-1.6191,-1.7009,-1.8467,-1.9665,-2.0391,0.0,0.0,-2.2771,-2.3379,-2.3858,-2.4064,-2.3935,-2.3795,-2.3795,-2.3806,-2.3795,-2.3764,-2.3631,-2.3474,-2.3389,-2.2955,-2.2541,-2.2352,-2.2313,-2.2313,-2.2313,-2.2313,-2.2313,-2.2313,-2.2282,-2.2251,-2.2296,-2.2034,-2.1796,-2.1857,-2.202,-2.1991,-2.1447,-2.1292,-2.1245,-2.045,-2.093,-2.0458,-2.0011,-1.9658,-1.9519,-1.9636,-1.9911,-1.9225,-1.923,-1.9648,-1.9035,-1.8532,-1.8112,-1.7755,-1.7869,-1.8373,-1.8272,-1.8672,-1.9453,-1.945,-1.9558,-1.9708,-1.9723,-1.9723,-1.9693,-1.9576,-1.9468,-1.9468,-1.9321,-1.8899,-1.8237,-1.8022,-1.73,-1.6114,-1.6804,-1.694,-1.6442,-1.6652,-1.6499,-1.6026,-1.6109,-1.5549,-1.4209,-1.4374,-1.3895,-1.2646,-1.2591,-1.2565,-1.2463,-1.125,-1.0423,-1.0085,-0.8411,0.0,0.0,0.0,0.0,0.0,0.0,0.0,0.0,0.0,-0.8891,-0.7568,0.0,-0.894,0.0,-1.1076,-1.3614,-1.3757,-1.4696,0.0,0.0,-1.7842,-1.8881,-2.02,-2.1234,-2.1914,-2.2111,-2.2916,-2.3477,-2.3542,-2.3687,-2.3834,-2.3858,-2.3845,-2.3795,-2.3795,-2.3795,-2.3742,-2.3609,-2.3526,-2.3354,-2.2947,-2.2619,-2.2394,-2.231,-2.2313,-2.2313,-2.2313,-2.2313,-2.2313,-2.2282,-2.2094,-2.2034,-2.2254,-2.2034,-2.193,-2.2077,-2.1825,-2.1493,-2.1339,-2.1308,-2.1213,-2.1472,-2.1843,-2.1869,-2.1626,-2.1199,-2.1008,-2.0968,-2.0964,-2.0457,-2.0301,-2.0389,-2.0063,-1.9732,-1.9389,-1.918,-1.9198,-1.9349,-1.9186,-1.931,-1.9708,-1.9723,-1.9723,-1.9723,-1.9723,-1.9723,-1.9723,-1.9723,-1.9723,-1.9723,-1.9723,-1.9531,-1.9204,-1.9256,-1.8929,-1.8204,-1.7994,-1.7725,-1.7394,-1.7182,-1.6768,-1.6126,-1.6166,-1.5549,-1.4231,-1.4283,-1.3733,-1.2409,-1.2416,-1.2364,-1.2069,-1.1077,-1.047,-1.0381,-0.91,-0.8695,0.0,0.0,0.0,0.0,0.0,0.0,0.0,0.0,0.0,0.0,0.0,-1.1099,-1.0297,-1.3475,-1.5751,-1.6179,-1.7436,-1.8564,-1.942,-2.0245,-2.1089,-2.1938,-2.2711,-2.3182,-2.318,-2.356,-2.3795,-2.3795,-2.3795,-2.3795,-2.3795,-2.3795,-2.3795,-2.3785,-2.3721,-2.362,-2.3526,-2.3289,-2.2998,-2.2565,-2.2501,-2.2432,-2.2324,-2.2313,-2.2313,-2.2313,-2.2313,-2.2313,-2.2282,-2.2135,-2.2094,-2.2237,-2.2152,-2.2092,-2.2166,-2.1903,-2.157,-2.1525,-2.1508,-2.1447,-2.2501,-2.2501,-2.2515,-2.2528,-2.2497,-2.2155,-2.201,-2.1967,-2.1368,-2.1198,-2.1324,-2.1087,-2.0812,-2.0547,-2.0256,-2.0137,-2.0189,-1.9797,-1.9669,-1.9747,-1.9726,-1.9723,-1.9723,-1.9723,-1.9723,-1.9723,-1.9723,-1.9723,-1.9723,-1.9723,-1.9741,-1.9797,-1.9797,-1.9902,-2.0015,-1.887,-1.823,-1.8155,-1.7532,-1.6916,-1.6348,-1.6225,-1.5608,-1.4394,-1.424,-1.3605,-1.2411,-1.2324,-1.2022,-1.1449,-1.084,-1.0474,-1.0388,-0.9852,-1.0013,0.0,-1.0152,0.0,0.0,0.0,0.0,0.0,0.0,0.0,0.0,-1.3521,-1.4271,-1.5182,-1.7002,-1.836,-1.8887,-2.0559,-2.166,-2.1676,-2.2355,-2.2843,-2.2862,-2.3415,-2.3795,-2.3795,-2.3795,-2.3795,-2.3795,-2.3795,-2.3795,-2.3795,-2.3795,-2.3795,-2.3785,-2.3675,-2.3542,-2.3515,-2.3089,-2.2734,-2.2487,-2.2569,-2.2609,-2.2366,-2.2313,-2.2313,-2.2313,-2.2313,-2.2313,-2.2313,-2.2282,-2.2296,-2.2313,-2.2313,-2.2313,-2.2313,-2.2049,-2.1857,-2.1781,-2.1766,-2.1781,-2.2463,-2.2484,-2.2552,-2.2623,-2.2615,-2.2309,-2.2122,-2.2068,-2.1764,-2.1386,-2.0909,-2.0844,-2.0663,-2.0357,-2.0239,-2.0191,-2.0174,-1.9836,-1.9818,-2.0102,-1.9818,-1.9723,-1.9723,-1.9723,-1.9723,-1.9723,-1.9723,-1.9723,-1.9723,-1.9723,-1.9744,-1.9797,-1.9902,-2.0115,-2.0379,0.0,0.0,0.0,-1.7823,-1.7132,-1.6993,-1.6471,-1.5824,-1.5039,-1.4483,0.0,-1.3129,-1.2525,-1.2184,-1.2084,-1.1474,0.0,0.0,0.0,0.0,0.0,0.0,0.0,0.0,0.0,0.0,0.0,-1.3871,-1.3888,-1.4221,-1.4985,-1.626,-1.8196,-2.0595,-2.1631,-2.0731,-2.173,-2.2473,-2.251,-2.3143,-2.3588,-2.3606,-2.3705,-2.3795,-2.3795,-2.3795,-2.3795,-2.3795,-2.3795,-2.3795,-2.3795,-2.3813,-2.3795,-2.3813,-2.3789,-2.3685,-2.3526,-2.3194,-2.294,-2.2676,-2.2676,-2.2605,-2.238,-2.2313,-2.2313,-2.2313,-2.2313,-2.2313,-2.2313,-2.2313,-2.2313,-2.2313,-2.2313,-2.2313,-2.2313,-2.2271,-2.2137,-2.1857,-2.1797,-2.1781,-2.2528,0.0,-2.2619,-2.2592,0.0,-2.2278,-2.1994,-2.169,-2.1586,-2.1277,-2.0778,-2.0695,-2.0561,-2.0407,-2.0359,-2.0344,-2.0344,-2.0258,-2.0224,-2.0191,-2.0015,-1.9871,-1.9723,-1.9723,-1.9723,-1.9723,-1.9723,-1.9723,-1.9708,-1.9759,-1.9871,-2.0137,-2.0239,-2.0512,-2.0894,-2.0926,-2.0544,-1.9704,-1.8904,-1.8387,-1.817,-1.7504,-1.6754,-1.5975,0.0,0.0,0.0,0.0,0.0,0.0,0.0,0.0,0.0,0.0,0.0,-1.3775,-1.2988,-1.2718,-1.3309,-1.3313,-1.3959,-1.552,-1.6393,-1.6727,-1.6397,-1.7435,-1.8791,-2.0345,-2.2094,-2.2882,-2.2375,-2.2885,-2.3252,-2.327,-2.3578,-2.3795,-2.3795,-2.3795,-2.3795,-2.3795,-2.3795,-2.3795,-2.3795,-2.3795,-2.3795,-2.3842,-2.4157,-2.4393,-2.4328,-2.3963,-2.3558,-2.3348,-2.3206,-2.301,-2.2747,-2.2712,-2.2605,-2.238,-2.2313,-2.2313,-2.2313,-2.2313,-2.2313,-2.2313,-2.2313,-2.2313,-2.2313,-2.2313,-2.2398,-2.275,-2.2852,-2.296,-2.3014,-2.2566,-2.2049,-2.2579,-2.2623,-2.2676,-2.2535,-2.2292,-2.2195,-2.1777,-2.1214,0.0,0.0,0.0,-2.0628,-2.0544,-2.0544,-2.0561,-2.0595,-2.0662,-2.0678,-2.0547,-2.0326,-2.0156,-1.9962,-1.9708,-1.9723,-1.9723,-1.9723,-1.9726,-1.9762,-1.9818,-1.9904,-2.017,-2.0581,-2.0664,-2.0942,-2.1338,-2.1385,-2.1091,-2.049,-2.0077,-1.9726,-1.9376,-1.8676,-1.7856,-1.6916,-1.6181,-1.5339,-1.4406,-1.4331,-1.3752,-1.2643,-1.2608,-1.2562,-1.2442,-1.2614,-1.3497,-1.5126,-1.479,-1.4674,-1.5109,-1.5031,-1.5572,-1.6946,-1.854,-1.9292,-1.8871,-1.9935,-2.1008,-2.1885,-2.2728,-2.3283,-2.3406,-2.3664,-2.3795,-2.3795,-2.3795,-2.3795,-2.3795,-2.3795,-2.3795,-2.3795,-2.3795,-2.3795,-2.3795,-2.394,-2.4023,-2.4121,-2.4737,-2.5226,-2.5095,-2.4586,-2.4104,-2.391,-2.3797,-2.3399,-2.3067,-2.2855,-2.271,-2.2587,-2.2533,-2.2533,-2.2665,-2.2699,-2.2682,-2.2835,-2.2685,-2.2736,-2.2733,-2.2786,-2.2902,-2.346,-2.3596,-2.378,-2.422,-2.3545,-2.2772,-2.2555,-2.2609,-2.2623,-2.2619,-2.2588,-2.2087,-2.1478,-2.0876,-2.0876,-2.0844,-2.0794,-2.0778,-2.0761,-2.0761,-2.0761,-2.0909,-2.1151,-2.0548,-2.0429,-2.0663,-2.005,-1.9729,-1.9708,-1.9723,-1.9723,-1.9708,-1.9744,-1.9927,-2.021,-2.033,-2.0615,-2.0975,-2.1023,-2.1275,-2.1691,-2.1736,-2.1822,-2.1969,-2.0816,-2.0208,-2.0139,-1.9423,-1.8568,-1.7588,-1.6905,-1.6069,-1.5111,-1.4541,-1.4125,-1.3941,-1.3925,-1.374,-1.3363,-1.3756,-1.4353,-1.4968,-1.465,-1.4806,-1.5626,-1.5663,-1.6454,-1.8258,-1.9696,-2.0724,-2.1335,-2.1423,-2.1764,-2.2577,-2.3247,-2.354,-2.3248,-2.3558,-2.3785,-2.3795,-2.3795,-2.3795,-2.3795,-2.3795,-2.3795,-2.3795,-2.3795,-2.3795,-2.385,-2.4357,-2.4755,-2.49,-2.5479,-2.6029,-2.6065,-2.5909,-2.582,-2.5677,-2.5172,-2.461,-2.4108,-2.3468,-2.3215,-2.3226,-2.3241,-2.3427,-2.3932,-2.4,-2.4,-2.4135,-2.4034,-2.4068,-2.4101,-2.4203,-2.4152,-2.4305,-2.4355,-2.4423,-2.4626,-2.4372,-2.4171,-2.2565,-2.2605,-2.2672,-2.2584,-2.2378,-2.1764,-2.1356,-2.1087,-2.099,-2.0958,-2.0974,-2.0958,-2.1006,-2.1087,-2.1167,-2.1309,-2.1434,-2.1007,-2.0795,-2.0761,-2.0239,-1.9871,-1.9726,-1.9744,-1.9762,-1.978,-2.0065,-2.0243,-2.0416,-2.0698,-2.1023,-2.1352,-2.1613,-2.1855,-2.2049,-2.2106,-2.2178,-2.2279,-2.1527,-2.1198,-2.1358,-2.0672,-1.9998,-1.9377,-1.8287,-1.7349,-1.6584,-1.5871,-1.5267,-1.476,-1.4747,-1.464,-1.4455,-1.4699,-1.5095,-1.5613,-1.5665,-1.5829,-1.6269,-1.6959,-1.8182,-2.006,-2.0668,-2.1375,-2.23,-2.2414,-2.2524,-2.2764,-2.2935,-2.3103,-2.3271,-2.3502,-2.3667,-2.3795,-2.3795,-2.3795,-2.3795,-2.3795,-2.3795,-2.3795,-2.3795,-2.3795,-2.3795,-2.4502,-2.499,-2.5099,-2.6023,-2.6946,-2.7405,-2.7477,-2.7152,-2.6332,-2.5626,-2.5189,-2.4892,-2.4326,-2.3964,-2.3981,-2.4,-2.4135,-2.4457,-2.4508,-2.4525,-2.4508,-2.4508,-2.4508,-2.4525,-2.4491,-2.4643,-2.505,-2.5101,-2.5203,-2.554,-2.5709,-2.5557,-2.2659,-2.2672,-2.2777,-2.2594,-2.2189,-2.1705,-2.1433,-2.1355,-2.123,-2.1183,-2.1198,-2.1215,-2.1278,-2.1388,-2.1557,-2.1634,-2.1603,-2.1387,-2.1183,-2.0877,-2.0429,-2.0052,-1.9821,-1.9889,-1.9907,-1.9977,-2.0413,-2.0681,-2.078,-2.1086,-2.143,-2.1748,-2.212,-2.2313,-2.2313,-2.2352,-2.2352,-2.2296,-2.2049,-2.2034,-2.2279,-2.1735,-2.1238,-2.075,-1.9661,-1.8634,-1.7841,-1.7234,-1.6515,-1.5612,-1.5542,-1.5503,-1.5463,-1.55,-1.5732,-1.6202,-1.6618,-1.6961,-1.7258,-1.8362,-1.9731,-2.1203,-2.1352,-2.1715,-2.2556,-2.2825,-2.2884,-2.2747,-2.2593,-2.2728,-2.3259,-2.347,-2.3594,-2.3782,-2.3795,-2.3795,-2.3795,-2.3795,-2.3795,-2.3795,-2.3795,-2.385,-2.4139,-2.4654,-2.5312,-2.5993,-2.6898,-2.7894,-2.8473,-2.86,-2.802,-2.7097,-2.6249,-2.5875,-2.5755,-2.5213,-2.4913,-2.4919,-2.4929,-2.505,-2.5139,-2.5128,-2.5015,-2.5117,-2.5066,-2.5134,-2.5032,-2.5049,-2.5303,-2.5761,-2.5845,-2.6047,-2.657,-2.6705,-2.6621,-2.2799,-2.2863,-2.2893,-2.2686,-2.2368,-2.2122,-2.1866,-2.1567,-2.1387,-2.1388,-2.1543,-2.1542,-2.1559,-2.1588,-2.1723,-2.1783,-2.1753,-2.1449,-2.1277,-2.1167,-2.0514,-2.0191,-2.0174,-2.0227,-2.0246,-2.0331,-2.0781,-2.1197,-2.1445,-2.1628,-2.1884,-2.2194,-2.2282,-2.2296,-2.231,-2.231,-2.231,-2.2313,-2.2268,-2.2268,-2.2296,-2.2245,-2.1759,-2.0836,-2.0672,-1.9775,-1.824,-1.8003,-1.7529,-1.6654,-1.6483,-1.6396,-1.6219,-1.6206,-1.6237,-1.6361,-1.6932,-1.7637,-1.8644,-1.9612,-2.0395,-2.0916,-2.1473,-2.1917,-2.2335,-2.2377,-2.247,-2.2649,-2.2747,-2.2896,-2.3119,-2.3359,-2.3576,-2.3764,-2.3795,-2.3795,-2.3795,-2.3795,-2.3795,-2.3795,-2.3795,-2.4077,-2.4672,-2.5188,-2.617,-2.7682,-2.8075,-2.8382,-2.8545,-2.86,-2.8594,-2.8219,-2.7693,-2.713,-2.6826,-2.6203,-2.5967,-2.623,-2.6135,-2.6193,-2.6463,-2.6514,-2.6471,-2.6179,-2.6319,-2.6268,-2.6336,-2.6488,-2.6404,-2.6386,-2.6504,-2.6689,-2.7069,-2.7165,-2.7062,-2.301,-2.2889,-2.2944,-2.2889,-2.2708,-2.2429,-2.2203,-2.2048,-2.1763,-2.1706,-2.1768,-2.1723,-2.1708,-2.1739,-2.1766,-2.1781,-2.1766,-2.1449,-2.1309,-2.1246,-2.0812,-2.0598,-2.063,-2.0715,-2.0765,-2.0814,-2.1275,-2.1584,-2.1735,-2.1959,-2.2194,-2.2338,-2.2324,-2.2324,-2.2366,-2.2366,-2.2352,-2.2313,-2.2338,-2.2352,-2.231,-2.2313,-2.2102,-2.1698,-2.1278,-2.0665,-1.9723,-1.8848,-1.8078,-1.7552,-1.7075,-1.7033,-1.7401,-1.6881,-1.7082,-1.8076,-1.8567,-1.9247,-2.03,-2.0664,-2.1145,-2.1783,-2.2009,-2.222,-2.2501,-2.2391,-2.247,-2.2854,-2.2958,-2.3077,-2.3307,-2.3434,-2.3576,-2.3771,-2.3795,-2.3795,-2.3795,-2.3795,-2.3795,-2.3795,-2.3813,-2.4132,-2.4954,-2.5945,-2.7079,-2.8316,-2.86,-2.86,-2.86,-2.86,-2.8625,-2.8596,-2.8366,-2.8048,-2.7678,-2.7258,-2.7063,-2.7147,-2.7154,-2.7243,-2.7304,-2.7211,-2.6988,-2.6989,-2.6874,-2.6758,-2.6623,-2.6708,-2.6708,-2.6758,-2.694,-2.7101,-2.7446,-2.7507,-2.755,-2.3199,-2.2977,-2.3008,-2.3015,-2.299,-2.2656,-2.2506,-2.247,-2.211,-2.1955,-2.194,-2.184,-2.1781,-2.1781,-2.1781,-2.1781,-2.1751,-2.1556,-2.1449,-2.1433,-2.1182,-2.1039,-2.1087,-2.1181,-2.1243,-2.1306,-2.1705,-2.1945,-2.1974,-2.2194,-2.2349,-2.2394,-2.2338,-2.2324,-2.238,-2.238,-2.2352,-2.231,-2.2352,-2.2335,-2.231,-2.2313,-2.2313,-2.2262,-2.1786,-2.1329,-2.0899,-1.9837,-1.902,-1.8559,-1.8058,-1.8009,-1.8464,-1.7737,-1.8032,-1.9614,-1.9997,-2.0538,-2.1521,-2.1549,-2.1813,-2.2405,-2.2394,-2.2405,-2.2579,-2.2565,-2.273,-2.3087,-2.3283,-2.3479,-2.3495,-2.3518,-2.3613,-2.3816,-2.3847,-2.3847,-2.3847,-2.3847,-2.3847,-2.3865,-2.4184,-2.4776,-2.5914,-2.7071,-2.8027,-2.8535,-2.8662,-2.865,-2.865,-2.8662,-2.8687,-2.8724,-2.8718,-2.8614,-2.8352,-2.8081,-2.7968,-2.7929,-2.789,-2.7727,-2.7786,-2.7535,-2.7353,-2.7322,-2.7084,-2.702,-2.71,-2.7053,-2.6989,-2.702,-2.718,-2.7444,-2.7757,-2.78,-2.7926,-2.3283,-2.3107,-2.3089,-2.3095,-2.3077,-2.2863,-2.2773,-2.2747,-2.2309,-2.2096,-2.2099,-2.1899,-2.1812,-2.1796,-2.1796,-2.1796,-2.1781,-2.1766,-2.1781,-2.1811,-2.154,-2.1433,-2.1478,-2.1536,-2.1598,-2.1628,-2.2017,-2.2265,-2.2335,-2.2377,-2.2391,-2.2391,-2.2321,-2.2313,-2.231,-2.2307,-2.231,-2.231,-2.231,-2.231,-2.2313,-2.2313,-2.2313,-2.231,-2.2245,-2.1874,-2.1299,-2.1109,-2.0628,-1.977,-1.961,-1.9545,-1.9415,-1.8843,-1.9207,-2.0474,-2.0841,-2.125,-2.1897,-2.2158,-2.2364,-2.247,-2.246,-2.2446,-2.2605,-2.285,-2.3086,-2.33,-2.3774,-2.3955,-2.37,-2.3639,-2.3721,-2.3927,-2.3968,-2.3986,-2.3968,-2.3958,-2.3978,-2.4196,-2.4944,-2.6169,-2.8215,-2.8712,-2.8658,-2.8755,-2.8773,-2.8773,-2.8779,-2.8773,-2.8785,-2.8785,-2.8798,-2.8785,-2.8761,-2.8563,-2.8551,-2.85,-2.8273,-2.8102,-2.7992,-2.788,-2.7771,-2.7672,-2.755,-2.7519,-2.7627,-2.7642,-2.7597,-2.758,-2.758,-2.78,-2.8055,-2.8075,-2.8188,-2.3422,-2.3107,-2.3107,-2.3107,-2.3107,-2.3015,-2.2995,-2.2952,-2.2664,-2.2463,-2.2343,-2.2189,-2.2032,-2.1853,-2.1911,-2.1913,-2.1884,-2.1897,-2.194,-2.1955,-2.1915,-2.1934,-2.1947,-2.2003,-2.2046,-2.2077,-2.2223,-2.231,-2.2338,-2.238,-2.2391,-2.2377,-2.2338,-2.2307,-2.2352,-2.2307,-2.2313,-2.2313,-2.2313,-2.2313,-2.2327,-2.2313,-2.2324,-2.2349,-2.2307,-2.2175,-2.1904,-2.1461,-2.1028,-2.0709,-2.0224,-2.0144,-2.0611,-2.0958,-2.1369,-2.1883,-2.2027,-2.2126,-2.2364,-2.2446,-2.2501,-2.2552,-2.2668,-2.2782,-2.2955,-2.3084,-2.3295,-2.3732,-2.4034,-2.4122,-2.4034,-2.3907,-2.3896,-2.3968,-2.3988,-2.3988,-2.3988,-2.4006,-2.4178,-2.4835,-2.5976,-2.7257,-2.7908,-2.8493,-2.8798,-2.8816,-2.8816,-2.8816,-2.8816,-2.8816,-2.8822,-2.8858,-2.887,-2.8881,-2.8917,-2.8822,-2.8761,-2.8737,-2.8619,-2.8551,-2.8474,-2.8201,-2.8037,-2.7982,-2.7911,-2.7818,-2.7818,-2.78,-2.7847,-2.794,-2.7954,-2.8083,-2.837,-2.8339,-2.8422,-2.352,-2.3235,-2.3126,-2.3107,-2.3107,-2.3107,-2.3107,-2.3082,-2.2876,-2.2742,-2.2565,-2.2357,-2.2158,-2.2044,-2.2013,-2.2015,-2.2003,-2.2001,-2.2027,-2.2075,-2.2168,-2.2214,-2.2225,-2.2268,-2.231,-2.2338,-2.2366,-2.2366,-2.2338,-2.238,-2.2391,-2.2391,-2.2321,-2.2307,-2.2352,-2.2307,-2.2338,-2.2405,-2.2436,-2.2432,-2.2432,-2.2511,-2.2497,-2.2432,-2.2432,-2.2422,-2.2321,-2.1858,-2.16,-2.1518,-2.1121,-2.1096,-2.1693,-2.2291,-2.2646,-2.2703,-2.2632,-2.2609,-2.2609,-2.2552,-2.2579,-2.2708,-2.285,-2.303,-2.3283,-2.3283,-2.3524,-2.3886,-2.4123,-2.4199,-2.418,-2.4122,-2.4074,-2.4046,-2.4074,-2.4056,-2.4056,-2.4074,-2.4586,-2.5562,-2.6779,-2.7638,-2.8029,-2.8541,-2.8803,-2.8858,-2.8858,-2.8876,-2.8876,-2.8876,-2.8888,-2.8935,-2.8947,-2.894,-2.8952,-2.8905,-2.8846,-2.8834,-2.8785,-2.8816,-2.8761,-2.8513,-2.8365,-2.8295,-2.8206,-2.8041,-2.7989,-2.7971,-2.8069,-2.8201,-2.8255,-2.8357,-2.8505,-2.8574,-2.8587,-2.3515,-2.3447,-2.3211,-2.3114,-2.3107,-2.3107,-2.3107,-2.307,-2.2919,-2.2812,-2.2734,-2.2347,-2.2281,-2.226,-2.2158,-2.2104,-2.2152,-2.2089,-2.2089,-2.2197,-2.2214,-2.2242,-2.2296,-2.2293,-2.2352,-2.2377,-2.246,-2.2446,-2.2394,-2.2408,-2.2391,-2.2377,-2.2321,-2.2324,-2.2324,-2.2352,-2.246,-2.2646,-2.2712,-2.2712,-2.2738,-2.2884,-2.2825,-2.2515,-2.2632,-2.2649,-2.2422,-2.2409,-2.2375,-2.2337,-2.2395,-2.2504,-2.2395,-2.2588,-2.2703,-2.2685,-2.2628,-2.2636,-2.2636,-2.2632,-2.2764,-2.2952,-2.3015,-2.314,-2.3387,-2.35,-2.3639,-2.3865,-2.4074,-2.4199,-2.4199,-2.419,-2.418,-2.4208,-2.418,-2.418,-2.418,-2.4263,-2.4822,-2.6327,-2.7416,-2.8106,-2.8712,-2.8927,-2.897,-2.8952,-2.8982,-2.897,-2.897,-2.897,-2.8994,-2.8994,-2.8994,-2.8975,-2.8975,-2.8975,-2.8952,-2.8917,-2.8858,-2.8834,-2.8834,-2.8663,-2.8614,-2.8563,-2.8479,-2.8335,-2.8322,-2.8304,-2.8375,-2.8474,-2.8531,-2.8531,-2.8556,-2.86,-2.86,-2.3753,-2.3515,-2.3424,-2.3259,-2.3119,-2.3107,-2.3107,-2.3119,-2.3132,-2.3052,-2.2957,-2.2935,-2.2764,-2.2561,-2.2494,-2.2402,-2.2268,-2.2223,-2.2237,-2.2268,-2.2254,-2.2296,-2.2366,-2.238,-2.2377,-2.2408,-2.2405,-2.2391,-2.2335,-2.2377,-2.2377,-2.2338,-2.2324,-2.2405,-2.2569,-2.2579,-2.2694,-2.2947,-2.2973,-2.2968,-2.2963,-2.2867,-2.2829,-2.2786,-2.2689,-2.2569,-2.2542,-2.2497,-2.2474,-2.2405,-2.2487,-2.2528,-2.2528,-2.2579,-2.2628,-2.2712,-2.2868,-2.294,-2.294,-2.294,-2.3035,-2.3218,-2.3277,-2.3416,-2.366,-2.3847,-2.3986,-2.4064,-2.4161,-2.4199,-2.4199,-2.4199,-2.4199,-2.4199,-2.4199,-2.4208,-2.4383,-2.5152,-2.6245,-2.7255,-2.8124,-2.8693,-2.8913,-2.8987,-2.8987,-2.8987,-2.8987,-2.8987,-2.8987,-2.8987,-2.8987,-2.8987,-2.8987,-2.8987,-2.8987,-2.8987,-2.8975,-2.8952,-2.8917,-2.8881,-2.8881,-2.8858,-2.881,-2.8749,-2.8662,-2.8612,-2.86,-2.86,-2.86,-2.86,-2.8574,-2.8587,-2.8587,-2.86,-2.86,-2.3959,-2.3728,-2.358,-2.3445,-2.3289,-2.3259,-2.3235,-2.3265,-2.3336,-2.3283,-2.3229,-2.3223,-2.3139,-2.2876,-2.2721,-2.2592,-2.2446,-2.2352,-2.231,-2.2338,-2.231,-2.2338,-2.2408,-2.2419,-2.2405,-2.2391,-2.247,-2.246,-2.231,-2.2432,-2.2432,-2.2321,-2.2391,-2.2528,-2.2712,-2.2812,-2.2985,-2.3206,-2.3236,-2.3277,-2.3283,-2.3218,-2.3182,-2.3103,-2.2935,-2.2812,-2.2764,-2.2725,-2.2646,-2.2511,-2.2555,-2.2565,-2.2582,-2.2605,-2.2663,-2.2738,-2.2944,-2.3107,-2.3119,-2.3157,-2.3318,-2.3488,-2.3544,-2.3671,-2.3907,-2.4113,-2.419,-2.4199,-2.4199,-2.4199,-2.4199,-2.4199,-2.4199,-2.4199,-2.4199,-2.4337,-2.4713,-2.5786,-2.6851,-2.7658,-2.8484,-2.8895,-2.8987,-2.8987,-2.8987,-2.8987,-2.8987,-2.8987,-2.8987,-2.8987,-2.8987,-2.8987,-2.8987,-2.8987,-2.8987,-2.8987,-2.8987,-2.8987,-2.8975,-2.8952,-2.8952,-2.8905,-2.887,-2.8773,-2.8687,-2.8637,-2.8612,-2.86,-2.86,-2.86,-2.86,-2.86,-2.86,-2.86,-2.86,-2.4126,-2.4078,-2.3788,-2.3631,-2.3584,-2.3526,-2.3487,-2.3476,-2.3505,-2.3505,-2.3453,-2.3348,-2.3295,-2.3199,-2.291,-2.273,-2.2646,-2.247,-2.2366,-2.2366,-2.2321,-2.2352,-2.2436,-2.2484,-2.2487,-2.2432,-2.2672,-2.2646,-2.246,-2.2632,-2.2592,-2.2443,-2.2628,-2.2734,-2.2846,-2.3005,-2.3265,-2.3488,-2.3533,-2.3555,-2.3628,-2.3785,-2.3742,-2.3364,-2.3312,-2.3206,-2.3015,-2.299,-2.2914,-2.2685,-2.2685,-2.2685,-2.2699,-2.2712,-2.2751,-2.2812,-2.3003,-2.3163,-2.3211,-2.3353,-2.3551,-2.3785,-2.3795,-2.3899,-2.4132,-2.418,-2.4199,-2.4199,-2.4199,-2.4199,-2.4199,-2.4199,-2.4236,-2.4273,-2.4281,-2.4557,-2.5374,-2.6172,-2.6961,-2.7805,-2.8539,-2.8998,-2.901,-2.901,-2.9021,-2.8998,-2.901,-2.9044,-2.8998,-2.901,-2.9028,-2.9017,-2.9005,-2.8987,-2.8987,-2.8987,-2.8987,-2.8987,-2.8987,-2.8998,-2.8987,-2.894,-2.8905,-2.881,-2.8749,-2.8687,-2.8637,-2.8637,-2.8612,-2.86,-2.86,-2.86,-2.86,-2.8618,-2.8848,-2.4374,-2.4229,-2.4154,-2.3949,-2.3692,-2.3657,-2.3576,-2.3528,-2.3611,-2.3645,-2.3645,-2.3653,-2.3565,-2.3447,-2.3313,-2.3072,-2.2786,-2.2668,-2.2497,-2.2366,-2.2363,-2.2405,-2.2501,-2.2632,-2.2699,-2.2685,-2.2902,-2.2973,-2.2914,-2.2947,-2.2955,-2.2908,-2.2945,-2.3117,-2.3359,-2.3427,-2.3606,-2.3827,-2.3858,-2.3896,-2.3917,-2.3785,-2.3703,-2.3682,-2.3455,-2.3254,-2.3089,-2.3095,-2.3082,-2.2982,-2.279,-2.2712,-2.2725,-2.2876,-2.306,-2.3242,-2.3439,-2.3602,-2.3613,-2.3667,-2.3816,-2.4044,-2.3917,-2.3935,-2.417,-2.4199,-2.4199,-2.4199,-2.4199,-2.4199,-2.4199,-2.4199,-2.4438,-2.4915,-2.4603,-2.4824,-2.5991,-2.6484,-2.7108,-2.8411,-2.8972,-2.9101,-2.9093,-2.9115,-2.9171,-2.9089,-2.9115,-2.9192,-2.9127,-2.916,-2.9206,-2.9055,-2.9017,-2.9005,-2.8987,-2.8987,-2.8987,-2.8987,-2.8998,-2.9028,-2.8994,-2.8959,-2.8917,-2.887,-2.8851,-2.8815,-2.8731,-2.8682,-2.8662,-2.8657,-2.8764,-2.8831,-2.8685,-2.8672,-2.9163,-2.4522,-2.4419,-2.4365,-2.422,-2.3983,-2.3909,-2.3831,-2.3765,-2.3736,-2.3728,-2.3739,-2.3792,-2.375,-2.3631,-2.3531,-2.333,-2.3037,-2.296,-2.2799,-2.2605,-2.2579,-2.2528,-2.2515,-2.2659,-2.2773,-2.2816,-2.3109,-2.3164,-2.3145,-2.3194,-2.3195,-2.3129,-2.3236,-2.3414,-2.3573,-2.3724,-2.3847,-2.3988,-2.4036,-2.4074,-2.4122,-2.3966,-2.3907,-2.3907,-2.3682,-2.3473,-2.3388,-2.3283,-2.3224,-2.3188,-2.3079,-2.2905,-2.2751,-2.303,-2.337,-2.3692,-2.3777,-2.3795,-2.3816,-2.3878,-2.4044,-2.4151,-2.4026,-2.4064,-2.417,-2.4199,-2.4199,-2.4199,-2.4199,-2.4199,-2.4199,-2.4199,-2.4633,-2.5262,-2.5029,-2.5414,-2.7042,-2.7247,-2.788,-2.882,-2.928,-2.9322,-2.9246,-2.9283,-2.9272,-2.9291,-2.9373,-2.9363,-2.9322,-2.9375,-2.9385,-2.9249,-2.9214,-2.9238,-2.9259,-2.9259,-2.9296,-2.9263,-2.9481,-2.9403,-2.928,-2.9228,-2.9081,-2.9069,-2.901,-2.9023,-2.9099,-2.9051,-2.8833,-2.8882,-2.8998,-2.9172,-2.9165,-2.9368,-2.9768,-2.4596,-2.4588,-2.4476,-2.4415,-2.4373,-2.421,-2.4095,-2.4064,-2.3925,-2.3834,-2.3795,-2.3795,-2.3785,-2.3785,-2.3631,-2.3513,-2.3455,-2.3248,-2.3067,-2.2922,-2.2838,-2.2725,-2.2552,-2.2812,-2.2914,-2.2952,-2.333,-2.3394,-2.3353,-2.3455,-2.3414,-2.3392,-2.3555,-2.3649,-2.3764,-2.3907,-2.4026,-2.4075,-2.4103,-2.4123,-2.417,-2.4151,-2.4123,-2.4103,-2.3896,-2.3795,-2.3742,-2.3599,-2.3466,-2.3482,-2.3426,-2.3165,-2.2897,-2.3224,-2.3639,-2.4006,-2.3976,-2.3886,-2.3886,-2.4074,-2.418,-2.419,-2.419,-2.4199,-2.4199,-2.4199,-2.4199,-2.4199,-2.4199,-2.4199,-2.4236,-2.4282,-2.494,-2.5709,-2.5762,-2.6596,-2.7761,-2.8161,-2.8471,-2.942,-2.9435,-2.9455,-2.9494,-2.9504,-2.9425,-2.9455,-2.9542,-2.957,-2.9532,-2.957,-2.957,-2.9513,-2.9513,-2.9551,-2.9561,-2.9561,-2.9604,-2.9655,-3.0073,-3.0134,-2.9916,-2.9772,-2.9465,-2.9373,-2.9667,-2.9834,-2.9894,-2.9691,-2.9499,-2.9649,-3.0117,-3.0149,-3.0128,-3.0454,-3.0833,-2.4695,-2.4676,-2.4653,-2.4559,-2.4486,-2.4435,-2.4275,-2.4103,-2.4054,-2.3927,-2.3845,-2.3795,-2.3806,-2.3795,-2.3732,-2.3646,-2.3524,-2.3463,-2.3377,-2.3139,-2.306,-2.301,-2.2985,-2.3206,-2.3313,-2.3371,-2.3598,-2.371,-2.3714,-2.3742,-2.3827,-2.3868,-2.3886,-2.4034,-2.4064,-2.4084,-2.4161,-2.418,-2.418,-2.418,-2.419,-2.4199,-2.4199,-2.418,-2.3947,-2.3945,-2.4016,-2.3847,-2.3816,-2.3868,-2.3649,-2.3398,-2.3352,-2.3533,-2.3865,-2.4084,-2.4161,-2.4103,-2.4113,-2.4161,-2.4199,-2.4199,-2.4199,-2.4199,-2.4199,-2.4199,-2.4199,-2.4199,-2.4199,-2.4199,-2.4254,-2.4912,-2.5625,-2.6377,-2.7195,-2.8061,-2.9014,-2.8556,-2.8599,-2.9279,-2.9589,-2.9561,-2.9617,-2.9725,-2.9689,-2.9662,-2.9699,-2.9753,-2.9779,-2.9769,-2.976,-2.9742,-2.9725,-2.9799,-3.0092,-3.0224,-3.0452,-3.0499,-3.0828,-3.1025,-3.0824,-3.0541,-3.0328,-3.0356,-3.0544,-3.0683,-3.0803,-3.1102,-3.1053,-3.1168,-3.1161,-3.1186,-3.1262,-3.1592,-3.1906,-2.4712,-2.4681,-2.4681,-2.465,-2.4586,-2.4528,-2.4393,-2.4191,-2.4113,-2.3986,-2.3855,-2.3827,-2.3827,-2.3806,-2.3816,-2.3764,-2.3685,-2.358,-2.3524,-2.3434,-2.3353,-2.3353,-2.3479,-2.3569,-2.3642,-2.3569,-2.3732,-2.3858,-2.3927,-2.3986,-2.4016,-2.4094,-2.4141,-2.4133,-2.419,-2.4199,-2.419,-2.419,-2.4199,-2.4199,-2.4199,-2.4199,-2.4199,-2.419,-2.4064,-2.4074,-2.4161,-2.4074,-2.4084,-2.4094,-2.3917,-2.3774,-2.3785,-2.3896,-2.4046,-2.417,-2.4199,-2.4199,-2.419,-2.4199,-2.4199,-2.4199,-2.4199,-2.4199,-2.4199,-2.4199,-2.4199,-2.4199,-2.4199,-2.4218,-2.4264,-2.5107,-2.5996,-2.6851,-2.7818,-2.8784,-2.9502,-2.9222,-2.9017,-2.9655,-2.9803,-2.9839,-2.9888,-2.9913,-2.9945,-2.9905,-2.9956,-2.9996,-3.0011,-3.0019,-3.0003,-2.9969,-2.9937,-3.0092,-3.053,-3.093,-3.1433,-3.1577,-3.1795,-3.1953,-3.1943,-3.1614,-3.1311,-3.1437,-3.1609,-3.1666,-3.1836,-3.2175,-3.2297,-3.1923,-3.1827,-3.2109,-3.2428,-3.2708,-3.3042,-2.4783,-2.4738,-2.4715,-2.4681,-2.4657,-2.4553,-2.44,-2.4266,-2.42,-2.4037,-2.3858,-2.3907,-2.3927,-2.3837,-2.3847,-2.3886,-2.3816,-2.371,-2.3628,-2.37,-2.3602,-2.3657,-2.3803,-2.3845,-2.3824,-2.3621,-2.3806,-2.3937,-2.4016,-2.4056,-2.4094,-2.4113,-2.417,-2.419,-2.4199,-2.4199,-2.4199,-2.4199,-2.4199,-2.4199,-2.4199,-2.4199,-2.4199,-2.419,-2.418,-2.417,-2.419,-2.418,-2.419,-2.4199,-2.4199,-2.4199,-2.4199,-2.4199,-2.4199,-2.4199,-2.4199,-2.4199,-2.4199,-2.4199,-2.4199,-2.4199,-2.4199,-2.4199,-2.4199,-2.4199,-2.4199,-2.4199,-2.4199,-2.4199,-2.4264,-2.5411,-2.6218,-2.7008,-2.7937,-2.8992,-2.9677,-2.9956,-2.9954,-3.0034,-2.9961,-2.9913,-3.0003,-3.0057,-3.0113,-3.0169,-3.019,-3.0204,-3.0204,-3.0197,-3.0142,-3.0128,-3.0072,-3.0419,-3.0879,-3.2031,-3.249,-3.2672,-3.2832,-3.3026,-3.3152,-3.3127,-3.2925,-3.2615,-3.2676,-3.2762,-3.2961,-3.3311,-3.3185,-3.261,-3.2732,-3.327,-3.3605,-3.3853,-3.4013,-2.483,-2.4861,-2.4742,-2.4665,-2.4607,-2.4537,-2.4365,-2.42,-2.4284,-2.4173,-2.3927,-2.4049,-2.4027,-2.3917,-2.3827,-2.3816,-2.3806,-2.3753,-2.3764,-2.3816,-2.3803,-2.3876,-2.3907,-2.3947,-2.3976,-2.3996,-2.4016,-2.4016,-2.4074,-2.4094,-2.4141,-2.4152,-2.419,-2.4199,-2.4199,-2.4199,-2.4199,-2.4199,-2.4199,-2.4199,-2.4199,-2.4199,-2.4199,-2.4199,-2.4199,-2.4199,-2.4199,-2.4199,-2.4199,-2.4199,-2.4199,-2.4199,-2.4199,-2.4199,-2.4199,-2.4199,-2.4199,-2.4199,-2.4199,-2.4199,-2.4199,-2.4199,-2.4199,-2.4199,-2.4199,-2.4199,-2.4199,-2.4199,-2.4199,-2.4218,-2.4254,-2.5772,-2.6787,-2.7527,-2.8641,-2.9817,-3.0056,-3.0109,-3.0109,-3.0171,-3.0049,-2.998,-3.0083,-3.0142,-3.0176,-3.0183,-3.0197,-3.0204,-3.0204,-3.0204,-3.0197,-3.019,-3.019,-3.0698,-3.1252,-3.2714,-3.3672,-3.3797,-3.3988,-3.4304,-3.4478,-3.4735,-3.4623,-3.3944,-3.3753,-3.3895,-3.414,-3.4377,-3.4277,-3.3827,-3.4128,-3.4468,-3.4349,-3.4233,-3.4323,-2.494,-2.4869,-2.4794,-2.4734,-2.4689,-2.4561,-2.4401,-2.4219,-2.4238,-2.4087,-2.3939,-2.3969,-2.3969,-2.3886,-2.3876,-2.3827,-2.3806,-2.3827,-2.3855,-2.3876,-2.3917,-2.3976,-2.3996,-2.4026,-2.4084,-2.4132,-2.4113,-2.4103,-2.4151,-2.4142,-2.417,-2.419,-2.4199,-2.4199,-2.4199,-2.4199,-2.4199,-2.4199,-2.4199,-2.4199,-2.4199,-2.4199,-2.4199,-2.4199,-2.4199,-2.4199,-2.4199,-2.4199,-2.4199,-2.4199,-2.4199,-2.4199,-2.4199,-2.4199,-2.4199,-2.4199,-2.4199,-2.4199,-2.4199,-2.4199,-2.4199,-2.4199,-2.4199,-2.4199,-2.4199,-2.4199,-2.4218,-2.4218,-2.4236,-2.4383,-2.4833,-2.6328,-2.718,-2.7863,-2.9174,-2.9987,-3.0094,-3.013,-3.0171,-3.0204,-3.0154,-3.0106,-3.0161,-3.0197,-3.0204,-3.0204,-3.0204,-3.0204,-3.0204,-3.0204,-3.0223,-3.0567,-3.0758,-3.1656,-3.2267,-3.3394,-3.4388,-3.4579,-3.4732,-3.5068,-3.5182,-3.5144,-3.5076,-3.4707,-3.4743,-3.4713,-3.4784,-3.4827,-3.4904,-3.4945,-3.4774,-3.4637,-3.462,-3.4612,-3.4612,-2.5044,-2.4961,-2.4847,-2.4816,-2.4779,-2.4594,-2.4418,-2.4294,-2.4182,-2.4046,-2.3876,-2.3919,-2.3937,-2.3865,-2.3855,-2.3855,-2.3806,-2.3876,-2.3896,-2.3907,-2.3986,-2.4054,-2.4084,-2.4132,-2.4151,-2.418,-2.418,-2.4199,-2.419,-2.419,-2.419,-2.4218,-2.4218,-2.4218,-2.4199,-2.4256,-2.4228,-2.4199,-2.4199,-2.4199,-2.4199,-2.4199,-2.4199,-2.4199,-2.4199,-2.4199,-2.4199,-2.4199,-2.4199,-2.4199,-2.4199,-2.4199,-2.4199,-2.4199,-2.4209,-2.4237,-2.4199,-2.4199,-2.4218,-2.4199,-2.4199,-2.4209,-2.4199,-2.4199,-2.4199,-2.4236,-2.4291,-2.4383,-2.4566,-2.4897,-2.5655,-2.6758,-2.7566,-2.8229,-2.9255,-3.0157,-3.0087,-3.0113,-3.0197,-3.0204,-3.0204,-3.0204,-3.0204,-3.0204,-3.0204,-3.0204,-3.0204,-3.0204,-3.0204,-3.0204,-3.0357,-3.0911,-3.1541,-3.2669,-3.3471,-3.4159,-3.4789,-3.4942,-3.4972,-3.5144,-3.5182,-3.5182,-3.5087,-3.5037,-3.5068,-3.501,-3.5138,-3.5143,-3.5054,-3.4964,-3.4879,-3.4769,-3.4647,-3.4612,-3.4612,-2.5133,-2.5156,-2.4967,-2.4849,-2.4792,-2.458,-2.4426,-2.4312,-2.4275,-2.4171,-2.3996,-2.4095,-2.4037,-2.3917,-2.3827,-2.3816,-2.3827,-2.3868,-2.3917,-2.3927,-2.4026,-2.4094,-2.4122,-2.4161,-2.418,-2.4199,-2.4199,-2.4199,-2.4199,-2.4199,-2.4209,-2.4237,-2.4293,-2.433,-2.4275,-2.4357,-2.433,-2.4237,-2.4199,-2.4199,-2.4199,-2.4199,-2.4199,-2.4199,-2.4199,-2.4199,-2.4199,-2.4199,-2.4199,-2.4199,-2.4199,-2.4199,-2.4199,-2.4199,-2.4237,-2.4266,-2.4256,-2.4228,-2.4257,-2.4237,-2.42,-2.4209,-2.419,-2.4199,-2.4199,-2.4245,-2.4475,-2.5227,-2.545,-2.5866,-2.6534,-2.7513,-2.8145,-2.8743,-2.9509,-3.0073,-3.0169,-3.0121,-3.0197,-3.0204,-3.0204,-3.0204,-3.0204,-3.0204,-3.0204,-3.0204,-3.0204,-3.0204,-3.03,-3.0376,-3.0777,-3.1427,-3.2172,-3.328,-3.4044,-3.4827,-3.5037,-3.5182,-3.5182,-3.5182,-3.5182,-3.5182,-3.5182,-3.5144,-3.5182,-3.5174,-3.516,-3.5126,-3.5082,-3.4973,-3.484,-3.473,-3.4626,-3.4604,-3.4612,-2.5181,-2.518,-2.5044,-2.4993,-2.4953,-2.4716,-2.4583,-2.4493,-2.4302,-2.4192,-2.4114,-2.3989,-2.3919,-2.3865,-2.3855,-2.3827,-2.3837,-2.3955,-2.3986,-2.3988,-2.4094,-2.4142,-2.4161,-2.418,-2.4199,-2.4209,-2.4199,-2.4199,-2.4199,-2.4218,-2.4237,-2.4302,-2.4373,-2.4451,-2.4428,-2.4547,-2.4469,-2.4357,-2.4257,-2.4199,-2.4199,-2.4199,-2.4199,-2.4199,-2.4199,-2.4199,-2.4199,-2.4199,-2.4209,-2.42,-2.4209,-2.42,-2.4218,-2.4237,-2.4294,-2.4294,-2.4229,-2.4229,-2.4284,-2.4238,-2.421,-2.4201,-2.42,-2.4199,-2.4199,-2.4245,-2.4538,-2.5329,-2.6229,-2.6888,-2.7364,-2.7989,-2.8638,-2.9242,-2.9768,-2.9975,-3.0204,-3.0204,-3.0204,-3.0204,-3.0204,-3.0204,-3.0204,-3.0204,-3.0204,-3.0204,-3.0204,-3.0204,-3.0472,-3.0796,-3.1369,-3.2126,-3.2936,-3.3815,-3.4445,-3.5076,-3.5095,-3.5182,-3.5182,-3.5182,-3.5182,-3.5182,-3.5182,-3.5182,-3.5182,-3.5185,-3.5151,-3.5091,-3.502,-3.4908,-3.4792,-3.471,-3.4615,-3.4604,-3.4612,-2.521,-2.5185,-2.5151,-2.5126,-2.5095,-2.4865,-2.4734,-2.4682,-2.4417,-2.4248,-2.4116,-2.3929,-2.3806,-2.3816,-2.3865,-2.3876,-2.3837,-2.4016,-2.4085,-2.4124,-2.4182,-2.4247,-2.4275,-2.4275,-2.4321,-2.4257,-2.4358,-2.4367,-2.4358,-2.4339,-2.4366,-2.4364,-2.4451,-2.4501,-2.461,-2.4689,-2.4647,-2.4503,-2.4339,-2.4257,-2.4257,-2.4237,-2.4199,-2.4199,-2.4199,-2.4209,-2.419,-2.4228,-2.4219,-2.4229,-2.4238,-2.4229,-2.4256,-2.4266,-2.433,-2.4339,-2.4303,-2.4294,-2.4294,-2.4266,-2.4219,-2.4201,-2.4219,-2.4218,-2.4247,-2.4247,-2.481,-2.5856,-2.7253,-2.799,-2.8407,-2.8688,-2.9112,-2.9602,-3.0026,-3.0142,-3.0204,-3.0204,-3.0204,-3.0204,-3.0204,-3.0204,-3.0204,-3.0204,-3.0204,-3.0204,-3.0204,-3.0211,-3.0607,-3.1073,-3.1781,-3.2515,-3.334,-3.4129,-3.4732,-3.5171,-3.519,-3.5182,-3.5182,-3.5182,-3.5182,-3.5182,-3.5182,-3.5182,-3.5182,-3.5151,-3.5127,-3.5029,-3.4946,-3.485,-3.4761,-3.4697,-3.4634,-3.4623,-3.4612,-2.521,-2.521,-2.5205,-2.518,-2.5174,-2.4961,-2.4854,-2.479,-2.4567,-2.4329,-2.4097,-2.3901,-2.3816,-2.3816,-2.3868,-2.3907,-2.3896,-2.4054,-2.4135,-2.4229,-2.4346,-2.4364,-2.4399,-2.4478,-2.4545,-2.4442,-2.4503,-2.4596,-2.4645,-2.4572,-2.4445,-2.4284,-2.452,-2.4518,-2.4591,-2.4723,-2.4738,-2.4618,-2.4461,-2.4363,-2.4356,-2.4312,-2.4218,-2.4219,-2.421,-2.4192,-2.4201,-2.4247,-2.4294,-2.4284,-2.4284,-2.4303,-2.4321,-2.433,-2.4375,-2.4464,-2.4393,-2.4401,-2.4426,-2.4312,-2.4219,-2.4191,-2.4238,-2.4349,-2.4604,-2.4321,-2.507,-2.6746,-2.825,-2.9102,-2.9438,-2.9658,-2.9704,-2.9874,-3.0106,-3.0157,-3.0204,-3.0204,-3.0204,-3.0204,-3.0204,-3.0204,-3.0204,-3.0204,-3.0204,-3.0204,-3.0271,-3.0278,-3.0803,-3.1308,-3.2048,-3.2802,-3.3643,-3.4361,-3.4985,-3.5209,-3.519,-3.5182,-3.5182,-3.5182,-3.5182,-3.5182,-3.5182,-3.5166,-3.5168,-3.5117,-3.5075,-3.4983,-3.4898,-3.4839,-3.4758,-3.4666,-3.4623,-3.4612,-3.4612,-2.5225,-2.5264,-2.5233,-2.521,-2.5205,-2.51,-2.5057,-2.4965,-2.4723,-2.4425,-2.4105,-2.4016,-2.3927,-2.3896,-2.3927,-2.3966,-2.3986,-2.4122,-2.4163,-2.4229,-2.433,-2.4399,-2.4476,-2.4567,-2.4642,-2.4618,-2.4665,-2.4681,-2.4692,-2.4738,-2.466,-2.4596,-2.4668,-2.4719,-2.476,-2.4753,-2.4734,-2.4681,-2.4534,-2.4449,-2.4524,-2.4347,-2.4311,-2.4569,-2.4321,-2.432,-2.4373,-2.433,-2.4348,-2.4348,-2.4358,-2.4393,-2.4437,-2.4437,-2.4513,-2.4647,-2.4553,-2.4551,-2.4583,-2.4408,-2.4247,-2.4311,-2.4366,-2.4632,-2.5174,-2.4883,-2.5785,-2.7418,-2.909,-2.9832,-2.9803,-2.9836,-2.9902,-3.0049,-3.0154,-3.0197,-3.0204,-3.0204,-3.0204,-3.0204,-3.0204,-3.0204,-3.0204,-3.0204,-3.0204,-3.0211,-3.0285,-3.0465,-3.1028,-3.1783,-3.2615,-3.3326,-3.4153,-3.4625,-3.5209,-3.5258,-3.519,-3.5182,-3.5182,-3.5182,-3.5182,-3.5182,-3.5182,-3.5176,-3.5126,-3.5056,-3.5011,-3.4946,-3.4878,-3.4798,-3.4727,-3.4645,-3.4623,-3.4612,-3.4612,-2.5258,-2.5282,-2.5244,-2.521,-2.521,-2.521,-2.5138,-2.5018,-2.484,-2.4551,-2.4171,-2.4114,-2.4036,-2.3947,-2.3996,-2.4016,-2.4064,-2.4151,-2.419,-2.4266,-2.4347,-2.4434,-2.4534,-2.4647,-2.476,-2.4772,-2.4842,-2.487,-2.4884,-2.4856,-2.4856,-2.4849,-2.4787,-2.4837,-2.484,-2.4811,-2.4757,-2.47,-2.4567,-2.4501,-2.4591,-2.4391,-2.4302,-2.4586,-2.441,-2.4375,-2.4409,-2.4393,-2.4393,-2.4429,-2.4464,-2.4524,-2.4555,-2.4621,-2.4696,-2.4764,-2.4768,-2.4734,-2.4727,-2.4586,-2.4519,-2.4874,-2.4947,-2.5458,-2.5863,-2.5819,-2.6658,-2.8171,-2.9505,-3.0142,-2.9988,-3.0019,-3.0042,-3.015,-3.0176,-3.0204,-3.0204,-3.0204,-3.0204,-3.0204,-3.0204,-3.0204,-3.023,-3.023,-3.0294,-3.043,-3.0797,-3.1015,-3.145,-3.2319,-3.3462,-3.4121,-3.4758,-3.5096,-3.5386,-3.5297,-3.5198,-3.5182,-3.5182,-3.5182,-3.5182,-3.5182,-3.5157,-3.5134,-3.5073,-3.4992,-3.4908,-3.482,-3.4788,-3.4747,-3.4695,-3.4623,-3.4623,-3.4612,-3.4612,-2.5292,-2.5301,-2.5231,-2.521,-2.521,-2.521,-2.5101,-2.4941,-2.4874,-2.4643,-2.4321,-2.4192,-2.4058,-2.3959,-2.4056,-2.4084,-2.4103,-2.417,-2.4238,-2.4328,-2.4425,-2.4526,-2.4678,-2.4823,-2.4921,-2.4954,-2.5019,-2.5114,-2.515,-2.5114,-2.5126,-2.5088,-2.4974,-2.4888,-2.4908,-2.4902,-2.4895,-2.4861,-2.4639,-2.4586,-2.4569,-2.4426,-2.4375,-2.4461,-2.4437,-2.442,-2.4462,-2.4472,-2.4474,-2.4482,-2.4566,-2.4629,-2.4726,-2.4757,-2.4828,-2.4949,-2.4857,-2.4849,-2.4933,-2.4794,-2.5209,-2.5675,-2.5731,-2.6355,-2.7059,-2.7256,-2.7472,-2.8927,-2.9725,-3.0147,-3.019,-3.019,-3.019,-3.0197,-3.0204,-3.0204,-3.0204,-3.0204,-3.0204,-3.0204,-3.0204,-3.0204,-3.023,-3.0256,-3.034,-3.0623,-3.1149,-3.1623,-3.2101,-3.2863,-3.4056,-3.4693,-3.5228,-3.5315,-3.5463,-3.53,-3.5207,-3.5198,-3.5182,-3.5182,-3.5182,-3.5182,-3.516,-3.51,-3.5029,-3.4936,-3.483,-3.4716,-3.4687,-3.4666,-3.4645,-3.4612,-3.4612,-3.4623,-3.4634,-2.5374,-2.5346,-2.5287,-2.5236,-2.521,-2.521,-2.5075,-2.4902,-2.4808,-2.4673,-2.4503,-2.4375,-2.4248,-2.4183,-2.4134,-2.4142,-2.418,-2.418,-2.4266,-2.4398,-2.4518,-2.4666,-2.4825,-2.498,-2.5088,-2.5113,-2.5199,-2.521,-2.5199,-2.521,-2.521,-2.5168,-2.5106,-2.4974,-2.4874,-2.4867,-2.4961,-2.4935,-2.4818,-2.4746,-2.483,-2.4588,-2.4462,-2.4639,-2.453,-2.4481,-2.4557,-2.4524,-2.45,-2.4508,-2.4582,-2.4647,-2.4718,-2.4734,-2.4778,-2.4936,-2.4955,-2.5272,-2.5907,-2.632,-2.6492,-2.6564,-2.6747,-2.7381,-2.8255,-2.7814,-2.8432,-2.9318,-2.9924,-3.0211,-3.0204,-3.0197,-3.0204,-3.0204,-3.0204,-3.0204,-3.0204,-3.0204,-3.0204,-3.0204,-3.0204,-3.0225,-3.0239,-3.0746,-3.09,-3.1226,-3.1794,-3.2659,-3.323,-3.3694,-3.4557,-3.5117,-3.5563,-3.5574,-3.5558,-3.5397,-3.5308,-3.5304,-3.5239,-3.5182,-3.5182,-3.5182,-3.5157,-3.5126,-3.5001,-3.487,-3.4781,-3.4697,-3.4645,-3.4612,-3.4612,-3.4612,-3.4612,-3.4645,-3.4668,-2.5421,-2.5408,-2.5337,-2.5261,-2.5225,-2.518,-2.5038,-2.4879,-2.4749,-2.4665,-2.4602,-2.453,-2.4479,-2.4408,-2.4356,-2.4321,-2.4375,-2.4384,-2.4384,-2.4518,-2.4626,-2.4746,-2.4907,-2.5044,-2.5101,-2.5168,-2.521,-2.521,-2.521,-2.521,-2.5216,-2.5208,-2.5201,-2.5118,-2.5006,-2.5013,-2.4993,-2.4955,-2.4881,-2.4821,-2.4832,-2.4716,-2.4613,-2.4681,-2.4637,-2.4542,-2.4582,-2.4557,-2.4508,-2.4517,-2.4549,-2.4607,-2.4653,-2.4742,-2.4782,-2.4936,-2.5406,-2.5888,-2.6796,-2.7725,-2.7744,-2.7548,-2.7816,-2.8453,-2.9155,-2.8995,-2.925,-2.983,-3.0168,-3.0211,-3.0204,-3.0204,-3.0211,-3.0211,-3.0218,-3.0218,-3.0225,-3.0232,-3.0232,-3.0225,-3.0246,-3.0253,-3.0439,-3.1104,-3.1588,-3.2019,-3.2488,-3.3402,-3.425,-3.463,-3.4944,-3.539,-3.5708,-3.5674,-3.5615,-3.5508,-3.5437,-3.54,-3.5327,-3.5231,-3.5182,-3.5182,-3.5157,-3.5115,-3.4973,-3.486,-3.4781,-3.4699,-3.4645,-3.4612,-3.4612,-3.4612,-3.4612,-3.4647,-3.471,-2.5518,-2.5499,-2.5375,-2.5292,-2.5266,-2.515,-2.4979,-2.482,-2.4719,-2.4673,-2.4623,-2.4681,-2.4657,-2.4623,-2.4657,-2.466,-2.4645,-2.4645,-2.4676,-2.4681,-2.4708,-2.4818,-2.4907,-2.498,-2.5101,-2.5174,-2.5216,-2.521,-2.521,-2.5216,-2.5208,-2.5212,-2.5204,-2.5193,-2.5157,-2.5122,-2.5062,-2.5043,-2.4955,-2.4897,-2.4889,-2.4782,-2.4727,-2.4753,-2.4668,-2.4607,-2.4607,-2.4557,-2.4568,-2.4582,-2.4629,-2.4684,-2.4772,-2.4896,-2.4916,-2.5253,-2.592,-2.6766,-2.7669,-2.8601,-2.9008,-2.8864,-2.8969,-2.9557,-2.9826,-2.9909,-2.9978,-3.0054,-3.0206,-3.0218,-3.0204,-3.0211,-3.0218,-3.0206,-3.0213,-3.0226,-3.024,-3.0246,-3.0246,-3.0254,-3.0286,-3.0399,-3.0785,-3.1375,-3.2378,-3.3053,-3.3533,-3.411,-3.4869,-3.5197,-3.546,-3.5538,-3.5756,-3.5718,-3.5643,-3.5599,-3.5502,-3.545,-3.5393,-3.5308,-3.5254,-3.5166,-3.5134,-3.5073,-3.4936,-3.4831,-3.472,-3.4658,-3.4634,-3.4612,-3.4612,-3.4612,-3.4612,-3.4699,-3.4791,-2.5557,-2.5511,-2.5415,-2.5341,-2.5266,-2.5063,-2.4927,-2.4861,-2.4801,-2.4787,-2.4806,-2.4782,-2.4782,-2.4811,-2.4753,-2.4704,-2.4689,-2.4696,-2.4772,-2.4808,-2.4858,-2.498,-2.5063,-2.5107,-2.5149,-2.5172,-2.5203,-2.5197,-2.5214,-2.5201,-2.5212,-2.5215,-2.525,-2.5262,-2.5268,-2.5233,-2.5212,-2.516,-2.5061,-2.5031,-2.4962,-2.4889,-2.4861,-2.4811,-2.4775,-2.4757,-2.4742,-2.4684,-2.4692,-2.476,-2.4712,-2.4746,-2.4854,-2.491,-2.5007,-2.5988,-2.6788,-2.765,-2.861,-2.9502,-2.9967,-2.9929,-2.9925,-3.0009,-3.0253,-3.0299,-3.0266,-3.024,-3.0227,-3.0227,-3.024,-3.0233,-3.0247,-3.0273,-3.0267,-3.0279,-3.0298,-3.0316,-3.0322,-3.039,-3.0417,-3.083,-3.1211,-3.2159,-3.3156,-3.3964,-3.4589,-3.5033,-3.5323,-3.5627,-3.5752,-3.5791,-3.5782,-3.5747,-3.5737,-3.5703,-3.5604,-3.5502,-3.5443,-3.5345,-3.525,-3.5168,-3.5119,-3.503,-3.4879,-3.4761,-3.4655,-3.4612,-3.4612,-3.4612,-3.4612,-3.4612,-3.4634,-3.4751,-3.487,-2.5583,-2.5527,-2.5472,-2.5373,-2.5271,-2.5069,-2.4961,-2.496,-2.4844,-2.4825,-2.4902,-2.4914,-2.496,-2.5006,-2.4953,-2.4912,-2.49,-2.4926,-2.4966,-2.5006,-2.5025,-2.5095,-2.5193,-2.521,-2.5203,-2.5214,-2.5214,-2.5208,-2.5206,-2.5217,-2.5204,-2.5247,-2.5306,-2.5302,-2.5293,-2.5298,-2.5298,-2.5259,-2.5208,-2.5182,-2.5126,-2.5037,-2.4993,-2.4962,-2.4936,-2.4922,-2.4908,-2.4797,-2.4832,-2.4888,-2.4808,-2.4823,-2.5009,-2.5156,-2.5766,-2.6725,-2.7634,-2.8517,-2.9385,-2.9971,-3.0296,-3.0404,-3.0404,-3.0348,-3.0304,-3.0305,-3.0279,-3.026,-3.0273,-3.0273,-3.028,-3.0273,-3.031,-3.0339,-3.0356,-3.0367,-3.037,-3.0397,-3.0456,-3.054,-3.083,-3.127,-3.1976,-3.3,-3.3783,-3.4339,-3.4891,-3.5405,-3.5588,-3.5689,-3.5771,-3.5791,-3.5791,-3.5782,-3.5793,-3.577,-3.5658,-3.5556,-3.5489,-3.5383,-3.5246,-3.5134,-3.5075,-3.4955,-3.481,-3.4708,-3.4612,-3.4612,-3.4612,-3.4612,-3.4612,-3.4612,-3.4678,-3.4832,-3.4944,-2.5601,-2.5592,-2.5517,-2.5415,-2.5282,-2.5144,-2.5076,-2.507,-2.4905,-2.4858,-2.4941,-2.5044,-2.5114,-2.5144,-2.5132,-2.5138,-2.5126,-2.5126,-2.5101,-2.5185,-2.5162,-2.5199,-2.5199,-2.521,-2.5214,-2.5201,-2.5214,-2.5203,-2.5201,-2.5217,-2.5225,-2.5287,-2.5297,-2.5307,-2.5303,-2.5308,-2.5308,-2.5284,-2.5274,-2.5264,-2.5248,-2.5201,-2.5121,-2.5103,-2.5037,-2.4961,-2.4929,-2.491,-2.4903,-2.4935,-2.5061,-2.5099,-2.5196,-2.5851,-2.6629,-2.7504,-2.8433,-2.9072,-2.9762,-3.0266,-3.0334,-3.0404,-3.0404,-3.0373,-3.0349,-3.0336,-3.0311,-3.031,-3.0321,-3.035,-3.0344,-3.0364,-3.0373,-3.0416,-3.0462,-3.0467,-3.0496,-3.0568,-3.0694,-3.0886,-3.1325,-3.1823,-3.2755,-3.3735,-3.4294,-3.4738,-3.515,-3.5698,-3.5795,-3.5795,-3.5795,-3.5795,-3.5795,-3.5795,-3.5791,-3.5765,-3.5699,-3.5612,-3.5538,-3.5431,-3.5293,-3.516,-3.502,-3.4879,-3.4759,-3.4687,-3.4612,-3.4612,-3.4612,-3.4612,-3.4612,-3.4612,-3.4701,-3.486,-3.4969,-2.5601,-2.5592,-2.548,-2.5379,-2.5276,-2.515,-2.5082,-2.5076,-2.505,-2.5037,-2.507,-2.5132,-2.5187,-2.5205,-2.521,-2.521,-2.521,-2.521,-2.521,-2.521,-2.521,-2.521,-2.521,-2.5216,-2.5201,-2.5212,-2.5206,-2.5203,-2.5231,-2.5209,-2.5206,-2.5228,-2.5273,-2.5303,-2.5308,-2.5308,-2.5308,-2.5308,-2.5308,-2.5308,-2.5298,-2.5293,-2.5248,-2.5243,-2.5195,-2.5165,-2.5143,-2.5097,-2.5132,-2.5223,-2.5804,-2.5707,-2.5278,-2.6453,-2.7935,-2.9219,-2.9194,-2.9583,-3.0004,-3.0355,-3.0398,-3.0404,-3.0404,-3.0398,-3.0392,-3.0367,-3.0365,-3.0367,-3.0386,-3.0407,-3.0447,-3.0447,-3.0457,-3.0511,-3.0558,-3.0589,-3.0618,-3.0758,-3.0921,-3.1352,-3.1806,-3.2594,-3.3522,-3.4225,-3.4769,-3.5173,-3.5484,-3.5795,-3.5795,-3.5795,-3.5795,-3.5795,-3.5795,-3.5795,-3.5795,-3.5782,-3.5737,-3.5658,-3.5574,-3.5457,-3.533,-3.5124,-3.4936,-3.4839,-3.4727,-3.4645,-3.4612,-3.4612,-3.4612,-3.4612,-3.4623,-3.4623,-3.4678,-3.4821,-3.4953,-2.5601,-2.5573,-2.5472,-2.5415,-2.5337,-2.5223,-2.5187,-2.5157,-2.5151,-2.5132,-2.5151,-2.5193,-2.521,-2.521,-2.521,-2.521,-2.521,-2.521,-2.521,-2.521,-2.5216,-2.521,-2.521,-2.5208,-2.5212,-2.5209,-2.5209,-2.5223,-2.5255,-2.522,-2.5217,-2.5248,-2.5284,-2.5293,-2.5293,-2.5308,-2.5308,-2.5308,-2.5308,-2.5327,-2.5327,-2.5303,-2.5308,-2.5308,-2.5308,-2.5308,-2.5293,-2.5266,-2.5517,-2.596,-2.6647,-2.6897,-2.6867,-2.761,-2.8836,-2.9729,-2.9952,-2.9825,-3.0232,-3.0404,-3.0404,-3.0404,-3.0404,-3.0398,-3.0398,-3.0379,-3.0419,-3.0425,-3.0477,-3.0525,-3.0557,-3.0565,-3.0578,-3.0637,-3.0645,-3.0661,-3.0668,-3.073,-3.1138,-3.1701,-3.2311,-3.313,-3.4031,-3.4866,-3.5309,-3.5445,-3.5775,-3.5795,-3.5795,-3.5795,-3.5795,-3.5795,-3.5795,-3.5795,-3.5795,-3.5782,-3.576,-3.5684,-3.5602,-3.5418,-3.5258,-3.5037,-3.483,-3.4769,-3.4708,-3.4634,-3.4612,-3.4612,-3.4612,-3.4612,-3.4623,-3.4645,-3.472,-3.4821,-3.4988,-2.5601,-2.5595,-2.5513,-2.5456,-2.5402,-2.5312,-2.5253,-2.5197,-2.5205,-2.5205,-2.5185,-2.5205,-2.521,-2.521,-2.521,-2.521,-2.521,-2.521,-2.521,-2.5216,-2.5208,-2.5208,-2.5212,-2.5239,-2.5248,-2.5249,-2.5249,-2.5303,-2.5355,-2.5313,-2.5284,-2.5332,-2.5313,-2.5308,-2.5303,-2.5293,-2.5308,-2.5308,-2.5327,-2.5404,-2.5385,-2.5322,-2.5308,-2.5308,-2.5308,-2.5308,-2.5308,-2.5553,-2.5923,-2.6615,-2.7437,-2.7975,-2.8327,-2.8837,-2.9362,-3.0167,-3.0315,-3.0251,-3.0404,-3.0404,-3.0404,-3.0404,-3.0404,-3.041,-3.039,-3.0431,-3.0449,-3.0516,-3.0557,-3.0614,-3.0642,-3.0656,-3.0683,-3.0706,-3.071,-3.0729,-3.0729,-3.0849,-3.1467,-3.2105,-3.2924,-3.3759,-3.4575,-3.5406,-3.562,-3.5756,-3.5795,-3.5795,-3.5795,-3.5795,-3.5795,-3.5795,-3.5795,-3.5795,-3.5795,-3.5786,-3.5769,-3.5718,-3.5623,-3.5392,-3.5181,-3.5025,-3.4898,-3.4761,-3.4699,-3.4645,-3.4612,-3.4612,-3.4612,-3.4623,-3.4689,-3.474,-3.4802,-3.4936,-3.5083,-2.5601,-2.5592,-2.5476,-2.5423,-2.5373,-2.5285,-2.5208,-2.521,-2.521,-2.521,-2.521,-2.521,-2.521,-2.521,-2.521,-2.521,-2.521,-2.5216,-2.521,-2.521,-2.5245,-2.5239,-2.5247,-2.5308,-2.5357,-2.535,-2.535,-2.5371,-2.5418,-2.5394,-2.5399,-2.5467,-2.5398,-2.5382,-2.5365,-2.5393,-2.5452,-2.5486,-2.5654,-2.5788,-2.6058,-2.5885,-2.5346,-2.5308,-2.5308,-2.5308,-2.5462,-2.6019,-2.6346,-2.6986,-2.8005,-2.8986,-2.9506,-2.9813,-3.0135,-3.025,-3.0404,-3.0404,-3.0404,-3.0404,-3.0404,-3.0414,-3.0419,-3.0419,-3.0428,-3.0472,-3.0506,-3.0556,-3.0618,-3.0671,-3.0707,-3.0697,-3.0701,-3.0694,-3.071,-3.0787,-3.0826,-3.139,-3.205,-3.2827,-3.3662,-3.4478,-3.527,-3.5717,-3.5717,-3.5795,-3.5795,-3.5795,-3.5795,-3.5795,-3.5795,-3.5795,-3.5795,-3.5795,-3.5795,-3.5791,-3.5773,-3.5727,-3.5649,-3.5445,-3.5246,-3.5108,-3.4972,-3.4841,-3.472,-3.4645,-3.4634,-3.4612,-3.4645,-3.4658,-3.4791,-3.486,-3.4936,-3.5072,-3.5273]},{"header":{"parameterUnit":"m.s-1","parameterCategory":1,"la1":31.0,"la2":29.5877,"lo1":-88.7671,"lo2":-86.6584,"dy":0.0162,"dx":0.0185,"nx":115,"ny":88,"refTime":"2024-06-29T06:00:00:Z","depth":0,"parameterNumber":3,"parameterNumberName":"V-component_of_WINDS"},"data":[0.0,0.0,0.0,0.0,0.0,0.0,0.0,0.0,0.0,0.0,0.0,0.0,0.0,0.0,0.0,0.0,0.0,0.0,0.0,0.0,0.0,0.0,0.0,0.0,0.0,0.0,0.0,0.0,0.0,0.0,0.0,0.0,0.0,0.0,0.0,0.0,0.0,0.0,0.0,0.0,0.0,0.0,0.0,0.0,0.0,0.0,0.0,0.0,0.0,0.0,0.0,0.0,0.0,0.0,0.0,0.0,0.0,0.0,0.0,0.0,0.0,0.0,0.0,0.0,0.0,0.0,0.0,0.0,0.0,0.0,0.0,0.0,0.0,0.0,0.0,0.0,0.0,0.0,0.0,0.0,0.0,0.0,0.0,0.0,0.0,0.0,0.0,0.0,0.0,0.0,0.0,0.0,0.0,0.0,0.0,0.0,0.0,0.0,0.0,0.0,0.0,0.0,0.0,0.0,0.0,0.0,0.0,0.0,0.0,0.0,0.0,0.0,0.0,0.0,0.0,0.0,0.0,0.0,0.0,0.0,0.0,0.0,0.0,0.0,0.0,0.0,0.0,0.0,0.0,0.0,0.0,0.0,0.0,0.0,0.0,0.0,0.0,0.0,0.0,0.0,0.0,0.0,0.0,0.0,0.0,0.0,0.0,0.0,0.0,0.0,0.0,0.0,0.0,0.0,0.0,0.0,0.0,0.0,0.0,0.0,0.0,0.0,0.0,0.0,0.0,0.0,0.0,0.0,0.0,0.0,0.0,0.0,0.0,0.0,0.0,0.0,0.0,0.0,0.0,0.0,0.0,0.0,0.0,0.0,0.0,0.0,0.0,0.0,0.0,0.0,0.0,0.0,0.0,0.0,0.0,0.0,0.0,0.0,0.0,0.0,0.0,0.0,0.0,0.0,0.0,0.0,0.0,0.0,0.0,0.0,0.0,0.0,0.0,0.0,0.0,0.0,0.0,0.0,0.0,0.0,0.0,0.0,0.0,0.0,0.0,0.0,0.0,0.0,0.0,0.0,0.0,0.0,0.0,0.0,0.0,0.0,0.0,0.0,0.0,0.0,0.0,0.0,0.0,0.0,0.0,0.0,0.0,0.0,0.0,0.0,0.0,0.0,0.0,0.0,0.0,0.0,0.0,0.0,0.0,0.0,0.0,0.0,0.0,0.0,0.0,0.0,0.0,0.0,0.0,0.0,0.0,0.0,0.0,0.0,0.0,0.0,0.0,0.0,0.0,0.0,0.0,0.0,0.0,0.0,0.0,0.0,0.0,0.0,0.0,0.0,0.0,0.0,0.0,0.0,0.0,0.0,0.0,0.0,0.0,0.0,0.0,0.0,0.0,0.0,0.0,0.0,0.0,0.0,0.0,0.0,0.0,0.0,0.0,0.0,0.0,0.0,0.0,0.0,0.0,0.0,0.0,0.0,0.0,0.0,0.0,0.0,0.0,0.0,0.0,0.0,0.0,0.0,0.0,0.0,0.0,0.0,0.0,0.0,0.0,0.0,0.0,0.0,0.0,0.0,0.0,0.0,0.0,0.0,0.0,0.0,0.0,0.0,0.0,0.0,0.0,0.0,0.0,0.0,0.0,0.0,0.0,0.0,0.0,0.0,0.0,0.0,0.0,0.0,0.0,0.0,0.0,0.0,0.0,0.0,0.0,0.0,0.0,0.0,0.0,0.0,0.0,0.0,0.0,0.0,0.0,0.0,0.0,0.0,0.0,0.0,0.0,0.0,0.0,0.0,0.0,0.0,0.0,0.0,0.0,0.0,0.0,0.0,0.0,0.0,0.0,0.0,0.0,0.0,0.0,0.0,0.0,0.0,0.0,0.0,0.0,0.0,0.0,0.0,0.0,0.0,0.0,0.0,0.0,0.0,0.0,0.0,0.0,0.0,0.0,0.0,0.0,0.0,0.0,0.0,0.0,0.0,0.0,0.0,0.0,0.0,0.0,0.0,0.0,0.0,0.0,0.0,0.0,0.0,0.0,0.0,0.0,0.0,0.0,0.0,0.0,0.0,0.0,0.0,0.0,0.0,0.0,0.0,0.0,0.0,0.0,0.0,0.0,0.0,0.0,0.0,0.0,0.0,0.0,0.0,0.0,0.0,0.0,0.0,0.0,0.0,0.0,0.0,0.0,0.0,0.0,0.0,0.0,0.0,0.0,0.0,0.0,0.0,0.0,0.0,0.0,0.0,0.0,0.0,0.0,0.0,0.0,0.0,0.0,0.0,0.0,0.0,0.0,0.0,0.0,0.0,0.0,0.0,0.0,0.0,0.0,0.0,0.0,0.0,0.0,0.0,0.0,0.0,0.0,0.0,0.0,0.0,0.0,0.0,0.0,0.0,0.0,0.0,0.0,0.0,0.0,0.0,0.0,0.0,0.0,0.0,0.0,0.0,0.0,0.0,0.0,0.0,0.0,0.0,0.0,0.0,0.0,0.0,0.0,0.0,0.0,0.0,0.0,0.0,0.0,0.0,0.0,0.0,0.0,0.0,0.0,0.0,0.0,0.0,0.0,0.0,0.0,0.0,0.0,0.0,0.0,0.0,0.0,0.0,0.0,0.0,0.0,0.0,0.0,0.0,0.0,0.0,0.0,0.0,0.0,0.0,0.0,0.0,0.0,0.0,0.0,0.0,0.0,0.0,0.0,0.0,0.0,0.0,0.0,0.0,0.0,0.0,0.0,0.0,0.0,0.0,0.0,0.0,0.0,0.0,0.0,0.0,0.0,0.0,0.0,0.0,0.0,0.0,0.0,0.0,0.0,0.0,0.0,0.0,0.0,0.0,0.0,0.0,0.0,0.0,0.0,0.0,0.0,0.0,0.0,0.0,0.0,0.0,0.0,0.0,0.0,0.0,0.0,0.0,0.0,0.0,0.0,0.0,0.0,0.0,0.0,0.0,0.0,0.0,0.0,0.0,0.0,0.0,0.0,0.0,0.0,0.0,0.0,0.0,0.0,0.0,0.0,0.0,0.0,0.0,0.0,0.0,0.0,0.0,0.0,0.0,0.0,0.0,0.0,0.0,0.0,0.0,0.0,0.0,0.0,0.0,0.0,0.0,0.0,0.0,0.0,0.0,0.0,0.0,0.0,0.0,0.0,0.0,0.0,0.0,0.0,0.0,0.0,0.0,0.0,0.0,0.0,0.0,0.0,0.0,0.0,0.0,0.0,0.0,0.0,0.0,0.0,0.0,0.0,0.0,0.0,0.0,0.0,0.0,0.0,0.0,0.0,0.0,0.0,0.0,0.0,0.0,0.0,0.0,0.0,0.0,0.0,0.0,0.0,0.0,0.0,0.0,0.0,0.0,0.0,0.0,0.0,0.0,0.0,0.0,0.0,0.0,0.0,0.0,0.0,0.0,0.0,0.0,0.0,0.0,0.0,0.0,0.0,0.0,0.0,0.0,0.0,0.0,0.0,0.0,0.0,0.0,0.0,0.0,0.0,0.0,0.0,0.0,0.0,0.0,0.0,0.0,0.0,0.0,0.0,0.0,0.0,0.0,0.0,0.0,0.0,0.0,0.0,0.0,0.0,0.0,0.0,0.0,0.0,0.0,0.0,0.0,0.0,0.0,0.0,0.0,0.0,0.0,0.0,0.0,0.0,0.0,0.0,0.0,0.0,0.0,0.0,0.0,0.0,0.0,0.0,0.0,0.0,0.0,0.0,0.0,0.0,0.0,0.0,0.0,0.0,0.0,0.0,0.0,0.0,0.0,0.0,0.0,0.0,0.0,0.0,0.0,0.0,0.0,0.0,0.0,0.0,0.0,0.0,0.0,0.0,0.0,0.0,0.0,0.0,0.0,0.0,0.0,0.0,0.0,0.0,0.0,0.0,0.0,0.0,0.0,0.0,0.0,0.0,0.0,0.0,0.0,0.0,0.0,0.0,0.0,0.0,0.0,0.0,0.0,0.0,0.0,0.0,0.0,0.0,0.0,0.0,0.0,0.0,0.0,0.0,0.0,0.0,0.0,0.0,0.0,0.0,0.0,0.0,0.0,0.0,0.0,0.0,0.0,0.0,0.0,0.0,0.0,0.0,0.0,0.0,0.0,0.0,0.0,0.0,0.0,0.0,0.0,0.0,0.0,0.0,0.0,0.0,0.0,0.0,0.0,0.0,0.0,0.0,0.0,0.0,0.0,0.0,0.0,0.0,0.0,0.0,0.0,0.0,0.0,0.0,0.0,0.0,0.0,0.0,0.0,0.0,0.0,0.0,0.0,0.0,0.0,0.0,0.0,0.0,0.0,0.0,0.0,0.0,0.0,0.0,0.0,-0.3311,0.0,0.0,0.0,0.0,0.0,0.0,0.0,0.0,0.0,0.0,0.0,0.0,0.0,0.0,0.0,0.0,0.0,0.0,0.0,0.0,0.0,0.0,0.0,0.0,0.0,0.0,0.0,0.0,0.0,0.0,0.0,0.0,0.0,0.0,0.0,0.0,0.0,0.0,0.0,0.0,0.0,0.0,0.0,0.0,0.0,0.0,0.0,0.0,0.0,0.0,0.0,0.0,0.0,0.0,0.0,0.0,0.0,0.0,0.0,0.0,0.0,0.0,0.0,0.0,0.0,0.0,0.0,0.0,0.0,0.0,0.0,0.0,0.0,0.0,0.0,0.0,0.0,0.0,0.0,0.0,0.0,0.0,0.0,0.0,0.0,0.0,0.0,0.0,0.0,0.0,0.0,0.0,0.0,0.0,0.0,0.0,0.0,0.0,0.0,0.0,0.0,0.0,0.0,0.0,0.0,0.0,0.0,0.0,0.0,0.0,-0.4107,-0.4004,-0.3931,-0.3716,-0.3328,0.0,0.0,0.0,0.0,0.0,0.0,0.0,0.0,0.0,0.0,0.0,0.0,0.0,0.0,0.0,0.0,0.0,0.0,0.0,0.0,0.0,0.0,0.0,0.0,0.0,0.0,0.0,0.0,0.0,0.0,0.0,0.0,0.0,0.0,0.0,0.0,0.0,0.0,0.0,0.0,0.0,0.0,0.0,0.0,0.0,0.0,0.0,0.0,0.0,0.0,0.0,0.0,0.0,0.0,0.0,0.0,0.0,0.0,0.0,0.0,0.0,0.0,0.0,0.0,0.0,0.0,0.0,0.0,0.0,0.0,0.0,0.0,0.0,0.0,0.0,0.0,0.0,0.0,0.0,0.0,0.0,0.0,0.0,0.0,0.0,0.0,0.0,0.0,0.0,0.0,0.0,0.0,0.0,0.0,0.0,0.0,0.0,0.0,0.0,0.0,0.0,0.0,0.0,0.0,0.0,0.0,0.0,0.0,0.0,0.0,0.0,0.0,-0.4033,-0.379,-0.3423,0.0,0.0,0.0,0.0,0.0,0.0,0.0,0.0,0.0,0.0,0.0,0.0,0.0,0.0,0.0,0.0,0.0,0.0,0.0,0.0,0.0,0.0,0.0,0.0,0.0,0.0,0.0,0.0,0.0,0.0,0.0,0.0,0.0,0.0,0.0,0.0,0.0,0.0,0.0,0.0,0.0,0.0,0.0,0.0,0.0,0.0,0.0,0.0,0.0,0.0,0.0,0.0,0.0,0.0,0.0,0.0,0.0,0.0,0.0,0.0,0.0,0.0,0.0,0.0,0.0,0.0,0.0,0.0,0.0,0.0,0.0,0.0,0.0,0.0,0.0,0.0,0.0,0.0,0.0,0.0,0.0,0.0,0.0,0.0,0.0,0.0,0.0,0.0,0.0,0.0,0.0,0.0,0.0,0.0,0.0,0.0,0.0,0.0,0.0,0.0,0.0,0.0,0.0,0.0,0.0,0.0,0.0,0.0,0.0,0.0,-0.4223,-0.4449,-0.4218,0.0,-0.3743,0.0,0.0,0.0,0.0,0.0,0.0,0.0,0.0,0.0,0.0,0.0,0.0,0.0,0.0,0.0,0.0,0.0,0.0,0.0,0.0,0.0,0.0,0.0,0.0,0.0,0.0,0.0,0.0,0.0,0.0,0.0,0.0,0.0,0.0,0.0,0.0,0.0,0.0,0.0,0.0,0.0,0.0,0.0,0.0,0.0,0.0,0.0,0.0,0.0,0.0,0.0,0.0,0.0,0.0,0.0,0.0,0.0,0.0,0.0,0.0,0.0,0.0,0.0,0.0,0.0,0.0,0.0,0.0,0.0,0.0,0.0,0.0,0.0,0.0,0.0,0.0,0.0,0.0,0.0,0.0,0.0,0.0,0.0,0.0,0.0,0.0,0.0,0.0,0.0,0.0,0.0,0.0,0.0,0.0,0.0,0.0,0.0,0.0,0.0,0.0,0.0,0.0,0.0,0.0,0.0,0.0,0.0,0.0,0.0,0.0,0.0,-0.4382,-0.4002,-0.3776,0.0,0.0,0.0,0.0,0.0,0.0,0.0,0.0,0.0,0.0,0.0,0.0,0.0,0.0,0.0,0.0,0.0,0.0,0.0,0.0,0.0,0.0,0.0,0.0,0.0,0.0,0.0,0.0,0.0,0.0,0.0,0.0,0.0,0.0,0.0,0.0,0.0,0.0,0.0,0.0,0.0,0.0,0.0,0.0,0.0,0.0,0.0,0.0,0.0,0.0,0.0,0.0,0.0,0.0,0.0,0.0,0.0,0.0,0.0,0.0,0.0,0.0,0.0,0.0,0.0,0.0,0.0,0.0,0.0,0.0,0.0,0.0,0.0,0.0,0.0,0.0,0.0,0.0,0.0,0.0,0.0,0.0,0.0,0.0,0.0,0.0,0.0,0.0,0.0,0.0,0.0,0.0,0.0,0.0,0.0,0.0,0.0,0.0,0.0,0.0,0.0,0.0,0.0,0.0,0.0,0.0,0.0,0.0,0.0,0.0,-0.4709,0.0,-0.4376,-0.4001,-0.3737,-0.3639,0.0,0.0,0.0,0.0,0.0,0.0,0.0,0.0,0.0,0.0,0.0,0.0,0.0,0.0,0.0,0.0,0.0,0.0,0.0,0.0,0.0,0.0,0.0,0.0,0.0,0.0,0.0,0.0,0.0,0.0,0.0,0.0,0.0,0.0,0.0,0.0,0.0,0.0,0.0,0.0,0.0,0.0,0.0,0.0,0.0,0.0,0.0,0.0,0.0,0.0,0.0,0.0,0.0,0.0,0.0,0.0,0.0,0.0,0.0,0.0,0.0,0.0,0.0,0.0,0.0,0.0,0.0,0.0,0.0,0.0,0.0,0.0,0.0,0.0,0.0,0.0,0.0,0.0,0.0,0.0,0.0,0.0,0.0,0.0,0.0,0.0,0.0,0.0,0.0,0.0,0.0,0.0,0.0,0.0,0.0,0.0,0.0,0.0,0.0,0.0,0.0,0.0,0.0,0.0,0.0,0.0,0.0,0.0,0.0,-0.4806,-0.441,-0.4591,-0.4369,-0.4076,0.0,0.0,0.0,0.0,0.0,0.0,0.0,0.0,0.0,0.0,0.0,0.0,0.0,0.0,0.0,0.0,0.0,0.0,0.0,0.0,0.0,0.0,0.0,0.0,0.0,0.0,0.0,0.0,0.0,0.0,0.0,0.0,0.0,0.0,0.0,0.0,0.0,0.0,0.0,0.0,0.0,0.0,0.0,0.0,0.0,0.0,0.0,0.0,0.0,0.0,0.0,0.0,0.0,0.0,0.0,0.0,0.0,0.0,0.0,0.0,0.0,0.0,0.0,0.0,0.0,0.0,0.0,0.0,0.0,0.0,0.0,0.0,0.0,0.0,0.0,0.0,0.0,0.0,0.0,0.0,0.0,0.0,0.0,0.0,0.0,0.0,0.0,0.0,0.0,0.0,0.0,0.0,0.0,0.0,0.0,0.0,0.0,0.0,0.0,0.0,0.0,0.0,0.0,0.0,0.0,0.0,0.0,0.0,0.0,-0.481,-0.448,-0.4424,0.0,-0.4315,-0.3946,0.0,0.0,0.0,0.0,0.0,0.0,0.0,0.0,0.0,0.0,0.0,0.0,0.0,0.0,0.0,0.0,0.0,0.0,0.0,0.0,0.0,0.0,0.0,0.0,0.0,0.0,0.0,0.0,0.0,0.0,0.0,0.0,0.0,0.0,0.0,0.0,0.0,0.0,0.0,0.0,0.0,0.0,0.0,0.0,0.0,0.0,0.0,0.0,0.0,0.0,0.0,0.0,0.0,0.0,0.0,0.0,0.0,0.0,0.0,0.0,0.0,0.0,0.0,0.0,0.0,0.0,0.0,0.0,0.0,0.0,0.0,0.0,0.0,0.0,0.0,0.0,0.0,0.0,0.0,0.0,0.0,0.0,0.0,0.0,0.0,0.0,0.0,0.0,0.0,0.0,0.0,0.0,0.0,0.0,0.0,0.0,0.0,0.0,0.0,0.0,0.0,0.0,0.0,0.0,0.0,0.0,0.0,0.0,0.0,-0.4471,0.0,-0.4748,0.0,-0.4341,-0.3913,0.0,0.0,0.0,0.0,0.0,0.0,0.0,0.0,0.0,0.0,0.0,0.0,0.0,0.0,0.0,0.0,0.0,0.0,0.0,0.0,0.0,0.0,0.0,0.0,0.0,0.0,0.0,0.0,0.0,0.0,0.0,0.0,0.0,0.0,0.0,0.0,0.0,0.0,0.0,0.0,0.0,0.0,0.0,0.0,0.0,0.0,0.0,0.0,0.0,0.0,0.0,0.0,0.0,0.0,0.0,0.0,0.0,0.0,0.0,0.0,0.0,0.0,0.0,0.0,0.0,0.0,0.0,0.0,0.0,0.0,0.0,0.0,0.0,0.0,0.0,0.0,0.0,0.0,0.0,0.0,0.0,0.0,0.0,0.0,0.0,0.0,0.0,0.0,0.0,0.0,0.0,0.0,0.0,0.0,0.0,0.0,0.0,0.0,0.0,0.0,0.0,0.0,0.0,0.0,0.0,0.0,0.0,0.0,-0.4672,-0.4802,-0.5283,-0.5237,-0.4634,-0.4461,-0.4029,0.0,0.0,0.0,0.0,0.0,0.0,0.0,0.0,0.0,0.0,0.0,0.0,0.0,0.0,0.0,0.0,0.0,0.0,0.0,0.0,0.0,0.0,0.0,0.0,0.0,0.0,0.0,0.0,0.0,0.0,0.0,0.0,0.0,0.0,0.0,0.0,0.0,0.0,0.0,0.0,0.0,0.0,0.0,0.0,0.0,0.0,0.0,0.0,0.0,0.0,0.0,0.0,0.0,0.0,0.0,0.0,0.0,0.0,0.0,0.0,0.0,0.0,0.0,0.0,0.0,0.0,0.0,0.0,0.0,0.0,0.0,0.0,0.0,0.0,0.0,0.0,0.0,0.0,0.0,0.0,0.0,0.0,0.0,0.0,0.0,0.0,0.0,0.0,0.0,0.0,0.0,0.0,0.0,0.0,0.0,0.0,0.0,0.0,0.0,0.0,0.0,0.0,0.0,0.0,0.0,0.0,0.0,0.0,0.0,-0.4357,-0.4798,-0.5066,-0.5059,-0.4594,-0.4164,0.0,0.0,0.0,0.0,0.0,0.0,0.0,0.0,0.0,0.0,0.0,0.0,0.0,0.0,0.0,0.0,0.0,0.0,0.0,0.0,0.0,0.0,0.0,0.0,0.0,0.0,0.0,0.0,0.0,0.0,0.0,0.0,0.0,0.0,0.0,0.0,0.0,0.0,0.0,0.0,0.0,0.0,0.0,0.0,0.0,0.0,0.0,0.0,0.0,0.0,0.0,0.0,0.0,0.0,0.0,0.0,0.0,0.0,0.0,0.0,0.0,0.0,0.0,0.0,0.0,0.0,0.0,0.0,0.0,0.0,0.0,0.0,0.0,0.0,0.0,0.0,0.0,0.0,0.0,0.0,0.0,0.0,0.0,0.0,0.0,0.0,0.0,0.0,0.0,0.0,0.0,0.0,0.0,0.0,0.0,0.0,0.0,0.0,0.0,0.0,0.0,0.0,0.0,0.0,0.0,0.0,0.0,0.0,0.0,-0.4676,-0.5103,-0.5391,-0.5404,-0.4858,-0.4403,-0.407,0.0,0.0,0.0,0.0,0.0,0.0,0.0,0.0,0.0,0.0,0.0,0.0,0.0,0.0,0.0,0.0,0.0,0.0,0.0,0.0,0.0,0.0,0.0,0.0,0.0,0.0,0.0,0.0,0.0,0.0,0.0,0.0,0.0,0.0,0.0,0.0,0.0,0.0,0.0,0.0,0.0,0.0,0.0,0.0,0.0,0.0,0.0,0.0,0.0,0.0,0.0,0.0,0.0,0.0,0.0,0.0,0.0,0.0,0.0,0.0,0.0,0.0,0.0,0.0,0.0,0.0,0.0,0.0,0.0,0.0,0.0,0.0,0.0,0.0,0.0,0.0,0.0,0.0,0.0,0.0,0.0,0.0,0.0,0.0,0.0,0.0,0.0,0.0,0.0,0.0,0.0,0.0,0.0,0.0,0.0,0.0,0.0,0.0,0.0,0.0,0.0,0.0,0.0,0.0,0.0,0.0,0.0,0.0,-0.5507,-0.6082,-0.6151,-0.567,-0.5228,-0.4706,0.0,0.0,0.0,0.0,0.0,0.0,0.0,0.0,0.0,0.0,0.0,0.0,0.0,0.0,0.0,0.0,0.0,0.0,0.0,0.0,0.0,0.0,0.0,0.0,0.0,0.0,0.0,0.0,0.0,0.0,0.0,0.0,0.0,0.0,0.0,0.0,0.0,0.0,0.0,0.0,0.0,0.0,0.0,0.0,0.0,0.0,0.0,0.0,0.0,0.0,0.0,0.0,0.0,0.0,0.0,0.0,0.0,0.0,0.0,0.0,0.0,0.0,0.0,0.0,0.0,0.0,0.0,0.0,0.0,0.0,0.0,0.0,0.0,0.0,0.0,0.0,0.0,0.0,0.0,0.0,0.0,0.0,0.0,0.0,0.0,0.0,0.0,0.0,0.0,0.0,0.0,0.0,0.0,0.0,0.0,0.0,0.0,0.0,0.0,0.0,0.0,0.0,0.0,0.0,0.0,0.0,0.0,0.0,0.0,-0.5772,-0.6881,-0.7094,-0.6279,-0.5537,-0.4969,0.0,0.0,0.0,0.0,0.0,0.0,0.0,0.0,0.0,0.0,0.0,0.0,0.0,0.0,0.0,0.0,0.0,0.0,0.0,0.0,0.0,0.0,0.0,0.0,0.0,0.0,0.0,0.0,0.0,0.0,0.0,0.0,0.0,0.0,0.0,0.0,0.0,0.0,0.0,0.0,0.0,0.0,0.0,0.0,0.0,0.0,0.0,0.0,0.0,0.0,0.0,0.0,0.0,0.0,0.0,0.0,0.0,0.0,0.0,0.0,0.0,0.0,0.0,0.0,0.0,0.0,0.0,0.0,0.0,0.0,0.0,0.0,0.0,0.0,0.0,0.0,0.0,0.0,0.0,0.0,0.0,0.0,0.0,0.0,0.0,0.0,0.0,0.0,0.0,0.0,0.0,0.0,0.0,0.0,0.0,0.0,0.0,0.0,0.0,0.0,0.0,0.0,0.0,0.0,0.0,0.0,0.0,0.0,-0.6401,-0.6415,-0.7501,-0.7702,-0.6807,-0.6178,-0.5488,0.0,0.0,0.0,0.0,0.0,0.0,0.0,0.0,0.0,0.0,0.0,0.0,0.0,0.0,0.0,0.0,0.0,0.0,0.0,0.0,0.0,0.0,0.0,0.0,0.0,0.0,0.0,0.0,0.0,0.0,0.0,0.0,0.0,0.0,0.0,0.0,0.0,0.0,0.0,0.0,0.0,0.0,0.0,0.0,0.0,0.0,0.0,0.0,0.0,0.0,0.0,0.0,0.0,0.0,0.0,0.0,0.0,0.0,0.0,0.0,0.0,0.0,0.0,0.0,0.0,0.0,0.0,0.0,0.0,0.0,0.0,0.0,0.0,0.0,0.0,0.0,0.0,0.0,0.0,0.0,0.0,0.0,0.0,0.0,0.0,0.0,0.0,0.0,0.0,0.0,0.0,0.0,0.0,0.0,0.0,0.0,0.0,0.0,0.0,0.0,0.0,0.0,0.0,0.0,0.0,0.0,0.0,0.0,-0.7222,-0.7291,-0.8047,-0.8065,-0.7314,-0.6859,-0.6058,0.0,0.0,0.0,0.0,0.0,0.0,0.0,0.0,0.0,0.0,0.0,0.0,0.0,0.0,0.0,0.0,0.0,0.0,0.0,0.0,0.0,0.0,0.0,0.0,0.0,0.0,0.0,0.0,0.0,0.0,0.0,0.0,0.0,0.0,0.0,0.0,0.0,0.0,0.0,0.0,0.0,0.0,0.0,0.0,0.0,0.0,0.0,0.0,0.0,0.0,0.0,0.0,0.0,0.0,0.0,0.0,0.0,0.0,0.0,0.0,0.0,0.0,0.0,0.0,0.0,0.0,0.0,0.0,0.0,0.0,0.0,0.0,0.0,0.0,0.0,0.0,0.0,0.0,0.0,0.0,0.0,0.0,0.0,0.0,0.0,0.0,0.0,0.0,0.0,0.0,0.0,0.0,0.0,0.0,0.0,0.0,0.0,0.0,0.0,0.0,0.0,0.0,0.0,0.0,0.0,0.0,0.0,0.0,-0.7826,-0.7842,-0.8514,-0.8518,-0.778,-0.6802,-0.5902,0.0,0.0,0.0,0.0,0.0,0.0,0.0,0.0,0.0,0.0,0.0,0.0,0.0,0.0,0.0,0.0,0.0,0.0,0.0,0.0,0.0,0.0,0.0,0.0,0.0,0.0,0.0,0.0,0.0,0.0,0.0,0.0,0.0,0.0,0.0,0.0,0.0,0.0,0.0,0.0,0.0,0.0,0.0,0.0,0.0,0.0,0.0,0.0,-0.1393,0.0,0.0,0.0,0.0,0.0,0.0,0.0,0.0,0.0,0.0,0.0,0.0,0.0,0.0,0.0,0.0,0.0,0.0,0.0,0.0,0.0,0.0,0.0,0.0,0.0,0.0,0.0,0.0,0.0,0.0,0.0,0.0,0.0,0.0,0.0,0.0,0.0,0.0,0.0,0.0,0.0,0.0,0.0,0.0,0.0,0.0,0.0,0.0,0.0,0.0,0.0,0.0,0.0,0.0,0.0,0.0,0.0,0.0,0.0,-0.8274,-0.8469,-0.899,-0.9004,-0.8406,-0.7313,-0.6225,0.0,0.0,0.0,0.0,0.0,0.0,0.0,0.0,0.0,0.0,0.0,0.0,0.0,0.0,0.0,0.0,0.0,0.0,0.0,0.0,0.0,0.0,0.0,0.0,0.0,0.0,0.0,0.0,0.0,0.0,0.0,0.0,0.0,0.0,0.0,0.0,0.0,0.0,0.0,0.0,0.0,0.0,0.0,0.0,0.0,0.0,0.0,0.0,0.0,0.0,0.0,0.0,0.0,0.0,0.0,0.0,0.0,0.0,0.0,0.0,0.0,0.0,0.0,0.0,0.0,0.0,0.0,0.0,0.0,0.0,0.0,0.0,0.0,0.0,0.0,0.0,0.0,0.0,0.0,0.0,0.0,0.0,0.0,0.0,0.0,0.0,0.0,0.0,0.0,0.0,0.0,0.0,0.0,0.0,0.0,0.0,0.0,0.0,0.0,0.0,0.0,0.0,0.0,0.0,0.0,0.0,0.0,-0.8033,-0.8668,-0.9189,-0.9395,-0.9379,-0.9099,-0.7918,-0.6638,-0.5348,0.0,0.0,0.0,0.0,0.0,0.0,0.0,0.0,0.0,0.0,0.0,0.0,0.0,0.0,0.0,0.0,0.0,0.0,0.0,0.0,0.0,0.0,0.0,0.0,0.0,0.0,0.0,0.0,0.0,0.0,0.0,0.0,0.0,0.0,0.0,0.0,0.0,0.0,-0.1183,-0.1434,0.0,0.0,0.0,0.0,0.0,0.0,0.0,0.0,-0.2004,0.0,0.0,0.0,0.0,0.0,0.0,0.0,0.0,0.0,0.0,0.0,0.0,0.0,0.0,0.0,0.0,0.0,0.0,0.0,0.0,0.0,0.0,0.0,0.0,0.0,0.0,0.0,0.0,0.0,0.0,0.0,0.0,0.0,0.0,0.0,0.0,0.0,0.0,0.0,0.0,0.0,0.0,0.0,0.0,0.0,0.0,0.0,0.0,0.0,0.0,0.0,0.0,0.0,0.0,0.0,0.0,-0.8175,-0.8326,-0.8938,-1.0041,-0.9432,-0.9228,-0.9442,-0.7965,-0.6797,-0.6098,0.0,0.0,0.0,0.0,0.0,0.0,0.0,0.0,0.0,0.0,0.0,0.0,0.0,0.0,0.0,0.0,0.0,0.0,0.0,0.0,0.0,0.0,0.0,0.0,0.0,0.0,0.0,0.0,0.0,0.0,0.0,0.0,0.0,0.0,0.0,0.0,0.0,0.0,0.0,-0.1625,-0.1734,0.0,0.0,0.0,0.0,0.0,0.0,0.0,0.0,-0.2229,0.0,0.0,0.0,0.0,0.0,0.0,0.0,0.0,0.0,0.0,0.0,0.0,0.0,0.0,0.0,0.0,0.0,0.0,0.0,0.0,0.0,0.0,0.0,0.0,0.0,0.0,0.0,0.0,0.0,0.0,0.0,0.0,0.0,0.0,0.0,0.0,0.0,0.0,0.0,0.0,0.0,0.0,0.0,0.0,0.0,0.0,0.0,0.0,0.0,0.0,0.0,0.0,0.0,0.0,0.0,-0.7988,-0.8477,-0.9226,-1.0234,-0.9883,-0.9765,-0.9913,-0.8308,-0.7148,0.0,0.0,0.0,0.0,0.0,0.0,0.0,0.0,0.0,0.0,0.0,0.0,0.0,0.0,0.0,0.0,0.0,0.0,0.0,0.0,0.0,0.0,0.0,0.0,0.0,0.0,0.0,0.0,0.0,0.0,0.0,0.0,0.0,0.0,0.0,0.0,0.0,0.0,0.0,0.0,-0.1857,-0.2058,-0.2106,0.0,0.0,0.0,0.0,0.0,0.0,-0.2649,-0.2542,0.0,0.0,0.0,0.0,0.0,0.0,0.0,0.0,0.0,0.0,0.0,0.0,0.0,0.0,0.0,0.0,0.0,0.0,0.0,0.0,0.0,0.0,0.0,0.0,0.0,0.0,0.0,0.0,0.0,0.0,0.0,0.0,0.0,0.0,0.0,0.0,0.0,0.0,0.0,0.0,0.0,0.0,0.0,0.0,0.0,0.0,0.0,0.0,0.0,0.0,0.0,0.0,0.0,0.0,0.0,-0.77,-0.8486,-0.9344,-1.0225,-1.0205,-1.0157,-1.0137,-0.8622,-0.7478,0.0,0.0,0.0,0.0,0.0,0.0,0.0,0.0,0.0,0.0,0.0,0.0,0.0,0.0,0.0,0.0,0.0,0.0,0.0,0.0,0.0,0.0,0.0,0.0,0.0,0.0,0.0,0.0,0.0,0.0,0.0,0.0,0.0,0.0,0.0,0.0,0.0,0.0,0.0,0.0,0.0,-0.2422,-0.2329,-0.2814,0.0,0.0,0.0,0.0,-0.3155,-0.3174,0.0,0.0,0.0,0.0,0.0,0.0,0.0,0.0,0.0,0.0,0.0,0.0,0.0,0.0,0.0,0.0,0.0,0.0,0.0,0.0,0.0,0.0,0.0,0.0,0.0,0.0,0.0,0.0,0.0,0.0,0.0,0.0,0.0,0.0,0.0,0.0,0.0,0.0,0.0,0.0,0.0,0.0,0.0,0.0,0.0,0.0,0.0,0.0,0.0,0.0,0.0,0.0,0.0,0.0,0.0,0.0,-0.7656,-0.8193,-0.9077,-1.0205,-0.9913,-0.9695,-0.968,-0.8637,-0.7515,0.0,0.0,0.0,0.0,0.0,0.0,0.0,0.0,0.0,0.0,0.0,0.0,0.0,0.0,0.0,0.0,0.0,0.0,0.0,0.0,0.0,0.0,0.0,0.0,0.0,0.0,0.0,0.0,0.0,0.0,0.0,0.0,0.0,0.0,0.0,0.0,0.0,0.0,0.0,0.0,0.0,-0.274,-0.2947,-0.3096,-0.3288,0.0,0.0,-0.3479,-0.4335,-0.4233,0.0,0.0,0.0,0.0,0.0,0.0,0.0,0.0,0.0,0.0,0.0,0.0,0.0,0.0,0.0,0.0,0.0,0.0,0.0,0.0,0.0,0.0,0.0,0.0,0.0,0.0,0.0,0.0,0.0,0.0,0.0,0.0,0.0,0.0,0.0,0.0,0.0,0.0,0.0,0.0,0.0,0.0,0.0,0.0,0.0,0.0,0.0,0.0,0.0,0.0,0.0,0.0,0.0,0.0,0.0,-0.69,-0.784,-0.8452,-0.9256,-1.0254,-1.0098,-0.9868,-0.9602,-0.8651,-0.7566,0.0,0.0,0.0,0.0,0.0,0.0,0.0,0.0,0.0,0.0,0.0,0.0,0.0,0.0,0.0,0.0,0.0,0.0,0.0,0.0,0.0,0.0,0.0,0.0,0.0,0.0,0.0,0.0,0.0,0.0,0.0,0.0,0.0,0.0,0.0,0.0,0.0,0.0,0.0,0.0,0.0,0.0,-0.3384,-0.3553,0.0,0.0,0.0,-0.4325,-0.4494,0.0,0.0,0.0,0.0,0.0,0.0,0.0,0.0,0.0,0.0,0.0,0.0,0.0,0.0,0.0,0.0,0.0,0.0,0.0,0.0,0.0,0.0,0.0,0.0,0.0,0.0,0.0,0.0,0.0,0.0,0.0,0.0,0.0,0.0,0.0,0.0,0.0,0.0,0.0,0.0,0.0,0.0,0.0,0.0,0.0,0.0,0.0,0.0,0.0,0.0,0.0,0.0,0.0,0.0,0.0,0.0,0.0,-0.799,-0.8645,-0.9424,-1.0263,-1.0322,-1.0029,-0.9447,-0.874,0.0,0.0,0.0,0.0,0.0,0.0,0.0,0.0,0.0,0.0,0.0,0.0,0.0,0.0,0.0,0.0,0.0,0.0,0.0,0.0,0.0,0.0,0.0,0.0,0.0,0.0,0.0,-0.0681,0.0,0.0,0.0,0.0,0.0,0.0,0.0,0.0,0.0,0.0,0.0,0.0,0.0,0.0,-0.3274,-0.3786,-0.4136,-0.4345,0.0,0.0,-0.5218,-0.507,-0.5612,-0.5736,0.0,0.0,0.0,0.0,0.0,0.0,0.0,0.0,0.0,0.0,0.0,0.0,0.0,0.0,0.0,0.0,0.0,0.0,0.0,0.0,0.0,0.0,0.0,0.0,0.0,0.0,0.0,0.0,0.0,0.0,0.0,0.0,0.0,0.0,0.0,0.0,0.0,0.0,0.0,0.0,0.0,0.0,0.0,0.0,0.0,0.0,0.0,0.0,0.0,0.0,0.0,0.0,0.0,0.0,0.0,-0.799,-0.8645,-0.9414,-1.0283,-1.0322,-0.9901,-0.9082,-0.8919,-0.7935,0.0,0.0,0.0,0.0,0.0,0.0,0.0,0.0,0.0,0.0,0.0,0.0,0.0,0.0,0.0,0.0,0.0,0.0,0.0,0.0,0.0,0.0,0.0,0.0,0.0,0.0,0.0,0.0,0.0,0.0,0.0,0.0,0.0,0.0,0.0,0.0,0.0,0.0,0.0,0.0,0.0,-0.4012,-0.4233,-0.4844,-0.5492,0.0,0.0,-0.5993,-0.672,-0.6777,-0.6483,-0.5737,0.0,0.0,0.0,0.0,0.0,0.0,0.0,0.0,0.0,0.0,0.0,0.0,0.0,0.0,0.0,0.0,0.0,0.0,0.0,0.0,0.0,0.0,0.0,0.0,0.0,0.0,0.0,0.0,0.0,0.0,0.0,0.0,0.0,0.0,0.0,0.0,0.0,0.0,0.0,0.0,0.0,0.0,0.0,0.0,0.0,0.0,0.0,0.0,0.0,0.0,0.0,0.0,0.0,-0.751,-0.8547,-0.8828,-0.9662,-1.0939,-1.0563,-0.9993,-0.9386,-0.9055,-0.7976,0.0,0.0,0.0,0.0,0.0,0.0,0.0,0.0,0.0,0.0,0.0,0.0,0.0,0.0,0.0,0.0,0.0,0.0,0.0,0.0,0.0,0.0,0.0,0.0,0.0,0.0,0.0,0.0,-0.1542,-0.1559,-0.1634,0.0,0.0,0.0,0.0,0.0,0.0,0.0,0.0,0.0,0.0,-0.4643,-0.5271,-0.5684,0.0,0.0,-0.6989,-0.7236,-0.7359,-0.7573,-0.7462,-0.674,-0.6703,0.0,0.0,0.0,0.0,0.0,0.0,0.0,0.0,0.0,0.0,0.0,0.0,0.0,0.0,0.0,0.0,0.0,0.0,0.0,0.0,0.0,0.0,0.0,0.0,0.0,0.0,0.0,0.0,0.0,0.0,0.0,0.0,0.0,0.0,0.0,0.0,0.0,0.0,0.0,0.0,0.0,0.0,0.0,0.0,0.0,0.0,0.0,0.0,0.0,0.0,0.0,0.0,-0.7732,-0.888,-0.9209,-1.0082,-1.1501,-1.1,-1.0388,-0.9647,-0.9298,-0.8242,0.0,0.0,0.0,0.0,0.0,0.0,0.0,0.0,0.0,0.0,0.0,0.0,0.0,0.0,0.0,0.0,0.0,0.0,0.0,0.0,0.0,0.0,0.0,0.0,0.0,0.0,0.0,0.0,-0.1922,-0.1844,-0.1894,0.0,0.0,0.0,0.0,0.0,0.0,0.0,0.0,0.0,0.0,-0.5345,-0.6162,-0.6526,-0.6928,-0.7499,-0.8011,-0.8243,-0.7986,-0.8228,-0.8227,-0.756,0.0,0.0,0.0,0.0,0.0,0.0,0.0,0.0,0.0,0.0,0.0,0.0,0.0,0.0,0.0,0.0,0.0,0.0,0.0,0.0,0.0,0.0,0.0,0.0,0.0,0.0,0.0,0.0,0.0,0.0,-0.451,0.0,0.0,0.0,0.0,0.0,0.0,0.0,0.0,0.0,0.0,0.0,0.0,0.0,0.0,0.0,0.0,0.0,0.0,0.0,0.0,0.0,0.0,-0.7974,-0.8905,-0.9748,-1.0653,-1.159,-1.1719,-1.1109,-0.9769,-0.9694,-0.8823,-0.7013,0.0,0.0,0.0,0.0,0.0,0.0,0.0,0.0,0.0,0.0,0.0,0.0,0.0,0.0,0.0,0.0,0.0,0.0,0.0,0.0,0.0,0.0,0.0,0.0,0.0,0.0,-0.2188,-0.2022,-0.1913,0.0,0.0,0.0,0.0,0.0,0.0,0.0,0.0,0.0,0.0,-0.5232,-0.6078,-0.687,-0.7384,-0.7974,-0.881,-0.8843,-0.8801,-0.8761,-0.8779,-0.8623,0.0,0.0,0.0,0.0,0.0,0.0,0.0,0.0,0.0,0.0,0.0,0.0,0.0,0.0,0.0,0.0,0.0,0.0,0.0,0.0,0.0,0.0,0.0,0.0,0.0,0.0,0.0,-0.504,-0.5243,0.0,0.0,0.0,0.0,0.0,0.0,0.0,0.0,0.0,0.0,0.0,-0.9243,-0.9615,0.0,0.0,0.0,0.0,0.0,0.0,0.0,0.0,0.0,0.0,0.0,0.0,-0.8707,-0.9862,-1.0475,-1.1354,-1.2407,-1.2018,-1.1356,-1.0452,-0.9956,-0.8705,-0.661,0.0,0.0,0.0,0.0,0.0,0.0,0.0,0.0,0.0,0.0,0.0,0.0,0.0,0.0,0.0,0.0,0.0,0.0,0.0,0.0,0.0,0.0,0.0,0.0,0.0,-0.2713,0.0,0.0,0.0,0.0,0.0,0.0,0.0,0.0,0.0,0.0,0.0,-0.4749,-0.5298,-0.622,-0.7054,-0.7602,-0.819,-0.8758,0.0,0.0,0.0,0.0,0.0,0.0,0.0,0.0,0.0,0.0,0.0,0.0,0.0,0.0,-1.0784,-0.9069,-0.857,-0.8525,-0.8925,0.0,0.0,0.0,0.0,0.0,0.0,0.0,0.0,0.0,0.0,0.0,0.0,0.0,0.0,-0.6172,0.0,-0.6748,0.0,0.0,0.0,0.0,0.0,0.0,0.0,0.0,-1.0192,-1.0927,-1.1188,-1.1568,-1.1604,0.0,-1.1023,-0.9998,0.0,0.0,0.0,0.0,0.0,0.0,0.0,0.0,-0.9352,-1.0408,-1.1157,-1.2002,-1.2901,-1.2514,-1.1902,-1.1119,-1.0036,-0.855,-0.661,-0.6067,-0.55,0.0,0.0,0.0,0.0,0.0,0.0,0.0,0.0,0.0,0.0,0.0,0.0,0.0,0.0,0.0,0.0,0.0,0.0,0.0,0.0,0.0,0.0,0.0,-0.3052,0.0,0.0,0.0,0.0,0.0,0.0,0.0,0.0,0.0,-0.4365,-0.5058,-0.5813,-0.6302,-0.7086,-0.779,-0.8267,0.0,0.0,0.0,0.0,0.0,0.0,0.0,-0.9923,-1.0587,-1.0766,-1.0858,-1.1108,-1.1766,-1.2128,-1.1795,0.0,0.0,-1.0473,-0.9945,-0.995,-1.0552,-1.0692,-1.0785,-1.1084,-1.1922,-1.2548,0.0,0.0,0.0,0.0,0.0,0.0,0.0,0.0,-0.6285,-0.6768,0.0,-0.767,0.0,0.0,0.0,0.0,0.0,-0.9909,0.0,0.0,-1.3002,-1.3816,-1.3877,-1.4321,-1.4321,-1.3828,-1.3401,-1.262,-1.1458,-0.9924,0.0,0.0,0.0,0.0,0.0,0.0,-0.9939,-1.0581,-1.1715,-1.2585,-1.3082,-1.3146,-1.2719,-1.1654,-0.9941,-0.8406,-0.7102,-0.716,-0.6562,-0.5055,-0.5348,0.0,0.0,0.0,0.0,0.0,0.0,0.0,0.0,0.0,0.0,0.0,0.0,0.0,0.0,0.0,0.0,0.0,0.0,0.0,0.0,-0.3286,0.0,0.0,0.0,0.0,0.0,0.0,0.0,0.0,0.0,0.0,-0.5242,-0.6119,-0.6972,-0.7385,0.0,0.0,0.0,0.0,-0.9159,-0.9543,-0.9614,-0.9603,-0.965,-1.0054,-1.0487,-1.0753,0.0,0.0,-1.2198,-1.2598,-1.2734,-1.2311,-1.2621,-1.2881,-1.2667,-1.2057,-1.1975,-1.2994,-1.2064,-1.154,-1.2561,-1.293,-1.3057,-0.8339,0.0,0.0,0.0,0.0,-0.7428,-0.7812,-0.8636,-0.8308,-0.8415,-0.8818,-0.8824,0.0,0.0,0.0,0.0,0.0,0.0,-1.1684,-1.2697,-1.3451,-1.4217,-1.4997,-1.4769,-1.4782,-1.4985,-1.4614,-1.4256,-1.388,-1.3057,-1.1375,-0.896,0.0,0.0,0.0,0.0,-1.1228,-1.1796,-1.256,-1.2996,-1.3094,-1.3163,-1.2534,-1.1157,-0.9945,-0.8648,-0.7343,-0.7299,-0.6989,-0.636,-0.5725,0.0,0.0,0.0,0.0,0.0,0.0,0.0,0.0,0.0,0.0,0.0,0.0,0.0,0.0,0.0,0.0,0.0,0.0,0.0,-0.3634,-0.3529,-0.359,0.0,0.0,0.0,0.0,0.0,0.0,0.0,0.0,0.0,-0.6982,-0.7346,-0.7758,0.0,0.0,-0.8782,-0.8968,-0.923,-0.9458,-0.9588,-0.9614,0.0,0.0,-1.0466,-1.0958,-1.2095,-1.2505,-1.2686,-1.2715,-1.2803,-1.2866,-1.2705,-1.3096,-1.3296,-1.2934,-1.2962,-1.3013,-1.3054,-1.314,-1.3301,-1.3405,-1.3936,-1.445,-1.0047,-0.9861,-0.9048,-0.8891,-0.9175,-0.9104,-0.9402,-0.9963,-1.0065,-1.0155,-1.0238,-1.0606,-1.0469,-0.9973,-1.0105,0.0,0.0,0.0,-1.3093,-1.4206,-1.4443,-1.5027,-1.5844,-1.5566,-1.5591,-1.5848,-1.5407,-1.5184,-1.5198,-1.4619,-1.3223,-1.1078,0.0,0.0,-1.0454,-1.1345,-1.1986,-1.2315,-1.2872,-1.3112,-1.3042,-1.3042,-1.2343,-1.0908,-1.0217,-0.9252,-0.7932,-0.79,-0.7692,-0.7264,-0.6596,-0.5998,0.0,0.0,0.0,0.0,0.0,0.0,0.0,0.0,0.0,0.0,0.0,-0.3177,0.0,0.0,0.0,0.0,-0.3534,-0.3951,-0.406,-0.4197,0.0,0.0,0.0,0.0,0.0,0.0,0.0,-0.6998,-0.7792,-0.8297,-0.8304,-0.8493,-0.8642,-0.8639,-0.8975,-0.9237,-0.9237,0.0,-0.9614,-0.9614,-0.9769,-1.0069,-1.0504,-1.0955,-1.1607,-1.27,-1.2905,-1.2915,-1.2915,-1.2915,-1.2915,-1.2929,-1.3138,-1.3224,-1.2954,-1.3272,-1.3525,-1.3248,-1.3478,-1.3729,-1.3823,-1.4385,-1.4766,-1.1832,-1.1535,-1.0556,-1.0191,-1.0332,-1.076,-1.0805,-1.0636,-1.1448,-1.1776,-1.174,-1.2602,-1.2373,-1.137,-1.1716,0.0,-1.3412,-1.397,-1.4777,-1.5756,-1.5756,-1.6019,-1.6488,-1.65,-1.6513,-1.6475,-1.5923,-1.5707,-1.5731,-1.5149,-1.4625,-1.4211,-1.3101,-1.2266,-1.1759,-1.2228,-1.2473,-1.244,-1.292,-1.3062,-1.2913,-1.282,-1.2157,-1.0877,-1.0672,-0.9973,-0.8714,-0.8731,-0.8507,-0.7908,-0.7686,-0.6793,-0.5143,0.0,0.0,0.0,0.0,0.0,0.0,0.0,0.0,0.0,0.0,0.0,0.0,0.0,0.0,0.0,-0.4822,0.0,-0.4655,-0.5112,0.0,0.0,0.0,-0.6378,-0.6807,-0.7368,-0.7845,-0.8238,0.0,0.0,-0.9229,-0.9446,-0.9458,-0.9087,-0.9368,-0.9614,-0.9614,-0.9588,-0.9614,-0.9692,-1.0061,-1.0421,-1.0659,-1.1476,-1.227,-1.2808,-1.2915,-1.2915,-1.2915,-1.2915,-1.2915,-1.2915,-1.2929,-1.2944,-1.2905,-1.3272,-1.3586,-1.3525,-1.3296,-1.3344,-1.4095,-1.4328,-1.4363,-1.1688,-1.1872,-1.1516,-1.1235,-1.1065,-1.127,-1.1223,-1.1094,-1.1839,-1.2163,-1.2158,-1.2749,-1.3067,-1.325,-1.3501,-1.415,-1.5112,-1.5264,-1.5668,-1.6287,-1.6321,-1.6375,-1.65,-1.6513,-1.6513,-1.6488,-1.6353,-1.63,-1.63,-1.6141,-1.5823,-1.5336,-1.4923,-1.4325,-1.3521,-1.3914,-1.3933,-1.3524,-1.3545,-1.333,-1.292,-1.2785,-1.2203,-1.1126,-1.0783,-1.0049,-0.8875,-0.8816,-0.8717,-0.8486,-0.7768,-0.7248,-0.6947,-0.5727,0.0,0.0,0.0,0.0,0.0,0.0,0.0,0.0,0.0,-0.5185,-0.4469,0.0,-0.5372,0.0,-0.5224,-0.5867,-0.5523,-0.5752,0.0,0.0,-0.6983,-0.7437,-0.8136,-0.8498,-0.8743,-0.8933,-0.9288,-0.9515,-0.9511,-0.957,-0.9569,-0.9458,-0.9543,-0.9614,-0.9614,-0.9614,-0.9744,-1.0113,-1.0352,-1.0735,-1.1535,-1.2249,-1.2735,-1.2881,-1.2915,-1.2915,-1.2915,-1.2915,-1.2915,-1.2929,-1.321,-1.3272,-1.2978,-1.3272,-1.3406,-1.32,-1.3539,-1.4025,-1.4258,-1.4305,-1.441,-1.2025,-1.2201,-1.2154,-1.1988,-1.1872,-1.2129,-1.2198,-1.2165,-1.3001,-1.3278,-1.3178,-1.3565,-1.4042,-1.4545,-1.4851,-1.5271,-1.5738,-1.6028,-1.6275,-1.65,-1.6513,-1.6513,-1.6513,-1.6513,-1.6513,-1.6513,-1.6513,-1.6513,-1.6513,-1.6513,-1.6316,-1.6007,-1.5944,-1.5604,-1.504,-1.4834,-1.4546,-1.4211,-1.3821,-1.3338,-1.2827,-1.2745,-1.2203,-1.1193,-1.0935,-1.0302,-0.9203,-0.9062,-0.8901,-0.8608,-0.7846,-0.7486,-0.7577,-0.6446,-0.5934,0.0,0.0,0.0,0.0,0.0,0.0,0.0,0.0,0.0,0.0,0.0,-0.644,-0.5796,-0.6319,-0.6829,-0.7119,-0.7156,-0.7336,-0.7772,-0.8077,-0.844,-0.8892,-0.9118,-0.9307,-0.9365,-0.9519,-0.9614,-0.9614,-0.9614,-0.9614,-0.9614,-0.9614,-0.9614,-0.964,-0.9795,-1.0087,-1.0352,-1.0829,-1.1435,-1.2348,-1.2505,-1.2627,-1.2856,-1.2915,-1.2915,-1.2915,-1.2915,-1.2915,-1.2929,-1.3104,-1.321,-1.2968,-1.3113,-1.3176,-1.3089,-1.3488,-1.3941,-1.4012,-1.4001,-1.4095,-1.2505,-1.2505,-1.248,-1.2455,-1.2471,-1.2953,-1.316,-1.3232,-1.4143,-1.4467,-1.4316,-1.4628,-1.4983,-1.5378,-1.579,-1.591,-1.5844,-1.6392,-1.6577,-1.6423,-1.6479,-1.6513,-1.6513,-1.6513,-1.6513,-1.6513,-1.6513,-1.6513,-1.6513,-1.6513,-1.6491,-1.6392,-1.6392,-1.6297,-1.6064,-1.5212,-1.473,-1.4636,-1.3883,-1.3276,-1.283,-1.2733,-1.2222,-1.1271,-1.115,-1.063,-0.9653,-0.9414,-0.91,-0.8628,-0.804,-0.768,-0.7599,-0.7174,-0.6914,0.0,-0.6848,0.0,0.0,0.0,0.0,0.0,0.0,0.0,0.0,-0.702,-0.7608,-0.8222,-0.7951,-0.8031,-0.8807,-0.87,-0.8641,-0.8758,-0.906,-0.9258,-0.9266,-0.946,-0.9614,-0.9614,-0.9614,-0.9614,-0.9614,-0.9614,-0.9614,-0.9614,-0.9614,-0.9614,-0.964,-0.9958,-1.0267,-1.0377,-1.1293,-1.1993,-1.2529,-1.2382,-1.2308,-1.2783,-1.2915,-1.2915,-1.2915,-1.2915,-1.2915,-1.2915,-1.2929,-1.2905,-1.2915,-1.2915,-1.2915,-1.2915,-1.3248,-1.3525,-1.361,-1.3634,-1.361,-1.2612,-1.2495,-1.2372,-1.2283,-1.2215,-1.2686,-1.2933,-1.3064,-1.36,-1.4222,-1.4915,-1.5006,-1.5255,-1.5691,-1.5812,-1.581,-1.5832,-1.6315,-1.6337,-1.5954,-1.6337,-1.6513,-1.6513,-1.6513,-1.6513,-1.6513,-1.6513,-1.6513,-1.6513,-1.6513,-1.6457,-1.6392,-1.6297,-1.6001,-1.5567,0.0,0.0,0.0,-1.3987,-1.3476,-1.3336,-1.2926,-1.2391,-1.1776,-1.1315,0.0,-1.0097,-0.9633,-0.9307,-0.9148,-0.8627,0.0,0.0,0.0,0.0,0.0,0.0,0.0,0.0,0.0,0.0,0.0,-0.7848,-0.7778,-0.7822,-0.8094,-0.8691,-0.9752,-1.0212,-1.0087,-0.9284,-0.914,-0.908,-0.9094,-0.9351,-0.95,-0.9508,-0.9577,-0.9614,-0.9614,-0.9614,-0.9614,-0.9614,-0.9614,-0.9614,-0.9614,-0.9621,-0.9614,-0.9621,-0.9732,-0.9932,-1.0352,-1.1032,-1.1594,-1.2184,-1.2184,-1.2274,-1.2759,-1.2915,-1.2915,-1.2915,-1.2915,-1.2915,-1.2915,-1.2915,-1.2915,-1.2915,-1.2915,-1.2915,-1.2915,-1.2988,-1.3138,-1.3525,-1.3621,-1.361,-1.2455,0.0,-1.2249,-1.2298,0.0,-1.2701,-1.315,-1.3718,-1.3918,-1.4419,-1.5096,-1.5244,-1.5424,-1.5659,-1.5657,-1.5645,-1.5645,-1.5756,-1.58,-1.581,-1.6064,-1.6272,-1.6513,-1.6513,-1.6513,-1.6513,-1.6513,-1.6513,-1.65,-1.647,-1.6272,-1.591,-1.5812,-1.5457,-1.4869,-1.4823,-1.4654,-1.4349,-1.4052,-1.3668,-1.3171,-1.2659,-1.2229,-1.1902,0.0,0.0,0.0,0.0,0.0,0.0,0.0,0.0,0.0,0.0,0.0,-0.9916,-0.9437,-0.9009,-0.8767,-0.8833,-0.8914,-0.8938,-0.9181,-0.9224,-0.8972,-0.9393,-0.9965,-1.0619,-1.1015,-1.0822,-0.9962,-0.9567,-0.9394,-0.9402,-0.9526,-0.9614,-0.9614,-0.9614,-0.9614,-0.9614,-0.9614,-0.9614,-0.9614,-0.9614,-0.9614,-0.9603,-0.976,-0.9855,-0.986,-0.9926,-1.0182,-1.0702,-1.1006,-1.141,-1.1968,-1.2076,-1.2274,-1.2759,-1.2915,-1.2915,-1.2915,-1.2915,-1.2915,-1.2915,-1.2915,-1.2915,-1.2915,-1.2915,-1.2964,-1.3135,-1.3193,-1.3356,-1.3726,-1.3525,-1.3248,-1.2323,-1.2283,-1.2184,-1.2363,-1.2677,-1.2846,-1.3542,-1.4512,0.0,0.0,0.0,-1.5334,-1.5446,-1.5446,-1.5424,-1.5379,-1.5289,-1.5266,-1.5378,-1.5668,-1.5854,-1.6129,-1.65,-1.6513,-1.6513,-1.6513,-1.6479,-1.6436,-1.6337,-1.6262,-1.5901,-1.5299,-1.5186,-1.4835,-1.4224,-1.4188,-1.396,-1.3594,-1.396,-1.378,-1.2977,-1.2479,-1.2157,-1.2038,-1.1622,-1.135,-1.1255,-1.1096,-1.06,-0.9767,-0.9653,-0.9617,-0.9612,-0.9548,-0.9965,-1.0914,-1.0845,-1.0539,-1.0048,-1.0163,-1.0161,-0.9982,-1.0543,-1.0639,-0.9981,-1.0516,-1.0994,-1.1211,-1.1054,-1.0795,-1.0574,-0.9984,-0.9614,-0.9614,-0.9614,-0.9614,-0.9614,-0.9614,-0.9614,-0.9614,-0.9614,-0.9614,-0.9614,-0.9672,-0.9676,-0.9746,-0.9994,-1.0192,-1.0203,-1.031,-1.0543,-1.0928,-1.0939,-1.1192,-1.1817,-1.1929,-1.2203,-1.2909,-1.3042,-1.3042,-1.3086,-1.3105,-1.3096,-1.3184,-1.313,-1.316,-1.3125,-1.3189,-1.3223,-1.3545,-1.3623,-1.3695,-1.3948,-1.3594,-1.3214,-1.2406,-1.2308,-1.2283,-1.2249,-1.2264,-1.3108,-1.4048,-1.4994,-1.4994,-1.504,-1.5108,-1.5131,-1.5153,-1.5153,-1.5153,-1.4949,-1.4605,-1.5344,-1.5534,-1.5255,-1.602,-1.6445,-1.65,-1.6513,-1.6513,-1.65,-1.6457,-1.6173,-1.5754,-1.5599,-1.522,-1.4687,-1.4618,-1.4283,-1.3752,-1.3681,-1.3471,-1.3038,-1.3454,-1.363,-1.3488,-1.2978,-1.2672,-1.2575,-1.2086,-1.1809,-1.178,-1.1335,-1.1011,-1.0867,-1.0855,-1.0711,-1.0464,-1.0627,-1.0939,-1.1357,-1.1065,-1.0856,-1.0815,-1.0866,-1.0917,-1.1025,-1.1893,-1.1995,-1.0871,-1.0827,-1.1149,-1.1659,-1.0686,-1.0174,-1.0871,-1.0182,-0.964,-0.9614,-0.9614,-0.9614,-0.9614,-0.9614,-0.9614,-0.9614,-0.9614,-0.9614,-0.9636,-0.9841,-1.0002,-1.006,-1.0294,-1.055,-1.0564,-1.0534,-1.0596,-1.0636,-1.0427,-1.0701,-1.1564,-1.1541,-1.2085,-1.3208,-1.3418,-1.3525,-1.3782,-1.3821,-1.3821,-1.3899,-1.3841,-1.386,-1.388,-1.3938,-1.3909,-1.3997,-1.4026,-1.4065,-1.4182,-1.4036,-1.3955,-1.2348,-1.2274,-1.215,-1.223,-1.2564,-1.36,-1.4303,-1.4731,-1.4834,-1.488,-1.4891,-1.488,-1.4811,-1.4697,-1.4581,-1.4407,-1.4221,-1.4777,-1.5074,-1.5153,-1.5812,-1.6272,-1.6479,-1.6457,-1.6436,-1.6414,-1.6032,-1.5744,-1.5454,-1.5107,-1.4652,-1.4133,-1.3802,-1.3491,-1.3248,-1.3152,-1.3031,-1.2895,-1.3354,-1.3472,-1.3217,-1.273,-1.2557,-1.2764,-1.2075,-1.1895,-1.2328,-1.1879,-1.1609,-1.1532,-1.1548,-1.1463,-1.1319,-1.1355,-1.1609,-1.2089,-1.1698,-1.1474,-1.1498,-1.1251,-1.1224,-1.1465,-1.2053,-1.2155,-1.1516,-1.1206,-1.1291,-1.185,-1.156,-1.1175,-1.0821,-1.031,-0.9925,-0.9614,-0.9614,-0.9614,-0.9614,-0.9614,-0.9614,-0.9614,-0.9614,-0.9614,-0.9614,-0.9899,-1.0097,-1.0141,-1.0514,-1.0887,-1.1107,-1.1136,-1.1004,-1.0739,-1.101,-1.1513,-1.2007,-1.2529,-1.3045,-1.3776,-1.3821,-1.3899,-1.4085,-1.4114,-1.4124,-1.4114,-1.4114,-1.4114,-1.4124,-1.4104,-1.4192,-1.4463,-1.4492,-1.4551,-1.4708,-1.4806,-1.4718,-1.2175,-1.215,-1.1952,-1.2172,-1.2779,-1.3695,-1.4152,-1.4269,-1.4523,-1.4593,-1.4535,-1.4546,-1.4454,-1.4291,-1.4033,-1.3915,-1.3962,-1.4257,-1.4593,-1.496,-1.5534,-1.5986,-1.6303,-1.625,-1.6228,-1.6141,-1.5522,-1.5164,-1.4994,-1.4526,-1.405,-1.3589,-1.3128,-1.2915,-1.2915,-1.2808,-1.2808,-1.2905,-1.3248,-1.3272,-1.2895,-1.2549,-1.251,-1.2715,-1.2137,-1.2044,-1.2522,-1.2264,-1.2026,-1.1898,-1.1926,-1.1976,-1.2027,-1.1947,-1.2126,-1.2573,-1.2381,-1.221,-1.2197,-1.1925,-1.1797,-1.1905,-1.2235,-1.2348,-1.212,-1.1819,-1.166,-1.1968,-1.2459,-1.2212,-1.0939,-1.048,-1.0198,-0.9699,-0.9614,-0.9614,-0.9614,-0.9614,-0.9614,-0.9614,-0.9614,-0.9636,-0.9753,-0.9992,-1.0291,-1.0535,-1.0902,-1.1305,-1.154,-1.1591,-1.1357,-1.1189,-1.1584,-1.2031,-1.2285,-1.2812,-1.3386,-1.3742,-1.3925,-1.4029,-1.415,-1.4289,-1.4406,-1.4465,-1.4436,-1.4475,-1.4416,-1.4426,-1.4572,-1.4873,-1.4922,-1.4963,-1.5032,-1.5071,-1.5061,-1.1868,-1.1744,-1.1728,-1.1999,-1.2463,-1.2933,-1.3399,-1.3839,-1.4257,-1.4291,-1.4091,-1.4057,-1.4067,-1.3986,-1.3739,-1.3644,-1.3692,-1.4163,-1.4419,-1.4581,-1.5389,-1.581,-1.5832,-1.5732,-1.5676,-1.5565,-1.4926,-1.4399,-1.4027,-1.3779,-1.3443,-1.3041,-1.2929,-1.2905,-1.2881,-1.2881,-1.2881,-1.2915,-1.2954,-1.2954,-1.2905,-1.2876,-1.2817,-1.2799,-1.273,-1.2507,-1.2216,-1.2114,-1.2047,-1.1934,-1.2003,-1.2188,-1.239,-1.2407,-1.2431,-1.2526,-1.2905,-1.317,-1.3146,-1.3291,-1.3024,-1.263,-1.303,-1.3202,-1.2798,-1.2725,-1.252,-1.2234,-1.2544,-1.227,-1.1276,-1.0676,-1.019,-0.9692,-0.9614,-0.9614,-0.9614,-0.9614,-0.9614,-0.9614,-0.9614,-0.9697,-0.9999,-1.0337,-1.0773,-1.1255,-1.1379,-1.1503,-1.1569,-1.1591,-1.1553,-1.1437,-1.1435,-1.1516,-1.1873,-1.1735,-1.2386,-1.3006,-1.3496,-1.3891,-1.4256,-1.4773,-1.5245,-1.4849,-1.5157,-1.5128,-1.5167,-1.5293,-1.5244,-1.5196,-1.5187,-1.5138,-1.4736,-1.4558,-1.4503,-1.141,-1.1694,-1.1628,-1.1694,-1.1916,-1.2433,-1.2754,-1.302,-1.3566,-1.3729,-1.3668,-1.3739,-1.3763,-1.375,-1.3634,-1.361,-1.3634,-1.4163,-1.4407,-1.4466,-1.5017,-1.5276,-1.5266,-1.505,-1.4949,-1.4881,-1.4283,-1.3884,-1.3647,-1.3358,-1.3041,-1.2832,-1.2856,-1.2856,-1.2783,-1.2783,-1.2808,-1.2915,-1.2832,-1.2808,-1.2881,-1.2915,-1.289,-1.2845,-1.2596,-1.2478,-1.2444,-1.2036,-1.1824,-1.1979,-1.1845,-1.1871,-1.2128,-1.2153,-1.2241,-1.2423,-1.2465,-1.2499,-1.244,-1.2632,-1.2705,-1.2545,-1.2932,-1.2958,-1.2505,-1.27,-1.252,-1.1676,-1.1729,-1.1537,-1.0744,-1.0464,-1.019,-0.9725,-0.9614,-0.9614,-0.9614,-0.9614,-0.9614,-0.9614,-0.9621,-0.9719,-1.0082,-1.0549,-1.1078,-1.1512,-1.1591,-1.1591,-1.1591,-1.1591,-1.1529,-1.1445,-1.1281,-1.1546,-1.2071,-1.253,-1.2764,-1.3131,-1.3428,-1.3731,-1.3912,-1.443,-1.4844,-1.4883,-1.5089,-1.5294,-1.5371,-1.542,-1.542,-1.5294,-1.4971,-1.4677,-1.4022,-1.3902,-1.3773,-1.1065,-1.1519,-1.1502,-1.1444,-1.1494,-1.2015,-1.2252,-1.2359,-1.2991,-1.329,-1.3314,-1.3515,-1.361,-1.361,-1.361,-1.361,-1.3658,-1.3999,-1.4163,-1.4186,-1.4524,-1.4697,-1.4628,-1.4422,-1.4295,-1.4202,-1.3695,-1.3382,-1.3334,-1.3041,-1.2774,-1.2735,-1.2832,-1.2856,-1.2759,-1.2759,-1.2808,-1.2881,-1.2808,-1.2798,-1.2881,-1.2915,-1.2915,-1.2886,-1.2578,-1.247,-1.262,-1.2037,-1.1799,-1.2052,-1.1783,-1.1751,-1.2019,-1.202,-1.2106,-1.2286,-1.2224,-1.2158,-1.2176,-1.2285,-1.2373,-1.2516,-1.2735,-1.2676,-1.2323,-1.2348,-1.1959,-1.1074,-1.0703,-1.0362,-1.0277,-1.0226,-1.0053,-0.9562,-0.9484,-0.9484,-0.9484,-0.9484,-0.9484,-0.9491,-0.9588,-0.9791,-1.0208,-1.0732,-1.1182,-1.1384,-1.1435,-1.1466,-1.1466,-1.1435,-1.1373,-1.1279,-1.124,-1.1452,-1.2035,-1.2319,-1.2856,-1.2986,-1.2931,-1.3188,-1.329,-1.3803,-1.4201,-1.4261,-1.4667,-1.4785,-1.4638,-1.4765,-1.4883,-1.4785,-1.449,-1.3983,-1.3351,-1.326,-1.2948,-1.0888,-1.1301,-1.1293,-1.1326,-1.1318,-1.1744,-1.1918,-1.1968,-1.2686,-1.3016,-1.305,-1.342,-1.3597,-1.3586,-1.3586,-1.3586,-1.361,-1.3634,-1.361,-1.3563,-1.3988,-1.4152,-1.4048,-1.3886,-1.3826,-1.3779,-1.3262,-1.292,-1.2798,-1.2725,-1.27,-1.27,-1.2822,-1.2915,-1.2881,-1.2847,-1.2881,-1.2881,-1.2881,-1.2881,-1.2915,-1.2915,-1.2915,-1.2881,-1.2876,-1.2661,-1.2328,-1.2187,-1.2121,-1.1997,-1.1958,-1.2065,-1.2309,-1.2295,-1.2236,-1.2151,-1.2337,-1.2642,-1.293,-1.2793,-1.2589,-1.252,-1.2578,-1.2603,-1.2274,-1.1769,-1.1166,-1.0618,-0.9666,-0.9316,-0.9847,-0.9943,-0.9795,-0.9335,-0.923,-0.9237,-0.923,-0.9256,-0.9204,-0.9288,-0.9575,-0.998,-1.0479,-1.0878,-1.1073,-1.1146,-1.1153,-1.1153,-1.1192,-1.1153,-1.1122,-1.1122,-1.109,-1.1122,-1.1185,-1.1577,-1.1608,-1.1732,-1.222,-1.2512,-1.2757,-1.3,-1.3321,-1.3571,-1.3773,-1.3833,-1.3662,-1.3631,-1.3722,-1.3713,-1.3713,-1.326,-1.2712,-1.2573,-1.2366,-1.049,-1.1301,-1.1301,-1.1301,-1.1301,-1.1444,-1.1528,-1.1569,-1.2082,-1.2452,-1.2706,-1.2973,-1.3238,-1.3457,-1.3362,-1.3396,-1.3443,-1.3386,-1.3314,-1.329,-1.343,-1.3474,-1.3416,-1.3286,-1.3214,-1.32,-1.2992,-1.2881,-1.2832,-1.2759,-1.27,-1.2725,-1.2832,-1.2847,-1.2808,-1.2847,-1.2915,-1.2915,-1.2915,-1.2915,-1.2891,-1.2915,-1.2856,-1.2774,-1.2847,-1.2803,-1.2646,-1.2359,-1.2171,-1.2138,-1.1883,-1.1866,-1.2111,-1.2253,-1.2245,-1.213,-1.2272,-1.2455,-1.2589,-1.2603,-1.2505,-1.2372,-1.2116,-1.1859,-1.1476,-1.1259,-1.077,-0.9769,-0.9166,-0.8989,-0.9166,-0.9387,-0.9413,-0.923,-0.9178,-0.9178,-0.9178,-0.9185,-0.9281,-0.9533,-0.9939,-1.0361,-1.0573,-1.0902,-1.109,-1.1097,-1.1097,-1.1097,-1.1097,-1.1097,-1.1028,-1.0933,-1.0902,-1.087,-1.0776,-1.1028,-1.1185,-1.1247,-1.149,-1.1608,-1.1794,-1.2336,-1.2704,-1.2826,-1.2978,-1.3268,-1.3268,-1.326,-1.3208,-1.2917,-1.2887,-1.265,-1.2042,-1.2066,-1.1919,-1.0318,-1.0989,-1.1217,-1.1301,-1.1301,-1.1301,-1.1301,-1.1352,-1.1719,-1.206,-1.2348,-1.2681,-1.2987,-1.318,-1.3194,-1.3228,-1.3286,-1.3252,-1.317,-1.3166,-1.3123,-1.3085,-1.3027,-1.2954,-1.2881,-1.2832,-1.2783,-1.2783,-1.2832,-1.2759,-1.27,-1.27,-1.2822,-1.2847,-1.2808,-1.2847,-1.2832,-1.2676,-1.2661,-1.2627,-1.2627,-1.2446,-1.2471,-1.2627,-1.2627,-1.2686,-1.2822,-1.2493,-1.2314,-1.2299,-1.201,-1.1935,-1.2149,-1.2198,-1.22,-1.2135,-1.2224,-1.2308,-1.2308,-1.2372,-1.2323,-1.2042,-1.1769,-1.1326,-1.0795,-1.0795,-1.0259,-0.9439,-0.8929,-0.8778,-0.8831,-0.8989,-0.9061,-0.908,-0.9061,-0.9054,-0.9054,-0.9061,-0.9253,-0.9653,-1.0079,-1.0402,-1.0584,-1.0777,-1.0912,-1.0933,-1.0933,-1.094,-1.094,-1.094,-1.0909,-1.0782,-1.0751,-1.0713,-1.0681,-1.0807,-1.0965,-1.0996,-1.1122,-1.1097,-1.1185,-1.1701,-1.2004,-1.212,-1.2374,-1.2742,-1.2903,-1.2895,-1.2681,-1.2336,-1.2212,-1.2073,-1.1771,-1.1654,-1.1622,-1.0377,-1.0531,-1.104,-1.1242,-1.1301,-1.1301,-1.1301,-1.1377,-1.1678,-1.1843,-1.1993,-1.2579,-1.2735,-1.2852,-1.2987,-1.3118,-1.3113,-1.3142,-1.3142,-1.3075,-1.3085,-1.3036,-1.2905,-1.2871,-1.2808,-1.2725,-1.2578,-1.2603,-1.2735,-1.271,-1.27,-1.2725,-1.2822,-1.2856,-1.2856,-1.2808,-1.2578,-1.22,-1.2076,-1.2076,-1.2026,-1.166,-1.1819,-1.248,-1.2224,-1.2234,-1.2686,-1.255,-1.253,-1.2638,-1.2414,-1.2378,-1.2414,-1.2264,-1.2135,-1.2126,-1.219,-1.2258,-1.2258,-1.2224,-1.1977,-1.1569,-1.1444,-1.1099,-1.0474,-1.0218,-0.9943,-0.9491,-0.9061,-0.8778,-0.8778,-0.8804,-0.8831,-0.8811,-0.8831,-0.8831,-0.8831,-0.8831,-0.9065,-0.9615,-1.0047,-1.0265,-1.0486,-1.0636,-1.0688,-1.0681,-1.0656,-1.0688,-1.0688,-1.0688,-1.0624,-1.0624,-1.0624,-1.0618,-1.0618,-1.0618,-1.0681,-1.0776,-1.0933,-1.0996,-1.0996,-1.1327,-1.1452,-1.1577,-1.1833,-1.2174,-1.2205,-1.2197,-1.2081,-1.1794,-1.1709,-1.1709,-1.1646,-1.1591,-1.1591,-0.9718,-1.0377,-1.0582,-1.0939,-1.1276,-1.1301,-1.1301,-1.1276,-1.1251,-1.1368,-1.1603,-1.156,-1.185,-1.2314,-1.2437,-1.2642,-1.2954,-1.2992,-1.2968,-1.2954,-1.2978,-1.2905,-1.2783,-1.2759,-1.2725,-1.271,-1.2676,-1.27,-1.2798,-1.2725,-1.2725,-1.2832,-1.2856,-1.2676,-1.2382,-1.2323,-1.2067,-1.1535,-1.1485,-1.1451,-1.1417,-1.1651,-1.1852,-1.1893,-1.216,-1.2382,-1.2431,-1.2471,-1.2554,-1.2676,-1.2529,-1.2455,-1.2455,-1.2323,-1.219,-1.2076,-1.1778,-1.1594,-1.1594,-1.1594,-1.136,-1.0889,-1.0762,-1.0456,-0.9891,-0.9484,-0.9237,-0.9087,-0.8883,-0.8778,-0.8778,-0.8778,-0.8778,-0.8778,-0.8778,-0.8811,-0.8845,-0.9186,-0.9552,-0.992,-1.0271,-1.0479,-1.0559,-1.0586,-1.0586,-1.0586,-1.0586,-1.0586,-1.0586,-1.0586,-1.0586,-1.0586,-1.0586,-1.0586,-1.0586,-1.0586,-1.0618,-1.0681,-1.0776,-1.087,-1.087,-1.0933,-1.1059,-1.1216,-1.1435,-1.156,-1.1591,-1.1591,-1.1591,-1.1591,-1.1654,-1.1622,-1.1622,-1.1591,-1.1591,-0.9197,-0.9829,-1.0131,-1.0438,-1.0829,-1.0939,-1.0989,-1.0972,-1.082,-1.0888,-1.1049,-1.1015,-1.1192,-1.1719,-1.2017,-1.2298,-1.2603,-1.2808,-1.2881,-1.2832,-1.2881,-1.2832,-1.271,-1.2652,-1.2676,-1.27,-1.252,-1.2578,-1.2881,-1.2627,-1.2627,-1.2822,-1.27,-1.2455,-1.2076,-1.1843,-1.146,-1.0914,-1.0804,-1.0762,-1.0703,-1.0889,-1.1057,-1.1175,-1.156,-1.1843,-1.1977,-1.2051,-1.22,-1.2446,-1.2406,-1.2348,-1.2357,-1.2274,-1.2209,-1.2026,-1.1628,-1.1301,-1.1276,-1.1108,-1.0719,-1.0244,-1.0115,-0.9865,-0.9387,-0.8956,-0.8804,-0.8778,-0.8778,-0.8778,-0.8778,-0.8778,-0.8778,-0.8778,-0.8778,-0.8858,-0.8964,-0.9385,-0.9773,-1.0067,-1.0367,-1.0553,-1.0586,-1.0586,-1.0586,-1.0586,-1.0586,-1.0586,-1.0586,-1.0586,-1.0586,-1.0586,-1.0586,-1.0586,-1.0586,-1.0586,-1.0586,-1.0586,-1.0618,-1.0681,-1.0681,-1.0807,-1.0902,-1.1153,-1.1373,-1.1498,-1.156,-1.1591,-1.1591,-1.1591,-1.1591,-1.1591,-1.1591,-1.1591,-1.1591,-0.8751,-0.8883,-0.9581,-0.9909,-1.0072,-1.0352,-1.0488,-1.0514,-1.0496,-1.0496,-1.0565,-1.0702,-1.0863,-1.1065,-1.161,-1.1959,-1.22,-1.252,-1.2783,-1.2783,-1.2822,-1.2808,-1.2661,-1.2495,-1.2529,-1.2627,-1.215,-1.22,-1.2578,-1.2224,-1.2298,-1.2569,-1.219,-1.1993,-1.1735,-1.1376,-1.0787,-1.0244,-1.0141,-1.009,-0.9969,-0.964,-0.9744,-1.0525,-1.0685,-1.1006,-1.1444,-1.1494,-1.1644,-1.2126,-1.2126,-1.2126,-1.2101,-1.2076,-1.2002,-1.1843,-1.1469,-1.1141,-1.104,-1.0643,-1.0149,-0.964,-0.9614,-0.9354,-0.8962,-0.8831,-0.8778,-0.8778,-0.8778,-0.8778,-0.8778,-0.8778,-0.8791,-0.8805,-0.8838,-0.8938,-0.9204,-0.9526,-0.9813,-1.012,-1.0388,-1.0555,-1.0523,-1.0523,-1.0491,-1.0555,-1.0523,-1.0428,-1.0555,-1.0523,-1.053,-1.0561,-1.0593,-1.0586,-1.0586,-1.0586,-1.0586,-1.0586,-1.0586,-1.0555,-1.0586,-1.0713,-1.0807,-1.1059,-1.1216,-1.1373,-1.1498,-1.1498,-1.156,-1.1591,-1.1591,-1.1591,-1.1591,-1.1599,-1.1655,-0.8096,-0.8521,-0.8732,-0.9223,-0.9814,-0.995,-1.019,-1.0445,-1.0205,-1.0128,-1.0128,-1.001,-1.0216,-1.0531,-1.0778,-1.1284,-1.1893,-1.2116,-1.2471,-1.2783,-1.2749,-1.2676,-1.2505,-1.2224,-1.2101,-1.2126,-1.1669,-1.1485,-1.1644,-1.1535,-1.1476,-1.1484,-1.1409,-1.1057,-1.0584,-1.0431,-1.002,-0.9536,-0.9458,-0.9413,-0.9361,-0.964,-0.9788,-0.984,-1.032,-1.0812,-1.1293,-1.1326,-1.1352,-1.1553,-1.1927,-1.2076,-1.2051,-1.1719,-1.1309,-1.0838,-1.0405,-1.0079,-1.0053,-0.9925,-0.9562,-0.914,-0.9361,-0.9368,-0.8857,-0.8778,-0.8778,-0.8778,-0.8778,-0.8778,-0.8778,-0.8778,-0.8865,-0.9038,-0.8924,-0.9004,-0.9396,-0.9639,-0.9866,-1.0341,-1.0046,-1.0091,-1.0231,-1.0168,-1.0009,-1.0301,-1.0168,-0.9945,-1.0136,-1.004,-0.9843,-1.0396,-1.0561,-1.0593,-1.0586,-1.0586,-1.0586,-1.0586,-1.0555,-1.053,-1.0624,-1.0719,-1.0776,-1.0902,-1.0895,-1.0989,-1.1209,-1.1334,-1.1435,-1.1397,-1.1549,-1.1539,-1.1589,-1.1621,-1.1709,-0.7702,-0.8023,-0.8123,-0.8488,-0.9026,-0.9328,-0.9629,-0.9844,-0.9862,-0.9829,-0.9803,-0.9673,-0.9777,-1.0061,-1.0293,-1.0694,-1.1267,-1.151,-1.1868,-1.2274,-1.2323,-1.2455,-1.248,-1.2175,-1.1918,-1.1877,-1.1209,-1.1049,-1.1133,-1.0939,-1.0847,-1.0939,-1.0712,-1.0364,-1.0097,-0.9736,-0.9484,-0.9178,-0.9106,-0.9061,-0.8989,-0.929,-0.9387,-0.9387,-0.984,-1.0328,-1.0566,-1.0795,-1.0922,-1.0998,-1.1225,-1.1576,-1.2002,-1.1326,-1.0558,-0.9814,-0.9607,-0.9614,-0.9562,-0.9406,-0.914,-0.891,-0.9133,-0.9087,-0.8857,-0.8778,-0.8778,-0.8778,-0.8778,-0.8778,-0.8778,-0.8778,-0.8784,-0.876,-0.8894,-0.9093,-0.941,-0.9415,-0.9498,-0.9643,-0.962,-0.9492,-0.9786,-0.955,-0.9582,-0.9588,-0.9332,-0.9364,-0.9492,-0.9262,-0.923,-0.9716,-0.9881,-0.9748,-0.9684,-0.9684,-0.9945,-1.004,-1.0187,-1.0232,-1.0405,-1.0494,-1.0441,-1.0473,-1.0523,-1.06,-1.0735,-1.0862,-1.0888,-1.0979,-1.1277,-1.1528,-1.1599,-1.1457,-1.1613,-0.7461,-0.7488,-0.7717,-0.7845,-0.8037,-0.8573,-0.8949,-0.9087,-0.9394,-0.9569,-0.9614,-0.9614,-0.964,-0.964,-1.0061,-1.0285,-1.032,-1.0871,-1.125,-1.1585,-1.1794,-1.2051,-1.2372,-1.1843,-1.1644,-1.1569,-1.0786,-1.06,-1.0643,-1.032,-1.0364,-1.0415,-1.009,-0.9917,-0.9692,-0.9387,-0.9133,-0.9001,-0.8982,-0.8929,-0.8857,-0.891,-0.8929,-0.8982,-0.9413,-0.9614,-0.9744,-0.9987,-1.0295,-1.021,-1.0338,-1.0956,-1.1635,-1.083,-0.9943,-0.9185,-0.9263,-0.9439,-0.9439,-0.9061,-0.8831,-0.8804,-0.8804,-0.8778,-0.8778,-0.8778,-0.8778,-0.8778,-0.8778,-0.8778,-0.8791,-0.8778,-0.8618,-0.8477,-0.8808,-0.8964,-0.8987,-0.9082,-0.9011,-0.8575,-0.9069,-0.9005,-0.8877,-0.8844,-0.9102,-0.9005,-0.8716,-0.8689,-0.8748,-0.8619,-0.8619,-0.8812,-0.8812,-0.8683,-0.8651,-0.8651,-0.9051,-0.935,-0.9518,-0.9646,-0.9937,-0.9998,-0.993,-0.9899,-0.9819,-0.9874,-1.0003,-1.0115,-1.0193,-1.0536,-1.085,-1.1272,-1.1603,-1.1349,-1.1337,-0.7198,-0.7192,-0.7273,-0.745,-0.775,-0.791,-0.8388,-0.8982,-0.9113,-0.9335,-0.9543,-0.9614,-0.9588,-0.9614,-0.9769,-0.9976,-1.0259,-1.0446,-1.0684,-1.1192,-1.1309,-1.141,-1.146,-1.1006,-1.0778,-1.0651,-1.0138,-0.9821,-0.9762,-0.9744,-0.9536,-0.9432,-0.9439,-0.9166,-0.9087,-0.9035,-0.8883,-0.8831,-0.8831,-0.8831,-0.8804,-0.8778,-0.8778,-0.8831,-0.9283,-0.9342,-0.9159,-0.9484,-0.9562,-0.9432,-0.9917,-1.0448,-1.055,-1.0141,-0.9491,-0.9035,-0.8883,-0.8982,-0.8956,-0.8883,-0.8778,-0.8778,-0.8778,-0.8778,-0.8778,-0.8778,-0.8778,-0.8778,-0.8778,-0.8778,-0.8798,-0.8517,-0.8419,-0.8443,-0.8379,-0.8212,-0.8149,-0.9004,-0.9189,-0.8708,-0.8554,-0.8651,-0.8458,-0.8069,-0.8199,-0.8296,-0.8236,-0.8042,-0.7944,-0.7907,-0.7939,-0.8004,-0.8069,-0.8019,-0.8134,-0.8169,-0.8445,-0.871,-0.884,-0.886,-0.9131,-0.9192,-0.9019,-0.8992,-0.9047,-0.9125,-0.9271,-0.9361,-0.9457,-0.994,-1.0464,-1.0814,-1.107,-1.0955,-1.1064,-0.6999,-0.7106,-0.7106,-0.7214,-0.7429,-0.7616,-0.8103,-0.8685,-0.8956,-0.9237,-0.9517,-0.9536,-0.9536,-0.9588,-0.9562,-0.9692,-0.9932,-1.0131,-1.0259,-1.0464,-1.0643,-1.0643,-1.0362,-1.0156,-1.0035,-1.0156,-0.9769,-0.9458,-0.9335,-0.9237,-0.9159,-0.9008,-0.8936,-0.8903,-0.8804,-0.8778,-0.8804,-0.8804,-0.8778,-0.8778,-0.8778,-0.8778,-0.8778,-0.8804,-0.9087,-0.9061,-0.8883,-0.9061,-0.9035,-0.9008,-0.9361,-0.9666,-0.964,-0.9413,-0.908,-0.8857,-0.8778,-0.8778,-0.8804,-0.8778,-0.8778,-0.8778,-0.8778,-0.8778,-0.8778,-0.8778,-0.8778,-0.8778,-0.8778,-0.8785,-0.8771,-0.8431,-0.8353,-0.8434,-0.8207,-0.7881,-0.7767,-0.8345,-0.8561,-0.7877,-0.7777,-0.7717,-0.7521,-0.7423,-0.7293,-0.7456,-0.733,-0.7167,-0.7101,-0.7068,-0.7134,-0.7195,-0.7326,-0.7433,-0.7612,-0.7783,-0.7946,-0.8093,-0.8186,-0.8041,-0.8001,-0.8029,-0.7952,-0.8167,-0.8433,-0.8448,-0.8568,-0.8659,-0.8957,-0.9684,-1.0188,-1.0394,-1.0615,-1.0825,-1.0936,-0.6815,-0.6977,-0.7058,-0.7106,-0.7187,-0.7536,-0.8017,-0.8533,-0.8718,-0.9047,-0.9458,-0.9387,-0.9335,-0.951,-0.9484,-0.9439,-0.9562,-0.9821,-0.9969,-0.9847,-1.0079,-0.995,-0.9647,-0.9543,-0.9595,-0.9935,-0.9588,-0.9309,-0.9159,-0.9054,-0.9008,-0.8956,-0.8857,-0.8804,-0.8778,-0.8778,-0.8778,-0.8778,-0.8778,-0.8778,-0.8778,-0.8778,-0.8778,-0.8804,-0.8831,-0.8857,-0.8804,-0.8831,-0.8804,-0.8778,-0.8778,-0.8778,-0.8778,-0.8778,-0.8778,-0.8778,-0.8778,-0.8778,-0.8778,-0.8778,-0.8778,-0.8778,-0.8778,-0.8778,-0.8778,-0.8778,-0.8778,-0.8778,-0.8778,-0.8778,-0.8771,-0.8318,-0.8235,-0.8257,-0.8011,-0.7633,-0.7399,-0.733,-0.7088,-0.683,-0.7228,-0.7423,-0.7134,-0.6905,-0.6745,-0.6585,-0.6486,-0.642,-0.642,-0.6453,-0.6613,-0.6679,-0.6839,-0.6988,-0.7164,-0.7469,-0.765,-0.7731,-0.7731,-0.7587,-0.7387,-0.7496,-0.7677,-0.7717,-0.7882,-0.7941,-0.7951,-0.7997,-0.8505,-0.9428,-0.9773,-0.9815,-1.0194,-1.0714,-1.0724,-0.6566,-0.6372,-0.6891,-0.716,-0.7289,-0.7589,-0.8123,-0.8718,-0.8362,-0.862,-0.9335,-0.8961,-0.9073,-0.9361,-0.9536,-0.9562,-0.9588,-0.9718,-0.9692,-0.9562,-0.9647,-0.9465,-0.9387,-0.9283,-0.9263,-0.9211,-0.9159,-0.9159,-0.9061,-0.9008,-0.8936,-0.885,-0.8804,-0.8778,-0.8778,-0.8778,-0.8778,-0.8778,-0.8778,-0.8778,-0.8778,-0.8778,-0.8778,-0.8778,-0.8778,-0.8778,-0.8778,-0.8778,-0.8778,-0.8778,-0.8778,-0.8778,-0.8778,-0.8778,-0.8778,-0.8778,-0.8778,-0.8778,-0.8778,-0.8778,-0.8778,-0.8778,-0.8778,-0.8778,-0.8778,-0.8778,-0.8778,-0.8778,-0.8778,-0.8785,-0.8798,-0.8219,-0.7839,-0.7666,-0.7274,-0.6815,-0.6732,-0.6675,-0.6675,-0.6482,-0.6937,-0.7232,-0.6876,-0.6613,-0.6552,-0.6519,-0.6453,-0.642,-0.642,-0.642,-0.6453,-0.6486,-0.6486,-0.663,-0.675,-0.7103,-0.7388,-0.7454,-0.7496,-0.7605,-0.7447,-0.7462,-0.7517,-0.7603,-0.756,-0.7553,-0.753,-0.7543,-0.8071,-0.8985,-0.9145,-0.9236,-0.9809,-1.0344,-1.0248,-0.6218,-0.6258,-0.6701,-0.6918,-0.7079,-0.7509,-0.8076,-0.8606,-0.8553,-0.8856,-0.9249,-0.9171,-0.9171,-0.9439,-0.9465,-0.9536,-0.9588,-0.9536,-0.9517,-0.9465,-0.9361,-0.9263,-0.9211,-0.9133,-0.9035,-0.8962,-0.8956,-0.8982,-0.891,-0.8877,-0.8857,-0.8804,-0.8778,-0.8778,-0.8778,-0.8778,-0.8778,-0.8778,-0.8778,-0.8778,-0.8778,-0.8778,-0.8778,-0.8778,-0.8778,-0.8778,-0.8778,-0.8778,-0.8778,-0.8778,-0.8778,-0.8778,-0.8778,-0.8778,-0.8778,-0.8778,-0.8778,-0.8778,-0.8778,-0.8778,-0.8778,-0.8778,-0.8778,-0.8778,-0.8778,-0.8778,-0.8785,-0.8785,-0.8791,-0.8845,-0.8977,-0.8144,-0.7954,-0.8055,-0.724,-0.6682,-0.6741,-0.6576,-0.6482,-0.642,-0.6651,-0.6778,-0.6618,-0.6453,-0.642,-0.642,-0.642,-0.642,-0.642,-0.642,-0.6424,-0.6497,-0.6538,-0.6729,-0.6859,-0.7098,-0.7309,-0.735,-0.7382,-0.7494,-0.7518,-0.751,-0.7456,-0.7496,-0.7424,-0.7378,-0.7513,-0.7681,-0.8138,-0.8551,-0.8912,-0.9281,-0.9642,-0.9884,-0.9884,-0.5868,-0.605,-0.6426,-0.662,-0.6756,-0.7402,-0.7963,-0.8395,-0.8712,-0.908,-0.9465,-0.9302,-0.9309,-0.9491,-0.9517,-0.9517,-0.9588,-0.9465,-0.9413,-0.9387,-0.9237,-0.9113,-0.9035,-0.8962,-0.891,-0.8831,-0.8831,-0.8778,-0.8804,-0.8804,-0.8804,-0.8725,-0.8725,-0.8725,-0.8778,-0.8619,-0.8699,-0.8778,-0.8778,-0.8778,-0.8778,-0.8778,-0.8778,-0.8778,-0.8778,-0.8778,-0.8778,-0.8778,-0.8778,-0.8778,-0.8778,-0.8778,-0.8778,-0.8778,-0.8752,-0.8732,-0.8778,-0.8778,-0.8725,-0.8778,-0.8778,-0.8752,-0.8778,-0.8778,-0.8778,-0.8791,-0.8811,-0.8845,-0.8911,-0.9031,-0.9116,-0.834,-0.8165,-0.8195,-0.7396,-0.6548,-0.6773,-0.6745,-0.6453,-0.642,-0.642,-0.642,-0.642,-0.642,-0.642,-0.642,-0.642,-0.642,-0.642,-0.642,-0.6453,-0.657,-0.6704,-0.6944,-0.7114,-0.7261,-0.7395,-0.7427,-0.7473,-0.751,-0.7518,-0.7518,-0.7498,-0.7447,-0.7494,-0.7482,-0.7629,-0.7791,-0.8093,-0.8475,-0.8899,-0.9316,-0.969,-0.9884,-0.9884,-0.5658,-0.5462,-0.6023,-0.634,-0.6556,-0.731,-0.7937,-0.8342,-0.8448,-0.8798,-0.9211,-0.8949,-0.9047,-0.9361,-0.9536,-0.9562,-0.9536,-0.9432,-0.9361,-0.9335,-0.9133,-0.9008,-0.8989,-0.8883,-0.8831,-0.8778,-0.8778,-0.8778,-0.8778,-0.8778,-0.8752,-0.8672,-0.8335,-0.8229,-0.8507,-0.8209,-0.8289,-0.8672,-0.8778,-0.8778,-0.8778,-0.8778,-0.8778,-0.8778,-0.8778,-0.8778,-0.8778,-0.8778,-0.8778,-0.8778,-0.8778,-0.8778,-0.8778,-0.8778,-0.8672,-0.8593,-0.8619,-0.8699,-0.856,-0.8672,-0.8718,-0.8692,-0.8745,-0.8778,-0.8778,-0.8824,-0.8878,-0.9151,-0.9169,-0.9223,-0.9266,-0.8543,-0.8204,-0.7735,-0.7187,-0.6564,-0.6585,-0.6712,-0.6453,-0.642,-0.642,-0.642,-0.642,-0.642,-0.642,-0.642,-0.642,-0.642,-0.644,-0.6457,-0.6542,-0.668,-0.6838,-0.7074,-0.7236,-0.7403,-0.7447,-0.7518,-0.7518,-0.7518,-0.7518,-0.7518,-0.7518,-0.751,-0.7518,-0.7557,-0.7714,-0.7868,-0.8059,-0.8437,-0.897,-0.9387,-0.9765,-0.9841,-0.9884,-0.5439,-0.5352,-0.5782,-0.6,-0.6164,-0.6912,-0.7369,-0.7664,-0.8249,-0.8626,-0.8896,-0.9119,-0.9302,-0.9491,-0.9517,-0.9536,-0.951,-0.9316,-0.9237,-0.9178,-0.9008,-0.8877,-0.8883,-0.8831,-0.8778,-0.8752,-0.8778,-0.8778,-0.8778,-0.8725,-0.8672,-0.8309,-0.8037,-0.7797,-0.7996,-0.7622,-0.7803,-0.8209,-0.856,-0.8778,-0.8778,-0.8778,-0.8778,-0.8778,-0.8778,-0.8778,-0.8778,-0.8778,-0.8752,-0.8718,-0.8692,-0.8718,-0.8725,-0.8672,-0.8513,-0.8454,-0.858,-0.858,-0.848,-0.8613,-0.8633,-0.8659,-0.8718,-0.8778,-0.8778,-0.8824,-0.8931,-0.9157,-0.9482,-0.9555,-0.9255,-0.8524,-0.8043,-0.7528,-0.6941,-0.6645,-0.642,-0.642,-0.642,-0.642,-0.642,-0.642,-0.642,-0.642,-0.642,-0.642,-0.642,-0.642,-0.6477,-0.6546,-0.6668,-0.6865,-0.7001,-0.7188,-0.7322,-0.7456,-0.746,-0.7518,-0.7518,-0.7518,-0.7518,-0.7518,-0.7518,-0.7518,-0.7518,-0.7599,-0.7753,-0.8021,-0.8327,-0.8703,-0.9079,-0.9463,-0.9803,-0.9841,-0.9884,-0.5301,-0.5325,-0.5576,-0.5686,-0.5736,-0.6431,-0.6772,-0.6961,-0.7904,-0.8468,-0.8778,-0.9276,-0.9588,-0.9562,-0.9491,-0.9465,-0.951,-0.9159,-0.8975,-0.887,-0.8712,-0.8586,-0.8448,-0.8448,-0.8374,-0.856,-0.8268,-0.8242,-0.8268,-0.8321,-0.8182,-0.8064,-0.7797,-0.7637,-0.7348,-0.7079,-0.7155,-0.7696,-0.8262,-0.8501,-0.856,-0.8732,-0.8778,-0.8778,-0.8778,-0.8752,-0.8745,-0.8699,-0.8606,-0.858,-0.8553,-0.858,-0.8619,-0.8533,-0.8348,-0.8321,-0.8427,-0.8454,-0.8395,-0.8474,-0.8606,-0.8659,-0.8666,-0.8725,-0.8527,-0.8646,-0.8694,-0.8777,-0.9218,-0.923,-0.8957,-0.8294,-0.7869,-0.738,-0.6863,-0.6613,-0.642,-0.642,-0.642,-0.642,-0.642,-0.642,-0.642,-0.642,-0.642,-0.642,-0.642,-0.6387,-0.6401,-0.6463,-0.661,-0.6726,-0.6783,-0.7021,-0.7382,-0.7476,-0.748,-0.7518,-0.7518,-0.7518,-0.7518,-0.7518,-0.7518,-0.7518,-0.7518,-0.7753,-0.7949,-0.8289,-0.8632,-0.8932,-0.9273,-0.9582,-0.9809,-0.9846,-0.9884,-0.5301,-0.5301,-0.5329,-0.5352,-0.538,-0.5964,-0.6399,-0.6642,-0.7423,-0.817,-0.883,-0.9295,-0.9562,-0.9562,-0.9432,-0.9387,-0.9413,-0.9113,-0.8784,-0.8402,-0.8057,-0.8064,-0.7957,-0.7777,-0.7563,-0.7824,-0.7696,-0.7461,-0.73,-0.7542,-0.7943,-0.848,-0.7643,-0.7584,-0.7343,-0.6885,-0.6831,-0.7321,-0.783,-0.8004,-0.815,-0.8401,-0.8725,-0.8666,-0.8633,-0.8626,-0.86,-0.8527,-0.8454,-0.8421,-0.8421,-0.8368,-0.8374,-0.8348,-0.8215,-0.7949,-0.8103,-0.8076,-0.7937,-0.8342,-0.8666,-0.8685,-0.8613,-0.8473,-0.8084,-0.8493,-0.8479,-0.8113,-0.8469,-0.8551,-0.8302,-0.8016,-0.7613,-0.7172,-0.6778,-0.6548,-0.642,-0.642,-0.642,-0.642,-0.642,-0.642,-0.642,-0.642,-0.642,-0.642,-0.6193,-0.616,-0.6127,-0.6192,-0.6375,-0.6488,-0.6463,-0.6757,-0.7317,-0.7484,-0.748,-0.7518,-0.7518,-0.7518,-0.7518,-0.7518,-0.7518,-0.7595,-0.7676,-0.7906,-0.8178,-0.8479,-0.8822,-0.9132,-0.9435,-0.9695,-0.9846,-0.9884,-0.9884,-0.5132,-0.4939,-0.5191,-0.5301,-0.5329,-0.5536,-0.5814,-0.6196,-0.6885,-0.7877,-0.8923,-0.9159,-0.9335,-0.9413,-0.9335,-0.929,-0.9237,-0.8989,-0.8765,-0.8521,-0.8229,-0.7957,-0.7717,-0.7423,-0.7241,-0.7321,-0.716,-0.7106,-0.7139,-0.6977,-0.7246,-0.7461,-0.7219,-0.6972,-0.675,-0.6777,-0.6918,-0.7106,-0.753,-0.7738,-0.7498,-0.8117,-0.8282,-0.7482,-0.8315,-0.8196,-0.8037,-0.8289,-0.8295,-0.8295,-0.8268,-0.8162,-0.8029,-0.8029,-0.7729,-0.7359,-0.7536,-0.7477,-0.7369,-0.7931,-0.8527,-0.8223,-0.8182,-0.8063,-0.7576,-0.7726,-0.7914,-0.7765,-0.7489,-0.7507,-0.7777,-0.7647,-0.7386,-0.6937,-0.6651,-0.6453,-0.642,-0.642,-0.642,-0.642,-0.642,-0.642,-0.642,-0.642,-0.642,-0.6387,-0.6127,-0.5922,-0.5891,-0.5783,-0.5898,-0.6139,-0.6176,-0.6417,-0.7003,-0.7253,-0.748,-0.7518,-0.7518,-0.7518,-0.7518,-0.7518,-0.7518,-0.7638,-0.7868,-0.8174,-0.8446,-0.8713,-0.898,-0.9284,-0.9549,-0.9771,-0.9846,-0.9884,-0.9884,-0.4967,-0.4743,-0.5136,-0.5301,-0.5301,-0.5301,-0.5544,-0.5978,-0.6453,-0.7477,-0.8798,-0.8896,-0.9106,-0.9283,-0.9211,-0.9159,-0.9087,-0.891,-0.8745,-0.8474,-0.8117,-0.7851,-0.753,-0.7155,-0.675,-0.6783,-0.6598,-0.649,-0.6436,-0.6544,-0.6544,-0.6571,-0.6729,-0.6539,-0.6453,-0.6561,-0.6837,-0.6966,-0.7423,-0.7637,-0.7343,-0.7984,-0.8309,-0.7429,-0.8049,-0.8156,-0.799,-0.8103,-0.8162,-0.8055,-0.7949,-0.7762,-0.7595,-0.7381,-0.7052,-0.681,-0.6723,-0.6772,-0.6799,-0.7224,-0.7967,-0.7753,-0.7716,-0.7511,-0.7233,-0.71,-0.7362,-0.722,-0.6778,-0.6613,-0.7199,-0.7068,-0.697,-0.6581,-0.6552,-0.642,-0.642,-0.642,-0.642,-0.642,-0.642,-0.642,-0.6391,-0.6391,-0.637,-0.6295,-0.6056,-0.5853,-0.5758,-0.5553,-0.5225,-0.5557,-0.5894,-0.6228,-0.6598,-0.7061,-0.7442,-0.7518,-0.7518,-0.7518,-0.7518,-0.7518,-0.7633,-0.7829,-0.8097,-0.8441,-0.8784,-0.9127,-0.9322,-0.9473,-0.9663,-0.9846,-0.9846,-0.9884,-0.9884,-0.4688,-0.4746,-0.5105,-0.5301,-0.5301,-0.5301,-0.5622,-0.6132,-0.6317,-0.7095,-0.8315,-0.8626,-0.8935,-0.9197,-0.9054,-0.9035,-0.8982,-0.8857,-0.8553,-0.8111,-0.7877,-0.7557,-0.7047,-0.6593,-0.6213,-0.6077,-0.5891,-0.5654,-0.5489,-0.5654,-0.5599,-0.5677,-0.5996,-0.6263,-0.6182,-0.6209,-0.6236,-0.6372,-0.7182,-0.7429,-0.7482,-0.7937,-0.8156,-0.783,-0.8029,-0.8082,-0.7889,-0.7922,-0.7981,-0.7955,-0.7628,-0.7354,-0.709,-0.6837,-0.6421,-0.5846,-0.6226,-0.634,-0.6245,-0.6701,-0.6961,-0.7181,-0.7196,-0.7062,-0.6841,-0.6859,-0.6881,-0.6678,-0.642,-0.6408,-0.6486,-0.6486,-0.6486,-0.6453,-0.642,-0.642,-0.642,-0.642,-0.642,-0.642,-0.642,-0.642,-0.6391,-0.6362,-0.6345,-0.623,-0.5984,-0.579,-0.5552,-0.5132,-0.4673,-0.4914,-0.5304,-0.5633,-0.6054,-0.6942,-0.7403,-0.7442,-0.7518,-0.7518,-0.7518,-0.7518,-0.7714,-0.7983,-0.8289,-0.8589,-0.9089,-0.9587,-0.962,-0.9695,-0.9771,-0.9884,-0.9884,-0.9846,-0.9809,-0.4218,-0.427,-0.4715,-0.5077,-0.5301,-0.5301,-0.5645,-0.6209,-0.6647,-0.7133,-0.7696,-0.8156,-0.8408,-0.8593,-0.8844,-0.8877,-0.8831,-0.8831,-0.8474,-0.7898,-0.7584,-0.7015,-0.6507,-0.6055,-0.5677,-0.5567,-0.5356,-0.5301,-0.5356,-0.5301,-0.5301,-0.5407,-0.5508,-0.5909,-0.6317,-0.6344,-0.605,-0.6073,-0.6534,-0.6804,-0.6566,-0.7488,-0.7889,-0.7182,-0.7676,-0.7895,-0.7655,-0.7762,-0.7901,-0.7875,-0.7574,-0.7359,-0.7117,-0.6918,-0.661,-0.59,-0.5905,-0.5922,-0.5595,-0.5624,-0.5934,-0.6316,-0.6638,-0.651,-0.6102,-0.6198,-0.6206,-0.6265,-0.6327,-0.6387,-0.642,-0.6453,-0.642,-0.642,-0.642,-0.642,-0.642,-0.642,-0.642,-0.642,-0.642,-0.6321,-0.6255,-0.6011,-0.5936,-0.5787,-0.5499,-0.5173,-0.4929,-0.4436,-0.3975,-0.4234,-0.4603,-0.496,-0.5473,-0.6321,-0.6903,-0.7022,-0.7249,-0.7518,-0.7518,-0.7518,-0.7633,-0.7868,-0.8322,-0.8775,-0.9198,-0.9582,-0.9771,-0.9884,-0.9884,-0.9884,-0.9884,-0.9771,-0.9614,-0.3799,-0.3882,-0.4439,-0.4853,-0.5132,-0.5352,-0.5809,-0.6376,-0.6864,-0.716,-0.7375,-0.7676,-0.7836,-0.7931,-0.815,-0.8315,-0.8215,-0.8189,-0.8129,-0.7584,-0.7295,-0.6804,-0.6268,-0.5782,-0.5622,-0.5407,-0.5301,-0.5301,-0.5301,-0.5301,-0.5274,-0.5215,-0.5156,-0.5454,-0.5859,-0.5832,-0.5914,-0.5991,-0.629,-0.6448,-0.648,-0.6912,-0.7408,-0.7106,-0.7327,-0.7768,-0.7574,-0.7655,-0.7875,-0.7848,-0.7681,-0.7494,-0.7273,-0.6891,-0.6669,-0.5987,-0.569,-0.5769,-0.5543,-0.517,-0.5487,-0.5667,-0.6008,-0.6015,-0.5799,-0.5998,-0.6117,-0.6205,-0.6309,-0.6387,-0.642,-0.642,-0.6387,-0.6387,-0.6354,-0.6354,-0.6321,-0.6288,-0.6288,-0.6321,-0.6119,-0.6086,-0.5951,-0.5695,-0.5428,-0.5215,-0.5,-0.4694,-0.4395,-0.4022,-0.3673,-0.3915,-0.4226,-0.4657,-0.5085,-0.5664,-0.6209,-0.6521,-0.6907,-0.7288,-0.7518,-0.7518,-0.7633,-0.7825,-0.8356,-0.8813,-0.9198,-0.9501,-0.9771,-0.9884,-0.9884,-0.9884,-0.9884,-0.969,-0.9463,-0.3388,-0.3527,-0.4332,-0.4688,-0.4825,-0.5489,-0.6141,-0.668,-0.6972,-0.7133,-0.7235,-0.7106,-0.7187,-0.7235,-0.7187,-0.7246,-0.73,-0.73,-0.7192,-0.7106,-0.6939,-0.6534,-0.6268,-0.5968,-0.5622,-0.538,-0.5274,-0.5301,-0.5301,-0.5274,-0.5215,-0.5101,-0.5042,-0.5097,-0.5175,-0.534,-0.5527,-0.5609,-0.5905,-0.6064,-0.6177,-0.6669,-0.6945,-0.6923,-0.7219,-0.7494,-0.7494,-0.7655,-0.7687,-0.7574,-0.7354,-0.7166,-0.6783,-0.615,-0.6068,-0.6004,-0.5895,-0.5781,-0.5661,-0.5269,-0.5213,-0.535,-0.5533,-0.5678,-0.5831,-0.5915,-0.6065,-0.6183,-0.6317,-0.6354,-0.642,-0.6387,-0.6354,-0.6317,-0.6284,-0.6218,-0.6152,-0.6119,-0.6119,-0.5984,-0.5716,-0.5531,-0.5255,-0.504,-0.4947,-0.4792,-0.4601,-0.4415,-0.4166,-0.4049,-0.3805,-0.3814,-0.4153,-0.4465,-0.489,-0.5201,-0.5702,-0.6131,-0.656,-0.6903,-0.7173,-0.7595,-0.7829,-0.8097,-0.8508,-0.8927,-0.9425,-0.9652,-0.9809,-0.9884,-0.9884,-0.9884,-0.9884,-0.9501,-0.916,-0.3081,-0.3444,-0.3968,-0.4411,-0.4825,-0.57,-0.6186,-0.6372,-0.6674,-0.6729,-0.6502,-0.6669,-0.6669,-0.6561,-0.6923,-0.7025,-0.7079,-0.7052,-0.6783,-0.6647,-0.6458,-0.6055,-0.5786,-0.5595,-0.5403,-0.5293,-0.5242,-0.527,-0.5187,-0.5156,-0.5101,-0.4987,-0.4908,-0.4739,-0.4712,-0.4791,-0.4901,-0.5062,-0.5441,-0.5578,-0.5792,-0.6177,-0.6372,-0.6561,-0.6696,-0.6837,-0.6891,-0.7166,-0.7139,-0.675,-0.6999,-0.695,-0.6399,-0.6413,-0.6584,-0.6691,-0.6215,-0.5657,-0.5432,-0.5335,-0.5284,-0.5277,-0.5411,-0.5494,-0.5675,-0.5855,-0.602,-0.6152,-0.6115,-0.6115,-0.6152,-0.6185,-0.6017,-0.5885,-0.5815,-0.5749,-0.565,-0.555,-0.5517,-0.5359,-0.509,-0.4986,-0.4699,-0.4555,-0.4476,-0.4321,-0.4209,-0.4108,-0.3985,-0.3902,-0.3837,-0.3841,-0.3919,-0.4231,-0.4309,-0.4582,-0.5162,-0.5702,-0.617,-0.671,-0.7292,-0.7676,-0.7987,-0.8369,-0.8818,-0.9273,-0.9733,-0.9884,-0.9884,-0.9884,-0.9884,-0.9884,-0.9809,-0.9311,-0.8775,-0.2858,-0.3163,-0.358,-0.4104,-0.4798,-0.5673,-0.605,-0.6136,-0.6512,-0.6507,-0.6209,-0.6241,-0.6136,-0.5946,-0.6164,-0.6327,-0.6295,-0.6273,-0.6109,-0.5946,-0.5864,-0.565,-0.5384,-0.5301,-0.5242,-0.5187,-0.5187,-0.5215,-0.5128,-0.5073,-0.5042,-0.4822,-0.4719,-0.4632,-0.4574,-0.4546,-0.4546,-0.4653,-0.4814,-0.4952,-0.5226,-0.555,-0.5741,-0.5878,-0.5987,-0.6127,-0.6182,-0.6615,-0.648,-0.6263,-0.6647,-0.6593,-0.6264,-0.6477,-0.6693,-0.6725,-0.6285,-0.5899,-0.5745,-0.5487,-0.5444,-0.5395,-0.5395,-0.5488,-0.5617,-0.5822,-0.5954,-0.6053,-0.5885,-0.5782,-0.5851,-0.5885,-0.5583,-0.5315,-0.5216,-0.515,-0.5014,-0.4848,-0.4722,-0.4564,-0.447,-0.4429,-0.4316,-0.4162,-0.4036,-0.3988,-0.3975,-0.3956,-0.3898,-0.3869,-0.3839,-0.3841,-0.3841,-0.3919,-0.3999,-0.4194,-0.4774,-0.5354,-0.578,-0.6398,-0.7211,-0.7829,-0.8178,-0.8675,-0.9165,-0.9544,-0.9884,-0.9884,-0.9884,-0.9884,-0.9884,-0.9884,-0.9576,-0.8846,-0.8309,-0.2691,-0.2775,-0.3246,-0.3968,-0.4743,-0.5517,-0.5818,-0.5845,-0.6354,-0.6458,-0.6132,-0.5868,-0.5654,-0.5517,-0.5572,-0.5544,-0.5599,-0.5599,-0.5622,-0.5325,-0.5434,-0.5356,-0.5356,-0.5301,-0.5187,-0.5156,-0.5187,-0.5242,-0.5156,-0.5073,-0.4932,-0.4715,-0.466,-0.4605,-0.4519,-0.4491,-0.4491,-0.4515,-0.457,-0.4625,-0.4708,-0.4956,-0.5254,-0.5336,-0.5637,-0.5964,-0.6014,-0.6095,-0.6122,-0.6073,-0.6132,-0.6142,-0.5991,-0.6356,-0.6547,-0.6413,-0.6109,-0.6014,-0.5853,-0.5609,-0.5451,-0.5395,-0.5395,-0.5458,-0.5591,-0.5657,-0.5789,-0.5583,-0.5415,-0.5249,-0.5282,-0.5286,-0.5117,-0.4851,-0.4688,-0.4519,-0.432,-0.4228,-0.4177,-0.4066,-0.402,-0.3978,-0.3913,-0.3769,-0.3869,-0.3766,-0.3772,-0.3791,-0.3802,-0.3802,-0.3802,-0.3802,-0.3802,-0.3802,-0.3841,-0.4075,-0.4462,-0.4965,-0.547,-0.6128,-0.698,-0.7714,-0.8408,-0.8899,-0.9354,-0.962,-0.9884,-0.9884,-0.9884,-0.9884,-0.9884,-0.9884,-0.942,-0.8732,-0.8114,-0.2691,-0.2775,-0.3524,-0.419,-0.477,-0.5489,-0.5791,-0.5818,-0.5927,-0.5982,-0.5845,-0.5572,-0.5411,-0.5329,-0.5301,-0.5301,-0.5301,-0.5301,-0.5301,-0.5301,-0.5301,-0.5301,-0.5301,-0.5274,-0.5156,-0.5101,-0.5128,-0.5242,-0.5105,-0.5014,-0.4928,-0.4818,-0.4684,-0.4519,-0.4491,-0.4491,-0.4491,-0.4491,-0.4491,-0.4491,-0.4546,-0.4574,-0.4708,-0.4736,-0.4983,-0.5034,-0.5144,-0.5363,-0.5199,-0.5046,-0.5514,-0.5406,-0.4971,-0.6016,-0.6193,-0.5878,-0.5906,-0.5851,-0.573,-0.5557,-0.5428,-0.5395,-0.5395,-0.5428,-0.5462,-0.5491,-0.5388,-0.515,-0.4915,-0.4782,-0.4652,-0.4652,-0.4586,-0.4356,-0.4159,-0.3925,-0.3692,-0.3674,-0.3626,-0.3641,-0.3624,-0.3606,-0.356,-0.3597,-0.3654,-0.3736,-0.3769,-0.3802,-0.3802,-0.3802,-0.3802,-0.3802,-0.3802,-0.3802,-0.3802,-0.3919,-0.4309,-0.4774,-0.5237,-0.5973,-0.6788,-0.7787,-0.8751,-0.9132,-0.9549,-0.9771,-0.9884,-0.9884,-0.9884,-0.9884,-0.9846,-0.9846,-0.9576,-0.8965,-0.8271,-0.2691,-0.2772,-0.3438,-0.3968,-0.4439,-0.5046,-0.5411,-0.5548,-0.5576,-0.5572,-0.5576,-0.5384,-0.5301,-0.5301,-0.5301,-0.5301,-0.5301,-0.5301,-0.5301,-0.5301,-0.5274,-0.5301,-0.5301,-0.5215,-0.5101,-0.5014,-0.5014,-0.5046,-0.4881,-0.4959,-0.4873,-0.4708,-0.4515,-0.446,-0.446,-0.4491,-0.4491,-0.4491,-0.4491,-0.4494,-0.4494,-0.4519,-0.4491,-0.4491,-0.4491,-0.4491,-0.4574,-0.4825,-0.4758,-0.4724,-0.5089,-0.5137,-0.4979,-0.5461,-0.5703,-0.5611,-0.5585,-0.5629,-0.5467,-0.5395,-0.5395,-0.5395,-0.5395,-0.5428,-0.5428,-0.5425,-0.5193,-0.4921,-0.4453,-0.4256,-0.4023,-0.3956,-0.3856,-0.3694,-0.3627,-0.3493,-0.3426,-0.3399,-0.3445,-0.3507,-0.3503,-0.3555,-0.3577,-0.3665,-0.375,-0.3765,-0.38,-0.3802,-0.3802,-0.3802,-0.3802,-0.3802,-0.3802,-0.3802,-0.3802,-0.3919,-0.4114,-0.4579,-0.5043,-0.6086,-0.7053,-0.8169,-0.9089,-0.9316,-0.9544,-0.9809,-0.9884,-0.9884,-0.9884,-0.9884,-0.9846,-0.9771,-0.9425,-0.8965,-0.8118,-0.2691,-0.2747,-0.3274,-0.3691,-0.4052,-0.4577,-0.4994,-0.527,-0.5329,-0.5329,-0.5325,-0.5329,-0.5301,-0.5301,-0.5301,-0.5301,-0.5301,-0.5301,-0.5301,-0.5274,-0.5215,-0.5215,-0.5101,-0.4963,-0.4708,-0.4594,-0.4594,-0.4405,-0.4215,-0.4349,-0.4401,-0.4353,-0.4349,-0.4377,-0.4405,-0.446,-0.4491,-0.4491,-0.4494,-0.4508,-0.4505,-0.4522,-0.4491,-0.4491,-0.4491,-0.4491,-0.4491,-0.4563,-0.46,-0.4723,-0.49,-0.4996,-0.5027,-0.528,-0.5343,-0.5387,-0.5448,-0.547,-0.5395,-0.5395,-0.5395,-0.5395,-0.5395,-0.5362,-0.5359,-0.5126,-0.4891,-0.4459,-0.4023,-0.3725,-0.3491,-0.3357,-0.3293,-0.3261,-0.3228,-0.323,-0.323,-0.3208,-0.3307,-0.341,-0.346,-0.3548,-0.3634,-0.376,-0.3783,-0.3798,-0.3802,-0.3802,-0.3802,-0.3802,-0.3802,-0.3802,-0.3802,-0.3802,-0.3802,-0.388,-0.4036,-0.4307,-0.4888,-0.6121,-0.7238,-0.8046,-0.8742,-0.9273,-0.9501,-0.9771,-0.9884,-0.9884,-0.9884,-0.9846,-0.9539,-0.9349,-0.9041,-0.8508,-0.7698,-0.2691,-0.2775,-0.3552,-0.3913,-0.4104,-0.4829,-0.5215,-0.5301,-0.5301,-0.5301,-0.5301,-0.5301,-0.5301,-0.5301,-0.5301,-0.5301,-0.5301,-0.5274,-0.5301,-0.5301,-0.4936,-0.4963,-0.4822,-0.4377,-0.3959,-0.3873,-0.3873,-0.3735,-0.3685,-0.371,-0.3541,-0.3325,-0.3683,-0.3793,-0.3904,-0.4107,-0.4459,-0.4494,-0.4552,-0.4576,-0.4624,-0.4593,-0.4498,-0.4491,-0.4491,-0.4491,-0.4518,-0.4617,-0.4675,-0.4758,-0.4938,-0.5111,-0.5203,-0.5257,-0.5347,-0.5368,-0.5395,-0.5395,-0.5395,-0.5395,-0.5395,-0.5226,-0.5193,-0.5193,-0.5024,-0.4622,-0.4253,-0.3718,-0.3353,-0.3224,-0.3058,-0.3159,-0.3125,-0.3192,-0.3228,-0.3236,-0.324,-0.3299,-0.3369,-0.345,-0.3538,-0.3624,-0.3746,-0.3793,-0.3793,-0.3802,-0.3802,-0.3802,-0.3802,-0.3802,-0.3802,-0.3802,-0.3802,-0.3802,-0.3802,-0.3841,-0.3997,-0.4229,-0.4693,-0.5812,-0.6811,-0.7583,-0.8275,-0.8889,-0.9425,-0.9771,-0.9809,-0.9884,-0.9771,-0.9652,-0.916,-0.8813,-0.8508,-0.8016,-0.7176]}]]